[[{"header":{"parameterUnit":"m.s-1","parameterCategory":1,"la1":30.6,"la2":29.2853,"lo1":-89.7004,"lo2":-87.6739,"dx":0.0162,"dy":0.0183,"nx":112,"ny":82,"refTime":"2023-02-21T18:00:00:Z","depth":0,"parameterNumber":2,"parameterNumberName":"U-component_of_WINDS"},"data":[0.0,0.0,0.0,0.0,0.0,0.0,0.0,0.0,0.0,0.0,0.0,0.0,0.0,0.0,0.0,0.0,0.0,0.0,0.0,0.0,0.0,0.0,0.0,0.0,0.0,0.0,0.0,0.0,0.0,0.0,0.0,0.0,0.0,0.0,0.0,0.0,0.0,0.0,0.0,0.0,0.0,0.0,0.0,0.0,0.0,0.0,0.0,0.0,0.0,0.0,0.0,0.0,0.0,0.0,0.0,0.0,0.0,0.0,0.0,0.0,0.0,0.0,0.0,0.0,0.0,0.0,0.0,0.0,0.0,0.0,0.0,0.0,0.0,0.0,0.0,0.0,0.0,0.0,0.0,0.0,0.0,0.0,0.0,0.0,0.0,0.0,0.0,0.0,0.0,0.0,-6.0508,-6.582,-7.414,-7.9101,-7.8555,-7.9961,-7.8359,-7.2383,0.0,0.0,0.0,0.0,0.0,0.0,0.0,0.0,0.0,0.0,0.0,0.0,0.0,0.0,0.0,0.0,0.0,0.0,0.0,0.0,0.0,0.0,0.0,0.0,0.0,0.0,0.0,0.0,0.0,0.0,0.0,0.0,0.0,0.0,0.0,0.0,0.0,0.0,0.0,0.0,0.0,0.0,0.0,0.0,0.0,0.0,0.0,0.0,0.0,0.0,0.0,0.0,0.0,0.0,0.0,0.0,0.0,0.0,0.0,0.0,0.0,0.0,0.0,0.0,0.0,0.0,0.0,0.0,0.0,0.0,0.0,0.0,0.0,0.0,0.0,0.0,0.0,0.0,0.0,0.0,0.0,0.0,0.0,0.0,0.0,0.0,0.0,0.0,0.0,0.0,0.0,0.0,0.0,0.0,0.0,0.0,0.0,0.0,0.0,0.0,0.0,0.0,0.0,0.0,-6.3398,-6.9297,-7.4531,-7.7812,-7.8437,-7.6133,-7.3906,-7.2109,0.0,0.0,0.0,0.0,0.0,0.0,0.0,0.0,0.0,0.0,0.0,0.0,0.0,0.0,0.0,0.0,0.0,0.0,0.0,0.0,0.0,0.0,0.0,0.0,0.0,0.0,0.0,0.0,0.0,0.0,0.0,0.0,0.0,0.0,0.0,0.0,0.0,0.0,0.0,0.0,0.0,0.0,0.0,0.0,0.0,0.0,0.0,0.0,0.0,0.0,0.0,0.0,0.0,0.0,0.0,0.0,0.0,0.0,0.0,0.0,0.0,0.0,0.0,0.0,0.0,0.0,0.0,0.0,0.0,0.0,0.0,0.0,0.0,0.0,0.0,0.0,0.0,0.0,0.0,0.0,0.0,0.0,0.0,0.0,0.0,0.0,0.0,0.0,0.0,0.0,0.0,0.0,0.0,0.0,0.0,0.0,0.0,0.0,0.0,0.0,0.0,0.0,0.0,-6.2695,-6.543,-7.1445,-7.5156,-7.7344,-7.7773,-7.5469,-7.3242,-7.1406,-7.1172,0.0,0.0,0.0,0.0,0.0,0.0,0.0,0.0,0.0,0.0,0.0,0.0,0.0,0.0,0.0,0.0,0.0,0.0,0.0,0.0,0.0,0.0,0.0,0.0,0.0,0.0,0.0,0.0,0.0,0.0,0.0,0.0,0.0,0.0,0.0,0.0,0.0,0.0,0.0,0.0,0.0,0.0,0.0,0.0,0.0,0.0,0.0,0.0,0.0,0.0,0.0,0.0,0.0,0.0,0.0,0.0,0.0,0.0,0.0,0.0,0.0,0.0,0.0,0.0,0.0,0.0,0.0,0.0,0.0,0.0,0.0,0.0,0.0,0.0,0.0,0.0,0.0,0.0,0.0,0.0,0.0,0.0,0.0,0.0,0.0,0.0,0.0,0.0,0.0,0.0,0.0,0.0,0.0,0.0,0.0,0.0,0.0,0.0,0.0,0.0,0.0,0.0,-6.4883,-6.6836,-7.2695,-7.5469,-7.6992,-7.7187,-7.5039,-7.2812,-7.082,-6.8359,0.0,0.0,0.0,0.0,0.0,0.0,0.0,0.0,0.0,0.0,0.0,0.0,0.0,0.0,0.0,0.0,0.0,0.0,0.0,0.0,0.0,0.0,0.0,0.0,0.0,0.0,0.0,0.0,0.0,0.0,0.0,0.0,0.0,0.0,0.0,0.0,0.0,0.0,0.0,0.0,0.0,0.0,0.0,0.0,0.0,0.0,0.0,0.0,0.0,0.0,0.0,0.0,0.0,0.0,0.0,0.0,0.0,0.0,0.0,0.0,0.0,0.0,0.0,0.0,0.0,0.0,0.0,0.0,0.0,0.0,0.0,0.0,0.0,0.0,0.0,0.0,0.0,0.0,0.0,0.0,0.0,0.0,0.0,0.0,0.0,0.0,0.0,0.0,0.0,0.0,0.0,0.0,0.0,0.0,0.0,0.0,0.0,0.0,0.0,0.0,0.0,0.0,-6.5039,-6.75,-7.2734,-7.4922,-7.6328,-7.7148,-7.3359,-7.0898,-7.0703,-6.6094,0.0,0.0,0.0,0.0,0.0,0.0,0.0,0.0,0.0,0.0,0.0,0.0,0.0,0.0,0.0,0.0,0.0,0.0,0.0,0.0,0.0,0.0,0.0,0.0,0.0,0.0,0.0,0.0,0.0,0.0,0.0,0.0,0.0,0.0,0.0,0.0,0.0,0.0,0.0,0.0,0.0,0.0,0.0,0.0,0.0,0.0,0.0,0.0,0.0,0.0,0.0,0.0,0.0,0.0,0.0,0.0,0.0,0.0,0.0,0.0,0.0,0.0,0.0,0.0,0.0,0.0,0.0,0.0,0.0,0.0,0.0,0.0,0.0,0.0,0.0,0.0,0.0,0.0,0.0,0.0,0.0,0.0,0.0,0.0,0.0,0.0,0.0,0.0,0.0,0.0,0.0,0.0,0.0,0.0,0.0,0.0,0.0,0.0,0.0,0.0,0.0,0.0,-6.4726,-6.7578,-7.2734,-7.4844,-7.6015,-7.6367,-7.3398,-7.0586,-6.8476,0.0,0.0,0.0,0.0,0.0,0.0,0.0,0.0,0.0,0.0,0.0,0.0,0.0,0.0,0.0,0.0,0.0,0.0,0.0,0.0,0.0,0.0,0.0,0.0,0.0,0.0,0.0,0.0,0.0,0.0,0.0,0.0,0.0,0.0,0.0,0.0,0.0,0.0,0.0,0.0,0.0,0.0,0.0,0.0,0.0,0.0,0.0,0.0,0.0,0.0,0.0,0.0,0.0,0.0,0.0,0.0,0.0,0.0,0.0,0.0,0.0,0.0,0.0,0.0,0.0,0.0,0.0,0.0,0.0,0.0,0.0,0.0,0.0,0.0,0.0,0.0,0.0,0.0,0.0,0.0,0.0,0.0,0.0,0.0,0.0,0.0,0.0,0.0,0.0,0.0,0.0,0.0,0.0,0.0,0.0,0.0,0.0,0.0,0.0,0.0,0.0,0.0,-6.207,-6.4101,-6.707,-7.1953,-7.4023,-7.5195,-7.5469,-7.2109,-6.9101,-6.7031,0.0,0.0,0.0,0.0,0.0,0.0,0.0,0.0,0.0,0.0,0.0,0.0,0.0,0.0,0.0,0.0,0.0,0.0,0.0,0.0,0.0,0.0,0.0,0.0,0.0,0.0,0.0,0.0,0.0,0.0,0.0,0.0,0.0,0.0,0.0,0.0,0.0,0.0,0.0,0.0,0.0,0.0,0.0,0.0,0.0,0.0,0.0,0.0,0.0,0.0,0.0,0.0,0.0,0.0,0.0,0.0,0.0,0.0,0.0,0.0,0.0,0.0,0.0,0.0,0.0,0.0,0.0,0.0,0.0,0.0,0.0,0.0,0.0,0.0,0.0,0.0,0.0,0.0,0.0,0.0,0.0,0.0,0.0,0.0,0.0,0.0,0.0,0.0,0.0,0.0,0.0,0.0,0.0,0.0,0.0,0.0,0.0,0.0,0.0,0.0,0.0,0.0,-6.125,-6.3203,-6.5937,-7.0234,-7.2265,-7.3633,-7.4492,-6.9062,-6.5976,0.0,0.0,0.0,0.0,0.0,0.0,0.0,0.0,0.0,0.0,0.0,0.0,0.0,0.0,0.0,0.0,0.0,0.0,0.0,0.0,0.0,0.0,0.0,0.0,0.0,0.0,0.0,0.0,0.0,0.0,0.0,0.0,0.0,0.0,0.0,0.0,0.0,0.0,0.0,0.0,0.0,0.0,0.0,0.0,0.0,0.0,0.0,0.0,0.0,0.0,0.0,0.0,0.0,0.0,0.0,0.0,0.0,0.0,0.0,0.0,0.0,0.0,0.0,0.0,0.0,0.0,0.0,0.0,0.0,0.0,0.0,0.0,0.0,0.0,0.0,0.0,0.0,0.0,0.0,0.0,0.0,0.0,0.0,0.0,0.0,0.0,0.0,0.0,0.0,0.0,0.0,0.0,0.0,0.0,0.0,0.0,0.0,0.0,0.0,0.0,0.0,0.0,0.0,-6.125,-6.2695,-6.5273,-7.0195,-7.1719,-7.25,-7.2734,-6.8945,-6.5859,-6.4258,0.0,0.0,0.0,0.0,0.0,0.0,0.0,0.0,0.0,0.0,0.0,0.0,0.0,0.0,0.0,0.0,0.0,0.0,0.0,0.0,0.0,0.0,0.0,0.0,0.0,0.0,0.0,0.0,0.0,0.0,0.0,0.0,0.0,0.0,0.0,0.0,0.0,0.0,0.0,0.0,0.0,0.0,0.0,0.0,0.0,0.0,0.0,0.0,0.0,0.0,0.0,0.0,0.0,0.0,0.0,0.0,0.0,0.0,0.0,0.0,0.0,0.0,0.0,0.0,0.0,0.0,0.0,0.0,0.0,0.0,0.0,0.0,0.0,0.0,0.0,0.0,0.0,0.0,0.0,0.0,0.0,0.0,0.0,0.0,0.0,0.0,0.0,0.0,0.0,0.0,0.0,0.0,0.0,0.0,0.0,0.0,0.0,0.0,0.0,0.0,0.0,0.0,-6.0781,-6.2265,-6.4609,-6.875,-7.0273,-7.0976,-7.0976,-6.7812,-6.5039,-6.3125,0.0,0.0,0.0,0.0,0.0,0.0,0.0,0.0,0.0,0.0,0.0,0.0,0.0,0.0,0.0,0.0,0.0,0.0,0.0,0.0,0.0,0.0,0.0,0.0,0.0,0.0,0.0,0.0,0.0,0.0,0.0,0.0,0.0,0.0,0.0,0.0,0.0,0.0,0.0,0.0,0.0,0.0,0.0,0.0,0.0,0.0,0.0,0.0,0.0,0.0,0.0,0.0,0.0,0.0,0.0,0.0,0.0,0.0,0.0,0.0,0.0,0.0,0.0,0.0,0.0,0.0,0.0,0.0,0.0,0.0,0.0,0.0,0.0,0.0,0.0,0.0,0.0,0.0,0.0,0.0,0.0,0.0,0.0,0.0,0.0,0.0,0.0,0.0,0.0,0.0,0.0,0.0,0.0,0.0,0.0,0.0,0.0,0.0,0.0,0.0,0.0,0.0,-6.0195,-6.1836,-6.3828,-6.6601,-6.832,-6.9219,-6.918,-6.6172,-6.3867,-6.2812,0.0,0.0,0.0,0.0,0.0,0.0,0.0,0.0,0.0,0.0,0.0,0.0,0.0,0.0,0.0,0.0,0.0,0.0,0.0,0.0,0.0,0.0,0.0,0.0,0.0,0.0,0.0,0.0,0.0,0.0,0.0,0.0,0.0,0.0,0.0,0.0,0.0,0.0,0.0,0.0,0.0,0.0,0.0,0.0,0.0,0.0,0.0,0.0,0.0,0.0,0.0,0.0,0.0,0.0,0.0,0.0,0.0,0.0,0.0,0.0,-6.7009,-6.7263,0.0,0.0,0.0,0.0,0.0,0.0,0.0,0.0,0.0,0.0,0.0,0.0,0.0,0.0,0.0,0.0,0.0,0.0,0.0,0.0,0.0,0.0,0.0,0.0,0.0,0.0,0.0,0.0,0.0,0.0,0.0,0.0,0.0,0.0,0.0,0.0,0.0,0.0,0.0,0.0,-6.1015,-6.1133,-6.2461,-6.6484,-6.7226,-6.7461,-6.7422,-6.5508,-6.3359,-6.1094,-5.9023,0.0,0.0,0.0,0.0,0.0,0.0,0.0,0.0,0.0,0.0,0.0,0.0,0.0,0.0,0.0,0.0,0.0,0.0,0.0,0.0,0.0,0.0,0.0,0.0,0.0,0.0,0.0,0.0,0.0,0.0,0.0,0.0,0.0,0.0,0.0,0.0,0.0,0.0,0.0,0.0,0.0,0.0,0.0,0.0,0.0,0.0,0.0,0.0,0.0,0.0,0.0,0.0,0.0,0.0,0.0,0.0,0.0,0.0,0.0,-6.8812,-6.7607,0.0,0.0,0.0,0.0,0.0,0.0,0.0,0.0,0.0,0.0,0.0,0.0,0.0,0.0,0.0,0.0,0.0,0.0,0.0,0.0,0.0,0.0,0.0,0.0,0.0,0.0,0.0,0.0,0.0,0.0,0.0,0.0,0.0,0.0,0.0,0.0,0.0,0.0,0.0,0.0,-6.0781,-6.1406,-6.2539,-6.4765,-6.5781,-6.6094,-6.5703,-6.4453,-6.2734,-6.0547,-5.9219,0.0,0.0,0.0,0.0,0.0,0.0,0.0,0.0,0.0,0.0,0.0,0.0,0.0,0.0,0.0,0.0,0.0,0.0,0.0,0.0,0.0,0.0,0.0,0.0,0.0,0.0,0.0,0.0,0.0,0.0,0.0,0.0,0.0,0.0,0.0,0.0,0.0,0.0,0.0,0.0,0.0,0.0,0.0,0.0,0.0,0.0,0.0,0.0,0.0,0.0,0.0,0.0,0.0,-6.9414,-7.1367,-7.332,-7.4219,-7.4297,-7.3633,-7.168,-6.9174,-6.6675,-6.9399,0.0,0.0,0.0,0.0,0.0,0.0,0.0,0.0,0.0,0.0,0.0,0.0,0.0,0.0,0.0,0.0,0.0,0.0,0.0,0.0,0.0,0.0,-6.5078,-6.4765,-6.3711,-6.2695,-6.2383,0.0,0.0,0.0,0.0,0.0,0.0,0.0,0.0,0.0,0.0,0.0,-6.0508,-6.1758,-6.2656,-6.2969,-6.4297,-6.4844,-6.414,-6.3281,-6.2031,-6.0312,-5.9414,-5.8242,0.0,0.0,0.0,0.0,0.0,0.0,0.0,0.0,0.0,0.0,0.0,0.0,0.0,0.0,0.0,0.0,0.0,0.0,0.0,0.0,0.0,0.0,0.0,0.0,0.0,0.0,0.0,0.0,0.0,0.0,0.0,0.0,-6.2201,-6.1405,0.0,0.0,0.0,0.0,0.0,0.0,0.0,0.0,0.0,0.0,0.0,0.0,0.0,-6.4414,-6.6015,-6.9336,-7.0703,-7.0234,-7.2734,-7.3711,-7.332,-7.4219,-7.4961,-7.5586,-7.6015,0.0,-7.1092,-7.0668,0.0,0.0,0.0,0.0,0.0,0.0,0.0,0.0,0.0,0.0,0.0,0.0,0.0,0.0,0.0,0.0,0.0,0.0,0.0,0.0,0.0,0.0,-6.2969,-6.1445,-6.1484,-6.1484,-6.0039,-6.0234,-6.0312,-5.8867,-5.7265,-5.6562,0.0,0.0,0.0,0.0,0.0,0.0,-6.1328,-6.1055,-6.1328,-6.2851,-6.3203,-6.3281,-6.3164,-6.2383,-6.1133,-5.9453,-5.8555,-5.7617,-5.664,-5.5742,0.0,0.0,0.0,0.0,0.0,0.0,0.0,0.0,0.0,0.0,0.0,0.0,0.0,0.0,0.0,0.0,0.0,0.0,0.0,0.0,0.0,0.0,0.0,0.0,0.0,0.0,0.0,0.0,0.0,-6.4243,-6.42,-6.1254,-6.3542,-6.4628,0.0,0.0,0.0,0.0,0.0,0.0,0.0,0.0,0.0,-6.4481,-6.6248,-6.7773,-6.9023,-7.1992,-7.375,-7.4375,-7.6484,-7.7773,-7.8359,-7.875,-7.914,-7.9531,-7.9883,-7.8633,-7.6211,-7.4838,-7.3114,-7.1394,0.0,0.0,0.0,0.0,-7.6015,-7.7812,-7.6945,-7.7526,-7.8381,-7.6753,0.0,0.0,0.0,0.0,0.0,0.0,0.0,-6.7109,-6.5586,-6.5547,-6.5351,-6.3125,-6.3242,-6.3555,-6.2344,-6.1172,-5.9883,-5.8242,-5.6875,-5.6289,-5.7031,-5.7656,0.0,0.0,0.0,-6.0859,-6.1601,-6.1797,-6.1953,-6.2226,-6.2695,-6.2617,-6.1601,-6.1172,-6.0234,-5.8594,-5.8125,-5.7305,-5.5937,-5.5508,-5.5234,0.0,0.0,0.0,0.0,0.0,0.0,0.0,0.0,0.0,0.0,0.0,0.0,0.0,0.0,0.0,0.0,0.0,0.0,0.0,0.0,0.0,0.0,0.0,0.0,0.0,0.0,0.0,0.0,-6.5144,-6.5305,-6.1127,-6.3538,-6.4628,0.0,0.0,0.0,0.0,0.0,0.0,-6.3204,-6.4852,-6.6626,-6.8476,-7.0195,-7.1601,-7.2695,-7.5039,-7.6875,-7.8203,-7.9648,-8.1054,-8.2304,-8.2304,-8.2304,-8.2304,-8.2304,-8.1562,-8.0234,-7.832,-7.5742,-7.3047,-7.3711,-7.4101,-7.4375,-7.5039,-7.6758,-7.875,-7.832,-7.914,-7.9922,-7.7383,-7.539,-7.3437,-7.0664,0.0,0.0,0.0,0.0,-6.7812,-6.7617,-6.7851,-6.7773,-6.6055,-6.5781,-6.5703,-6.4805,-6.2734,-6.0508,-5.8594,-5.7187,-5.6406,-5.6875,-5.8008,0.0,-5.9453,-6.0742,-6.1719,-6.1719,-6.2265,-6.2422,-6.1758,-6.207,-6.1797,-6.0508,-6.0,-5.9219,-5.7969,-5.7695,-5.6875,-5.5351,-5.5078,-5.4648,-5.4023,0.0,0.0,0.0,0.0,0.0,0.0,0.0,0.0,0.0,0.0,0.0,0.0,0.0,0.0,0.0,0.0,0.0,0.0,0.0,0.0,0.0,0.0,0.0,0.0,0.0,0.0,0.0,0.0,0.0,-5.9991,-6.2601,0.0,0.0,0.0,0.0,-6.476,-6.6387,-6.7525,-6.785,-6.9453,-7.1172,-7.293,-7.4687,-7.6406,-7.8086,-7.9805,-8.0703,-8.082,-8.1719,-8.2226,-8.2304,-8.2304,-8.2304,-8.2304,-8.2304,-8.2265,-8.1992,-7.9453,-7.7344,-7.5703,-7.5742,-7.6289,-7.6992,-7.7031,-7.8164,-7.9414,-7.7812,-7.7851,-7.8594,-7.8437,-7.7187,-7.5117,-7.168,-7.1133,0.0,0.0,-6.9961,-7.0312,-6.9492,-6.875,-6.8398,-6.9062,-6.8008,-6.6601,-6.5703,-6.414,-6.2148,-5.9609,-5.7109,-5.5898,-5.7539,0.0,-5.8515,-6.0117,-6.1133,-6.1719,-6.1719,-6.1758,-6.1758,-6.1719,-6.1015,-6.0508,-6.039,-5.8945,-5.8008,-5.789,-5.7109,-5.625,-5.5351,-5.4492,-5.4023,-5.3984,-5.3203,0.0,0.0,0.0,0.0,0.0,0.0,0.0,0.0,0.0,0.0,0.0,0.0,0.0,0.0,0.0,0.0,0.0,0.0,0.0,0.0,0.0,0.0,0.0,0.0,0.0,0.0,0.0,0.0,-6.3959,-6.7627,0.0,-6.6436,-6.705,-6.7396,-6.6809,-6.8486,-7.0069,-7.1406,-7.3125,-7.5078,-7.7344,-7.8555,-7.9765,-8.0937,-8.1523,-8.1836,-8.1836,-8.2148,-8.2304,-8.2304,-8.2304,-8.2304,-8.2304,-8.2304,-8.2304,-8.2226,-8.1328,-7.9922,-7.8242,-7.7148,-7.6914,-7.7187,-7.7187,-7.8242,-7.9687,-7.9648,-8.0234,-8.0508,-7.7734,-7.5273,-7.2851,-6.9961,-6.9297,-6.9648,-7.0156,-7.0469,-7.0742,-7.1015,-7.043,-6.9609,-6.8867,-6.7773,-6.664,-6.5781,-6.4687,-6.3398,-6.1914,-5.9101,-5.7344,-5.8515,-5.875,-5.9101,-6.0234,-6.1133,-6.1719,-6.1719,-6.1719,-6.1719,-6.1719,-6.0937,-6.0195,-5.9687,-5.8555,-5.7656,-5.7109,-5.625,-5.5351,-5.4492,-5.3633,-5.2891,-5.2344,-5.2578,-5.3555,0.0,0.0,0.0,0.0,0.0,0.0,0.0,0.0,0.0,0.0,0.0,0.0,0.0,0.0,0.0,0.0,0.0,0.0,0.0,0.0,0.0,0.0,0.0,0.0,0.0,0.0,-6.8817,-6.8226,-7.1326,-7.2514,-6.9937,-7.0061,-7.0186,-6.9844,-7.1526,-7.3426,-7.5351,-7.6836,-7.8515,-8.0508,-8.1133,-8.1719,-8.2304,-8.2304,-8.2304,-8.2304,-8.2304,-8.2304,-8.2304,-8.2304,-8.2304,-8.2304,-8.2304,-8.2304,-8.2304,-8.2304,-8.1601,-8.0469,-7.9336,-7.8906,-7.8906,-7.8906,-7.9609,-8.0664,-8.125,-8.1601,-8.1289,-7.789,-7.539,-7.332,-7.1055,-7.0156,-7.0273,-7.1992,-7.2226,-7.2265,-7.3437,-7.2461,-7.0859,-6.9765,-6.8164,-6.6758,-6.6172,-6.5117,-6.414,-6.3555,-6.0898,-5.9023,-5.9883,-5.9805,-5.9883,-6.0703,-6.1328,-6.1719,-6.1719,-6.1719,-6.1601,-6.1289,-6.0508,-5.9648,-5.8828,-5.7969,-5.7109,-5.6211,-5.5625,-5.4648,-5.3164,-5.2851,-5.2148,-5.1016,-5.2422,-5.3711,-5.4844,0.0,0.0,0.0,0.0,0.0,0.0,0.0,0.0,0.0,0.0,0.0,0.0,0.0,0.0,0.0,0.0,0.0,0.0,0.0,0.0,0.0,0.0,0.0,-6.7223,-7.0218,-7.2283,-7.236,-7.3168,-7.3399,-7.2552,-7.1734,-7.2063,-7.4039,-7.5793,-7.7643,-7.9687,-8.0586,-8.1445,-8.2265,-8.2304,-8.2304,-8.2304,-8.2304,-8.2304,-8.2304,-8.2304,-8.2304,-8.2304,-8.2304,-8.2304,-8.2304,-8.2304,-8.2304,-8.2304,-8.2304,-8.2304,-8.2304,-8.2304,-8.2304,-8.2304,-8.2304,-8.2304,-8.2304,-8.2304,-8.1758,-8.0781,-7.9101,-7.8008,-7.6953,-7.5234,-7.4101,-7.3789,-7.5469,-7.5312,-7.5078,-7.668,-7.457,-7.1992,-7.1914,-6.9336,-6.6875,-6.6875,-6.5547,-6.4336,-6.4258,-6.2226,-6.0781,-6.1562,-6.1015,-6.0742,-6.1562,-6.1719,0.0,-6.1719,-6.168,-6.1367,-6.0547,-5.9687,-5.8867,-5.8008,-5.7109,-5.6211,-5.5312,-5.5195,-5.4023,-5.1484,-5.2148,-5.1836,-5.0273,-5.2734,-5.4023,-5.4023,0.0,0.0,0.0,0.0,0.0,0.0,0.0,0.0,0.0,0.0,0.0,0.0,0.0,0.0,0.0,0.0,0.0,0.0,0.0,0.0,0.0,0.0,-6.8429,-6.8176,-7.1029,-7.3822,-7.5668,-7.7746,-7.8938,-7.8669,-7.87,-7.8725,-7.8652,-7.9955,-8.0967,-8.1562,-8.1797,-8.2031,-8.2304,-8.2304,-8.2304,-8.2304,-8.2304,-8.2304,-8.2304,-8.2304,-8.2304,-8.2304,-8.2304,-8.2304,-8.2304,-8.2304,-8.2304,-8.2304,-8.2304,-8.2304,-8.2304,-8.2304,-8.2304,-8.2304,-8.2304,-8.2304,-8.2304,-8.2304,-8.2148,-8.1758,-8.0664,-7.9726,-7.8828,-7.7734,-7.6836,-7.6211,-7.6719,-7.668,-7.6289,-7.5508,-7.3672,-7.168,-7.043,-6.8476,-6.6719,-6.6094,-6.5586,-6.4883,-6.3594,-6.3281,-6.289,-6.1875,-6.1484,-6.1406,-6.164,-6.1719,-6.1719,-6.1719,-6.1133,-6.0898,-6.1289,-6.0078,-5.9101,-5.8867,-5.7461,-5.5976,-5.4453,-5.3164,-5.1875,-5.0586,-5.0156,-5.0312,-5.1055,-5.3633,-5.4922,0.0,0.0,0.0,0.0,0.0,0.0,0.0,0.0,0.0,0.0,0.0,0.0,0.0,0.0,0.0,0.0,0.0,0.0,0.0,0.0,0.0,0.0,-7.0165,-7.207,-7.258,-7.4322,-7.6553,-7.9092,-8.1016,-8.2016,-8.1631,-8.1886,-8.1774,-8.098,-8.1719,-8.2219,-8.2304,-8.2304,-8.2304,-8.2304,-8.2304,-8.2304,-8.2304,-8.2304,-8.2304,-8.2304,-8.2304,-8.2304,-8.2304,-8.2304,-8.2304,-8.2304,-8.2304,-8.2304,-8.2304,-8.2304,-8.2304,-8.2304,0.0,0.0,0.0,0.0,-8.2304,-8.2304,-8.2304,-8.2304,-8.2109,-8.0859,-8.0117,-7.9492,-7.832,-7.7344,-7.664,-7.664,-7.664,-7.6328,-7.4961,-7.332,-7.164,-7.0273,-6.8398,-6.6758,-6.625,-6.5859,-6.5312,-6.4297,-6.4219,0.0,-6.2461,-6.2226,-6.2109,-6.1758,-6.1719,-6.1719,-6.1719,-6.125,-6.0859,-6.0664,-5.9765,-5.8906,-5.8164,-5.6836,0.0,0.0,0.0,-5.1562,-5.0742,-5.0234,0.0,0.0,0.0,-5.5469,-5.5859,-5.7734,0.0,0.0,-5.8945,-5.8789,0.0,0.0,0.0,0.0,0.0,0.0,0.0,0.0,0.0,0.0,0.0,0.0,0.0,0.0,0.0,0.0,-7.2495,-7.6015,-7.8554,-7.9092,-8.0054,-8.2324,-8.3093,-8.317,-8.2516,-8.2483,-8.2259,-8.175,-8.1899,-8.2118,-8.2304,0.0,0.0,0.0,0.0,-8.2344,-8.2461,-8.2344,-8.2344,-8.2461,-8.2344,-8.2304,-8.2304,-8.2304,-8.2304,-8.2304,-8.2304,-8.2304,-8.2304,-8.2304,-8.2304,-8.2304,-8.2304,-8.2304,-8.2304,-8.2304,-8.2304,-8.2304,-8.2304,0.0,0.0,-8.0351,-7.9726,-7.9297,-7.7812,-7.6758,-7.6055,-7.6055,-7.5976,-7.5703,-7.4844,-7.332,-7.1797,-7.0898,-6.8828,-6.7031,-6.7031,-6.6367,-6.5703,-6.5625,-6.5039,-6.4297,-6.328,-6.3046,-6.2695,-6.1836,-6.1679,-6.164,-6.1562,-6.1484,-6.0859,-5.9375,-5.9101,0.0,-5.6875,-5.5937,-5.5,-5.3906,-5.2851,-5.1914,-5.1133,-5.1289,-5.1758,-5.2539,-5.4453,-5.582,-5.6601,-5.7656,-5.8945,-6.039,-6.0312,-5.9883,0.0,0.0,0.0,0.0,0.0,0.0,0.0,0.0,0.0,0.0,0.0,0.0,0.0,0.0,0.0,-7.1941,-7.5481,-7.8631,-8.1208,-8.2785,-8.3862,-8.4324,-8.3285,-8.2747,-8.3285,-8.246,-8.1834,-8.1719,-8.2049,-8.2264,-8.2304,-8.2304,-8.2304,-8.2304,-8.2304,-8.2656,-8.3359,-8.2656,-8.2656,-8.3359,-8.2656,0.0,-8.2304,-8.2304,-8.2304,-8.2304,-8.2304,-8.2304,-8.2304,-8.2304,-8.2304,-8.2304,-8.2304,-8.2304,-8.2304,-8.2304,-8.2304,-8.2304,-8.2304,-8.1836,-8.1211,-8.0859,-7.9844,-7.8672,-7.8359,-7.7656,0.0,-7.6953,-7.6445,-7.5703,-7.4844,-7.332,-7.1797,-7.0898,-6.9297,-6.7969,-6.7969,-6.7265,-6.6445,-6.5742,-6.6015,-6.5857,-6.4184,-6.3318,-6.2594,-6.1796,-6.1629,-6.1305,-6.0742,-6.0078,-5.957,-5.9219,-5.8555,-5.8008,-5.7695,-5.6836,-5.539,-5.3086,-5.0859,-4.957,-4.9375,-5.0664,-5.1484,-5.1641,-5.4726,-5.6445,-5.6601,-5.8828,-6.0078,-6.039,-5.9726,-5.9336,0.0,0.0,0.0,0.0,0.0,0.0,0.0,0.0,0.0,0.0,0.0,-6.496,0.0,0.0,-7.2399,-7.4976,-7.7861,-8.04,-8.2054,-8.3785,-8.4747,-8.4286,-8.3957,-8.3538,-8.3009,-8.267,-8.2286,-8.1727,-8.2065,-8.2304,-8.2304,-8.2304,-8.2304,-8.2304,-8.2734,-8.2969,-8.2969,-8.2969,-8.2969,-8.2929,-8.25,-8.2304,-8.2304,-8.2304,-8.2304,-8.2304,-8.2304,-8.2304,-8.2304,-8.2304,-8.2304,-8.2304,-8.2304,-8.2304,-8.2304,-8.2304,-8.2304,-8.2226,-8.1797,-8.1367,-8.0859,-8.0039,-7.918,-7.8437,-7.7969,-7.7539,-7.7109,-7.668,-7.6562,-7.625,-7.4922,-7.3633,-7.2422,-7.1562,-6.9726,-6.8203,-6.8203,-6.7539,-6.6758,-6.6328,-6.6601,-6.6442,-6.495,-6.4275,-6.3518,-6.2275,-6.2125,-6.1866,-6.1037,-6.027,-5.9648,-5.9258,-5.8437,-5.7734,-5.7305,-5.6445,-5.5039,-5.2851,-5.1523,-5.0781,-5.0781,-5.2031,-5.3125,-5.3984,-5.6133,-5.7656,-5.8515,-5.9765,-6.0625,-6.1015,-5.9765,-5.9219,0.0,0.0,0.0,0.0,0.0,0.0,0.0,0.0,-6.3231,-6.4329,-6.6711,-6.8975,-7.0014,-7.336,-7.6322,-7.7361,-7.9823,-8.1823,-8.2439,-8.4055,-8.4747,-8.3708,-8.4368,-8.4234,-8.2501,-8.2725,-8.2663,-8.1824,-8.2074,-8.2304,-8.2304,-8.2304,-8.2304,-8.2304,-8.2969,-8.3164,-8.2812,-8.332,-8.332,-8.2812,-8.2617,-8.2461,-8.2304,-8.2304,-8.2304,-8.2304,-8.2304,-8.2304,-8.2304,-8.2304,-8.2304,-8.2304,-8.2304,-8.2304,-8.2304,-8.2304,-8.2304,-8.2187,-8.1289,-8.0898,-8.0508,-7.8984,-7.8398,-7.8125,-7.7422,-7.7187,-7.7031,-7.6367,-7.6406,-7.6367,-7.4961,-7.3828,-7.2812,-7.1953,-7.0078,-6.8437,-6.8437,-6.7773,-6.7148,-6.7148,-6.7109,-6.6747,-6.5705,-6.5395,-6.4675,-6.2795,-6.262,-6.2375,-6.1384,-6.0732,-6.0039,-5.9062,-5.832,-5.7539,-5.668,-5.5781,-5.4687,-5.3281,-5.3047,-5.2969,-5.2969,-5.3789,-5.5,-5.6562,-5.7617,-5.8906,-6.039,-6.0586,-6.0937,-6.1406,-5.9883,-5.9219,-5.953,-5.8672,-5.8398,-5.9883,-5.9675,-6.0045,0.0,0.0,-6.5161,-6.7395,-6.8757,-7.0052,-7.1629,-7.4168,-7.6515,-7.8092,-8.1131,-8.3362,-8.3439,-8.4901,-8.5363,-8.3785,-8.3718,-8.3447,-8.2638,-8.2135,-8.189,-8.1967,-8.2173,-8.2304,-8.2304,-8.2304,-8.2304,-8.2304,-8.2383,-8.3125,-8.4609,-8.3945,-8.3945,-8.4609,-8.3828,-8.3047,-8.2304,-8.2304,-8.2304,-8.2304,-8.2304,-8.2304,-8.2304,-8.2304,-8.2304,-8.2304,-8.2304,-8.2304,-8.2304,-8.2304,-8.2304,-8.2187,-8.1289,-8.0508,-7.9687,-7.8789,-7.7969,-7.7344,-7.7226,-7.7187,-7.7187,-7.707,-7.6015,-7.4844,-7.4648,-7.3398,-7.1914,-7.1055,-7.0078,-6.9336,-6.9297,-6.8633,-6.8047,-6.8047,-6.7915,-6.7465,-6.6441,-6.6105,-6.5209,-6.2854,-6.254,-6.2011,-6.0516,-6.038,-5.9805,-5.8203,-5.7969,-5.7539,-5.668,-5.5781,-5.5234,-5.5039,-5.4297,-5.3867,-5.3867,-5.4687,-5.5625,-5.6562,-5.8203,-5.9492,-6.039,-6.1172,-6.1211,-6.0508,-5.9609,-5.9219,-5.7422,-5.6987,0.0,0.0,-6.0655,-6.2713,-6.6298,-6.7842,-6.9054,-7.0991,-7.2822,-7.4476,-7.563,-7.7553,-7.9361,0.0,-8.2324,-8.3593,-8.3593,-8.4632,-8.4593,-8.2401,-8.2554,-8.2607,-8.1952,-8.1898,-8.1899,-8.1988,-8.2176,-8.2304,-8.2304,-8.2304,-8.2539,-8.3047,-8.3554,-8.3906,-8.414,-8.4297,-8.4023,-8.3398,-8.3008,-8.2656,-8.2304,-8.2304,-8.2304,-8.2304,-8.2304,-8.2304,-8.2304,-8.2304,-8.2304,-8.2304,-8.2304,-8.2304,-8.2304,-8.2304,-8.2304,-8.2187,-8.1289,-8.0429,-7.957,-7.875,-7.789,-7.7187,-7.7187,-7.7187,-7.7187,-7.7187,-7.668,-7.6094,-7.6094,-7.4805,-7.3437,-7.3047,-7.1562,-7.0195,-7.0156,-6.9446,-6.8765,-6.8765,-6.8624,-6.8143,-6.7145,-6.691,-6.6129,-6.4029,-6.3472,-6.2852,-6.1671,-6.0872,-5.9765,-5.8086,-5.789,-5.7539,-5.668,-5.6289,-5.5859,-5.5312,-5.4961,-5.4765,-5.4765,-5.5586,-5.6719,-5.8086,-5.9297,-6.0078,-6.039,-6.0781,-6.0508,-5.9687,-5.8828,-5.8437,-5.6523,0.0,0.0,-6.0464,-6.2914,-6.5746,-6.9497,-7.1297,-7.2737,-7.4826,-7.6707,-7.8246,-7.9054,-8.0246,-8.1362,-8.217,-8.3016,-8.3593,-8.3593,-8.4132,-8.3625,-8.1113,-8.1077,-8.1133,-8.0788,-8.1452,-8.1958,-8.1988,-8.2176,-8.2304,-8.2304,-8.2304,-8.2578,-8.3203,-8.4101,-8.4336,-8.3945,-8.4804,-8.4492,-8.3008,-8.3008,-8.2773,-8.2304,-8.2304,-8.2304,-8.2304,-8.2304,-8.2304,-8.2304,-8.2304,-8.2304,-8.2304,-8.2304,-8.2304,-8.2304,-8.2304,-8.2148,-8.1836,-8.0937,-8.0078,-7.9219,-7.8398,-7.789,-7.7578,-7.7578,-7.7578,-7.7578,-7.7578,-7.7226,-7.6836,-7.6836,-7.5742,-7.4492,-7.3984,-7.2422,-7.0976,-7.07,-7.0087,-6.9533,-6.9502,-6.9149,-6.8544,-6.7571,-6.7173,-6.6537,-6.5207,-6.4321,-6.3567,-6.295,-6.1635,-6.0195,-5.875,-5.8164,-5.7656,-5.6992,-5.6758,-5.6328,-5.5703,-5.5664,-5.5664,-5.5664,-5.6484,-5.7656,-5.918,-6.0,-6.039,-6.039,-6.039,-5.9844,-5.8828,-5.8203,-5.7773,0.0,0.0,-6.2056,-6.5527,-6.6786,-6.8545,-7.3651,-7.4694,-7.5553,-7.8938,-7.9669,-7.9977,-8.0862,-8.1054,-8.1362,-8.217,-8.3016,-8.3593,-8.3593,-8.3632,-8.277,-8.042,-7.9233,-7.876,0.0,-8.0707,-8.1805,-8.1984,-8.2176,-8.2304,-8.2304,-8.2304,-8.2304,-8.2344,-8.3164,-8.4023,-8.4844,-8.5742,-8.5703,-8.4804,-8.4804,-8.3945,-8.2304,-8.2304,-8.2304,-8.2304,-8.2304,-8.2304,-8.2304,-8.2304,-8.2304,-8.2304,-8.2304,-8.2304,-8.2304,-8.2304,-8.1758,-8.0898,-8.0039,-7.9219,-7.8398,-7.7539,-7.7773,-7.8476,-7.8476,-7.8476,-7.8476,-7.8476,-7.7226,-7.5937,-7.5937,-7.5273,-7.418,-7.2461,-7.2031,-7.1677,-7.0735,-7.048,-7.0411,-7.0188,-6.939,-6.8414,-6.7542,-6.6587,-6.5982,-6.6022,-6.4769,-6.3806,-6.3774,-6.2535,-6.1328,-6.043,-5.8867,-5.789,-5.7851,-5.7109,-5.6601,-5.6562,-5.6562,-5.6562,-5.6562,-5.7383,-5.8281,-5.918,-6.0,-6.039,-6.039,-6.039,-5.9531,-5.793,-5.789,-5.7461,0.0,0.0,-6.5453,-6.876,-7.0894,-7.3112,-7.6556,-7.7704,-7.84,-7.9554,-7.8015,-7.6515,-7.6784,-7.6438,-7.6707,-7.8669,-8.1253,-8.3179,-8.3707,-8.3897,-8.2852,-7.9785,-7.9612,0.0,0.0,0.0,0.0,-8.1906,-8.2176,-8.2304,-8.2304,-8.2851,-8.3437,-8.4023,-8.4883,-8.5195,-8.4883,-8.5195,-8.4609,-8.3164,-8.3164,-8.2851,-8.2304,-8.2304,-8.2304,-8.2304,-8.2304,-8.2304,-8.2304,-8.2304,-8.2304,-8.2304,-8.2304,-8.2304,-8.2304,-8.2304,-8.1758,-8.1054,-8.1328,-8.0859,-8.0117,-7.9805,-7.918,-7.8515,-7.8515,-7.8086,-7.7656,-7.7656,-7.7226,-7.6758,-7.6758,-7.6133,-7.5312,-7.4726,-7.3711,-7.2732,-7.2255,-7.1633,-7.1089,-7.0887,-7.0054,-6.9114,-6.8215,-6.7409,-6.6583,-6.5678,-6.4661,-6.362,-6.2544,-6.1987,-6.1367,-6.0508,-5.9414,-5.8515,-5.7969,-5.7109,-5.6601,-5.6601,-5.6601,-5.6601,-5.6601,-5.8008,-5.8906,-5.918,-6.0547,-6.0703,-5.9609,-5.9609,-5.8711,-5.7031,-5.7031,-5.6875,0.0,-6.6717,-6.9679,-7.264,-7.4989,-7.7015,-7.8977,-7.9631,-7.9554,-7.8631,-7.6207,-7.4014,-7.3091,-7.2245,-7.2629,-7.5476,-7.7923,-8.0218,-8.2247,-8.2456,-8.1579,-7.9462,-7.9389,-7.8985,0.0,0.0,0.0,-8.1399,-8.202,-8.2304,-8.2304,-8.2812,-8.3515,-8.4414,-8.4961,-8.5312,-8.5351,-8.5351,-8.4648,-8.3203,-8.2617,-8.2304,-8.2304,-8.2304,-8.2304,-8.2304,-8.2304,-8.2304,-8.2304,-8.2304,-8.2304,-8.2304,-8.2304,-8.2304,-8.2304,-8.2304,-8.1953,-8.1484,-8.1758,-8.125,-8.0508,-8.0195,-7.957,-7.8867,-7.8594,-7.8125,-7.7656,-7.7656,-7.7422,-7.7187,-7.7187,-7.6797,-7.6289,-7.5976,-7.4763,-7.3535,-7.3025,-7.2102,-7.1344,-7.1126,-7.0092,-6.9091,-6.855,-6.7726,-6.6692,-6.5464,-6.4645,-6.3696,-6.2343,-6.2148,-6.1836,-6.0976,-6.0117,-5.9297,-5.8437,-5.7578,-5.6914,-5.6601,-5.6875,-5.707,-5.707,-5.8711,-5.9648,-5.9648,-6.0976,-6.1015,-5.9648,-5.9648,-5.8906,-5.7539,-5.7539,-5.7344,-6.7309,-7.1055,-7.4552,-7.7055,-7.8783,-8.0092,-8.0862,-8.0285,-7.89,-7.6399,-7.4322,-7.2283,0.0,0.0,-6.9346,-7.286,-7.3727,-7.5404,-7.9609,-7.9678,-7.9338,0.0,0.0,0.0,0.0,0.0,0.0,-8.0591,0.0,-8.2265,-8.2304,-8.2383,-8.2812,-8.3633,-8.375,-8.457,-8.6172,-8.6094,-8.5664,-8.4804,-8.3125,-8.2304,-8.2304,-8.2304,-8.2304,-8.2304,-8.2304,-8.2304,-8.2304,-8.2304,-8.2304,-8.2304,-8.2304,-8.2304,-8.2304,-8.2304,-8.2304,-8.2187,-8.1367,-8.0547,-7.9726,-7.8945,-7.918,-7.9609,-7.8828,-7.8515,-7.8476,-7.8437,-7.7851,-7.7265,-7.7226,-7.7226,-7.7031,-7.6172,-7.5095,-7.4,-7.3075,-7.1974,-7.1137,-7.0927,-6.9565,-6.8448,-6.848,-6.743,-6.6304,-6.5487,-6.4793,-6.4023,-6.3125,-6.2969,-6.2617,-6.1797,-6.0898,-6.0039,-5.9258,-5.8359,-5.75,-5.6719,-5.7422,-5.793,-5.7969,-5.9531,-6.039,-6.039,-6.125,-6.1289,-6.039,-6.039,-6.0,-5.9219,-5.914,-5.8672,-7.1917,-7.5281,-7.7933,-7.9745,-8.0461,-8.0669,-8.0246,-7.8477,-7.6438,-7.4553,-6.9744,-6.609,0.0,0.0,0.0,-7.1783,-7.5374,0.0,-8.0958,-8.1812,0.0,-7.9834,0.0,-7.983,-7.8822,-7.9683,0.0,0.0,-8.1171,-8.1601,-8.2265,-8.3515,-8.4336,-8.457,-8.582,-8.6406,-8.6211,-8.4922,-8.414,-8.3906,-8.2812,-8.2304,-8.2304,-8.2304,-8.2304,-8.2304,-8.2304,-8.2304,-8.2304,-8.2304,-8.2304,-8.2304,-8.2304,-8.2304,-8.2304,-8.2304,-8.2304,-8.2265,-8.2031,-8.1836,-8.1601,-8.1406,-8.1015,-8.0508,-7.9648,-7.8984,-7.8359,-7.7695,-7.7851,-7.8008,-7.7383,-7.7569,-7.7734,-7.6834,-7.5317,-7.3996,-7.3634,-7.2318,-7.1137,-7.0927,-6.9628,-6.8229,-6.7264,-6.6814,-6.6597,-6.6517,-6.578,-6.4726,-6.3203,-6.2422,-6.1953,-6.1719,-6.039,-5.9414,-5.9219,-5.7812,-5.7109,-5.7539,-5.7773,-5.8203,-5.8828,-5.9844,-6.039,-6.039,-6.125,-6.1289,-6.039,-6.039,-6.0,-5.918,-5.8515,-5.8125,-7.4945,-7.7652,-7.953,-8.0793,-8.0823,-8.0015,-7.8015,-7.5899,-7.3322,-6.9783,-6.5397,0.0,0.0,0.0,0.0,0.0,0.0,0.0,-8.0046,-8.1265,-8.1509,0.0,-8.1289,0.0,-8.0273,-8.0664,-8.1328,0.0,-8.1797,-8.1797,-8.2265,-8.3594,-8.4492,-8.4883,-8.5859,-8.6328,-8.6211,-8.5234,-8.4531,-8.414,-8.3672,-8.3047,-8.2304,-8.2695,-8.2656,-8.2304,-8.2304,-8.2304,-8.2304,-8.2304,-8.2304,-8.2304,-8.2304,-8.2304,-8.2304,-8.2304,-8.2304,-8.2304,-8.2304,-8.2304,-8.2226,-8.1836,-8.1406,-8.0859,-7.9961,-7.9375,-7.8867,-7.8008,-7.8125,-7.8281,-7.7422,-7.7405,-7.7508,-7.7036,-7.5372,-7.4002,-7.4284,-7.2595,-7.0819,-7.0037,-6.9255,-6.8287,-6.6861,-6.6683,-6.6785,-6.6875,-6.6172,-6.5117,-6.375,-6.2812,-6.2265,-6.2265,-6.1094,-6.0156,-5.9765,-5.8828,-5.832,-5.8476,-5.8789,-5.9219,-5.9726,-6.0547,-6.0976,-6.0976,-6.1445,-6.1445,-6.0976,-6.0976,-6.0742,-6.0273,-5.9414,-5.8828,-7.7097,-7.9117,-8.0477,-8.1093,-8.0439,-7.8746,-7.5322,-7.2899,-6.9783,-6.4282,0.0,-5.9975,-5.8981,-5.8721,-6.0707,-6.6995,0.0,-7.1809,-7.8582,-7.9704,-8.0468,-8.2109,-8.2304,-8.2304,-8.2304,-8.1601,-8.1797,-8.332,-8.2812,-8.2539,-8.2656,-8.3476,-8.4336,-8.5234,-8.5234,-8.5625,-8.6367,-8.625,-8.5742,-8.4883,-8.4765,-8.3945,-8.25,-8.3125,-8.3086,-8.2461,-8.2344,-8.2304,-8.2304,-8.2304,-8.2304,-8.2304,-8.2304,-8.2304,-8.2304,-8.2304,-8.2304,-8.2304,-8.2304,-8.2304,-8.2187,-8.1406,-8.1172,-8.1015,-8.0156,-7.9805,-7.9531,-7.8711,-7.8515,-7.8281,-7.7382,-7.7081,-7.7012,-7.6839,-7.5316,-7.4121,-7.4807,-7.293,-7.0683,-6.911,-6.8956,-6.8633,-6.7084,-6.6944,-6.7031,-6.6914,-6.625,-6.5508,-6.4726,-6.3672,-6.2969,-6.2851,-6.2031,-6.1211,-6.0469,-6.0312,-6.0,-5.9414,-6.0,-6.0469,-6.0586,-6.1289,-6.1719,-6.1719,-6.1719,-6.1719,-6.1719,-6.1719,-6.164,-6.1523,-6.0625,-5.9805,-7.9759,-8.1678,-8.2785,-8.2247,-8.04,-7.7823,-7.4476,-7.0244,0.0,0.0,0.0,-5.8226,-6.0041,-6.0392,0.0,-7.017,0.0,0.0,0.0,0.0,-8.0985,0.0,0.0,0.0,0.0,0.0,0.0,0.0,-8.3047,-8.3672,-8.4414,-8.5273,-8.6133,-8.7031,-8.7031,-8.7109,-8.7265,-8.6562,-8.5742,-8.4883,-8.4179,-8.3672,-8.3359,-8.2773,-8.2851,-8.332,-8.2617,0.0,-8.2304,-8.2304,-8.2304,-8.2304,-8.2304,-8.2304,-8.2304,-8.2304,-8.2304,-8.2304,-8.2304,-8.2304,-8.2265,-8.2109,-8.207,-8.1914,-8.1054,-8.0273,-7.9531,-7.8711,-7.8515,-7.8241,-7.7229,-7.7331,-7.7492,-7.6603,-7.5446,-7.4574,-7.4728,-7.3432,-7.1763,-7.0215,-7.0086,-6.9741,-6.8197,-6.7968,-6.7734,-6.6992,-6.6758,-6.6601,-6.6484,-6.4414,-6.2734,-6.1992,-6.1133,-6.0547,-6.039,-5.9805,-5.9648,-6.0156,-6.0312,-6.0703,-6.1445,-6.1601,-6.1719,-6.1719,-6.1719,-6.1719,-6.1719,-6.1719,-6.1328,-6.0625,-5.9805,-5.8945,-8.2516,-8.367,-8.4055,-8.317,-8.0054,-7.6092,-7.1822,0.0,0.0,0.0,0.0,-5.6872,-5.8597,0.0,0.0,0.0,0.0,0.0,0.0,0.0,0.0,0.0,0.0,0.0,0.0,0.0,0.0,-8.2929,-8.3789,-8.4258,-8.4219,-8.5469,-8.6601,-8.7461,-8.75,-8.75,-8.75,-8.7109,-8.6445,-8.5586,-8.5625,-8.4922,-8.3594,-8.3633,-8.3398,-8.289,-8.2461,-8.2304,-8.2304,-8.2304,-8.2304,-8.2304,-8.2304,-8.2304,-8.2304,-8.2304,-8.2304,-8.2304,-8.2304,-8.2304,-8.2304,-8.2304,-8.2304,-8.2226,-8.1797,-8.1054,-8.0195,-7.9375,-7.8745,-7.8137,-7.7167,-7.6962,-7.6934,-7.6405,-7.5813,-7.5019,-7.3819,-7.3319,-7.257,-7.0698,-7.0446,-7.0152,-6.9022,-6.8867,-6.8594,-6.7695,-6.7578,-6.7265,-6.6328,-6.5117,-6.4023,-6.3164,-6.1875,-6.1094,-6.1094,-6.0703,-6.0664,-6.1055,-6.1094,-6.125,-6.168,-6.1719,-6.1719,-6.1719,-6.1719,-6.1719,-6.1719,-6.125,-6.082,-6.0351,-5.9101,-5.8281,-8.4439,-8.5016,-8.4939,-8.4093,-7.9785,-7.4437,-6.9513,-6.482,0.0,0.0,-5.5857,-5.6277,-5.7262,0.0,0.0,0.0,0.0,0.0,0.0,0.0,0.0,0.0,0.0,0.0,0.0,0.0,0.0,-8.3281,-8.4297,-8.4844,-8.4687,-8.582,-8.6875,-8.7734,-8.7578,-8.75,-8.75,-8.75,-8.707,-8.6211,-8.6875,-8.6054,-8.3906,-8.4375,-8.3867,-8.2578,-8.2383,-8.2304,-8.2304,-8.2304,-8.2304,-8.2304,-8.2304,-8.2304,-8.2304,-8.2304,-8.2304,-8.2304,-8.2304,-8.2304,-8.2304,-8.2304,-8.2304,-8.2304,-8.2304,-8.1562,-8.0586,-7.9841,-7.8803,-7.7731,-7.6975,-7.6521,-7.6284,-7.6243,-7.6108,-7.5383,-7.3237,-7.3305,-7.3165,-7.1144,-7.0808,-7.0599,-6.9804,-6.9726,-6.9414,-6.8359,-6.8203,-6.7656,-6.6094,-6.5703,-6.5351,-6.4648,-6.3008,-6.1992,-6.1992,-6.1797,-6.1719,-6.1719,-6.1719,-6.1719,-6.1719,-6.1719,-6.1719,-6.1719,-6.1523,-6.1406,-6.1406,-6.0547,-6.0039,-5.9844,-5.8515,-5.7812,-8.4439,-8.544,-8.5786,-8.4978,-7.9746,-7.3707,-6.9398,0.0,0.0,0.0,-5.6329,-5.7137,-5.8044,-5.8941,0.0,0.0,0.0,0.0,0.0,0.0,0.0,0.0,0.0,0.0,0.0,0.0,0.0,-8.2422,-8.3945,-8.5859,-8.8125,-8.7695,-8.7734,-8.8554,-8.789,-8.75,-8.75,-8.75,-8.707,-8.6211,-8.6289,-8.5781,-8.4765,-8.4023,-8.3633,-8.3437,-8.2656,-8.2304,0.0,-8.2304,-8.2304,-8.2304,-8.2304,-8.2304,-8.2304,-8.2304,-8.2304,-8.2304,-8.2304,-8.2304,-8.2304,-8.2304,-8.2304,-8.2304,-8.2304,-8.1133,-7.9764,-7.9494,-7.8256,-7.6912,-7.6457,-7.6338,-7.6227,-7.6079,-7.6005,-7.5576,-7.3933,-7.3789,-7.349,-7.1901,-7.1741,-7.1601,-7.0742,-7.0586,-7.0039,-6.8437,-6.8203,-6.7851,-6.6914,-6.6094,-6.5586,-6.5508,-6.3906,-6.289,-6.289,-6.2148,-6.1719,-6.1719,-6.1719,-6.1719,-6.1719,-6.1719,-6.1719,-6.1719,-6.0937,-6.0508,-6.0508,-5.9726,-5.8906,-5.8125,-5.7969,-5.7461,-8.5517,-8.7017,-8.7325,-8.5978,-7.9746,-7.3017,-6.9331,0.0,0.0,-5.7017,-5.6936,-5.7409,-5.8269,-5.9505,-6.0789,0.0,0.0,0.0,0.0,0.0,0.0,0.0,0.0,0.0,0.0,0.0,-8.2734,-8.3789,-8.5,-8.6562,-8.8594,-8.7929,-8.7851,-8.8672,-8.7929,-8.75,-8.75,-8.75,-8.7344,-8.6992,-8.6445,-8.5742,-8.4883,-8.3984,-8.332,-8.2812,-8.2461,-8.2304,0.0,-8.2304,-8.2304,-8.2304,-8.2304,-8.2304,-8.2304,-8.2304,-8.2304,-8.2304,-8.2304,-8.2304,-8.2304,-8.2304,-8.2304,-8.2265,-8.217,-8.1261,-8.0152,-7.9422,-7.8285,-7.717,-7.6475,-7.6195,-7.6236,-7.6674,-7.6361,-7.5746,-7.4868,-7.4328,-7.3574,-7.216,-7.1951,-7.1875,-7.1523,-7.1484,-7.125,-7.0586,-6.9609,-6.8789,-6.8437,-6.7226,-6.6367,-6.6367,-6.4805,-6.3555,-6.3047,-6.3164,-6.3047,-6.2539,-6.2461,-6.2461,-6.2461,-6.1992,-6.1719,-6.1719,-6.0859,-6.039,-6.039,-5.9062,-5.8242,-5.789,-5.7344,-5.7226,-8.4439,-8.6517,-8.7286,-8.6055,-7.9614,-7.2688,0.0,0.0,0.0,-5.762,-5.7742,-5.8211,-5.8776,-6.0037,-6.075,0.0,0.0,0.0,0.0,0.0,0.0,0.0,0.0,0.0,0.0,0.0,-8.3476,-8.4453,-8.5547,-8.6836,-8.8281,-8.7812,-8.7851,-8.8672,-8.7656,-8.7226,-8.75,-8.7226,-8.7109,-8.7109,-8.6484,-8.5625,-8.4492,-8.3867,-8.3125,-8.2304,-8.2304,-8.2304,0.0,-8.2304,-8.2304,-8.2304,-8.2304,-8.2304,-8.2304,-8.2304,-8.2304,-8.2304,-8.2304,-8.2304,-8.2304,-8.2304,-8.2304,-8.2264,-8.2059,-8.1403,-8.0514,-7.9641,-7.8677,-7.7742,-7.7123,-7.6673,-7.6553,-7.713,-7.663,-7.5786,-7.5064,-7.442,-7.367,-7.2573,-7.2187,-7.2148,-7.2695,-7.2578,-7.2305,-7.2031,-7.0976,-6.9883,-6.914,-6.8008,-6.7187,-6.6914,-6.5781,-6.4726,-6.3828,-6.4101,-6.4023,-6.3437,-6.3125,-6.3008,-6.3008,-6.2148,-6.1719,-6.1719,-6.0859,-6.0273,-6.0039,-5.8594,-5.789,-5.789,-5.7265,-5.7461,-8.0246,-8.3016,-8.4939,-8.4939,-7.9271,-7.28,0.0,0.0,0.0,-5.7759,-5.8771,-5.9924,-5.9808,-6.0463,-6.0997,-6.0997,0.0,0.0,0.0,0.0,0.0,0.0,0.0,0.0,0.0,0.0,-8.4531,-8.3672,-8.5234,0.0,-8.7461,-8.75,-8.7851,-8.8672,-8.707,-8.664,-8.75,-8.664,-8.6211,-8.6211,-8.6211,-8.5273,-8.3594,-8.3594,-8.3125,-8.2304,-8.2304,-8.2304,0.0,-8.2304,-8.2304,-8.2304,-8.2304,-8.2304,-8.2304,-8.2304,-8.2304,-8.2304,-8.2304,-8.2304,-8.2304,-8.2304,-8.2304,-8.2264,-8.2059,-8.1403,-8.0612,-8.0184,-7.9327,-7.8492,-7.8492,-7.7876,-7.7284,-7.7284,-7.663,-7.5632,-7.4295,-7.3992,-7.3865,-7.3393,-7.2578,-7.2539,-7.4297,-7.3867,-7.3008,-7.2148,-7.1992,-7.1055,-6.8555,-6.8203,-6.7851,-6.6992,-6.6875,-6.6523,-6.5664,-6.4805,-6.4297,-6.4297,-6.3476,-6.3008,-6.3008,-6.2148,-6.1719,-6.1719,-6.0859,-6.0,-5.9219,-5.832,-5.789,-5.789,-5.789,-5.8359,-7.4976,-7.6899,-7.7829,-7.7382,-7.3296,-6.8849,-6.6789,0.0,0.0,0.0,-5.9828,-6.0296,-6.0735,-6.1407,-6.2211,-6.3301,0.0,0.0,0.0,0.0,0.0,0.0,0.0,0.0,0.0,0.0,-8.5664,-8.539,-8.6445,-8.7226,-8.75,-8.75,-8.7617,-8.7851,-8.7383,-8.664,-8.5742,-8.6054,-8.5898,-8.5312,-8.4726,-8.414,-8.3594,-8.2969,-8.2578,-8.2304,-8.2304,-8.2304,-8.2304,-8.2304,-8.2304,-8.2304,-8.2304,-8.2304,-8.2304,-8.2304,-8.2304,-8.2304,-8.2304,-8.2304,-8.2304,-8.2304,-8.2304,-8.2223,-8.1894,-8.1617,-8.1189,-8.0177,-7.9235,-7.8477,-7.8477,-7.8284,-7.8246,-7.8861,-7.8323,-7.7483,-7.6773,-7.6171,-7.5468,-7.4409,-7.3984,-7.3945,-7.4492,-7.4375,-7.4297,-7.4609,-7.3125,-7.2148,-7.2539,-7.0,-6.8281,-6.8594,-6.8125,-6.7187,-6.5703,-6.5898,-6.582,-6.5234,-6.4922,-6.4492,-6.3906,-6.3047,-6.2305,-6.1719,-6.0859,-6.0273,-6.0039,-5.918,-5.8789,-5.8828,-5.9961,-6.0581,0.0,-7.2673,-7.3729,-7.3319,-7.037,0.0,0.0,0.0,0.0,0.0,0.0,0.0,-6.1245,-6.1621,-6.2215,0.0,0.0,0.0,0.0,0.0,0.0,0.0,0.0,0.0,0.0,-8.5078,-8.6562,-8.6211,-8.6719,-8.7148,-8.7461,-8.6875,-8.6523,-8.6523,-8.6836,-8.6328,-8.4922,-8.5429,-8.5273,-8.4414,-8.3867,-8.3437,-8.3086,-8.2539,-8.2304,-8.2304,-8.2304,-8.2304,0.0,-8.2304,-8.2304,-8.2304,-8.2304,-8.2304,-8.2304,-8.2304,-8.2304,-8.2304,-8.2304,-8.2304,-8.2304,-8.2304,-8.2263,-8.2118,-8.1688,-8.1524,-8.1325,-8.0497,-7.99,-7.9477,-7.9477,-7.8977,-7.8707,-7.9592,-7.8669,-7.7522,-7.7365,-7.6684,-7.5896,-7.5229,-7.457,-7.4414,-7.539,-7.5039,-7.4883,-7.5781,-7.4492,-7.3515,-7.3594,-7.1289,-6.957,-6.9453,-6.8984,-6.8203,-6.7148,-6.7265,-6.7031,-6.6133,-6.5781,-6.5351,-6.4805,-6.3633,-6.2734,-6.2187,-6.1328,-6.0742,-6.039,-6.0234,-6.0156,-6.0195,-6.1831,-6.2553,0.0,0.0,0.0,0.0,0.0,0.0,0.0,0.0,0.0,0.0,0.0,0.0,0.0,0.0,0.0,0.0,0.0,0.0,0.0,0.0,0.0,0.0,0.0,0.0,-8.1133,-8.5,-8.7148,-8.6367,-8.625,-8.6562,-8.7344,-8.582,-8.4883,-8.4804,-8.5664,-8.5664,-8.4726,-8.4765,-8.4375,-8.3515,-8.3515,-8.3086,-8.2304,-8.2304,-8.2304,0.0,-8.2304,-8.2304,-8.2304,-8.2304,-8.2304,-8.2304,-8.2304,-8.2304,-8.2304,-8.2304,-8.2304,-8.2304,-8.2304,-8.2304,-8.2304,-8.2265,-8.2125,-8.1883,-8.1494,-8.1271,-8.1124,-8.1108,-8.1093,-8.1093,-8.1093,-7.9862,-7.8784,-7.9631,-7.7953,-7.6289,-7.6596,-7.6076,-7.5602,-7.5933,-7.4648,-7.4297,-7.6758,-7.582,-7.4961,-7.5781,-7.5859,-7.4922,-7.25,-7.2031,-7.1328,-6.9844,-6.957,-6.9453,-6.9414,-6.8711,-6.7969,-6.7148,-6.6289,-6.5742,-6.5703,-6.4062,-6.3125,-6.3008,-6.2187,-6.1406,-6.0664,-6.1484,-6.1875,-6.1913,-6.3442,-6.4184,0.0,0.0,0.0,0.0,0.0,0.0,0.0,0.0,0.0,0.0,0.0,0.0,0.0,0.0,0.0,0.0,0.0,0.0,0.0,0.0,0.0,0.0,0.0,-8.4219,-8.3086,-8.5703,-8.7422,-8.7226,-8.6562,-8.6289,-8.6484,-8.5469,-8.4609,-8.3945,-8.4765,-8.4453,-8.2929,-8.3554,-8.3476,-8.2617,-8.2617,-8.25,-8.2304,-8.2304,-8.2304,-8.2304,-8.2304,-8.2304,-8.2304,-8.2304,-8.2304,-8.2304,-8.2304,-8.2304,-8.2304,-8.2304,-8.2304,-8.2304,-8.2304,-8.2304,-8.2265,-8.212,-8.1837,-8.1514,-8.1414,-8.1359,-8.1311,-8.1146,-8.1093,-8.1093,-8.1093,-8.0285,-7.9554,-7.9746,-7.8963,-7.8026,-7.7601,-7.75,-7.7344,-7.6951,-7.6015,-7.5703,-7.6992,-7.6328,-7.5664,-7.5859,-7.5312,-7.4687,-7.4062,-7.2226,-7.1094,-7.1367,-7.0781,-7.0117,-6.9453,-6.9258,-6.9101,-6.8906,-6.8086,-6.7305,-6.6601,-6.5547,-6.4375,-6.3047,-6.2812,-6.293,-6.3398,-6.3594,-6.3628,-6.3555,-6.4554,-6.4885,0.0,0.0,0.0,0.0,0.0,0.0,0.0,0.0,0.0,0.0,0.0,0.0,0.0,0.0,0.0,0.0,0.0,0.0,0.0,0.0,0.0,0.0,0.0,-8.5117,0.0,-8.6679,-8.75,-8.75,-8.6679,-8.6211,-8.6211,-8.5,-8.4101,-8.3594,-8.3672,-8.3242,-8.2304,-8.3164,-8.3164,-8.2304,-8.2304,-8.2304,-8.2304,-8.2304,-8.2304,-8.2304,-8.2304,-8.2304,-8.2304,-8.2304,-8.2304,-8.2304,-8.2304,-8.2304,-8.2304,-8.2304,-8.2304,-8.2304,-8.2304,-8.2223,-8.2118,-8.1831,-8.1582,-8.1383,-8.1298,-8.1258,-8.1256,-8.1116,-8.1093,-8.1016,-8.0592,-7.9862,-7.9214,-7.931,-7.8476,-7.7718,-7.7884,-7.7726,-7.7489,-7.7264,-7.6172,-7.5703,-7.6992,-7.582,-7.5117,-7.6328,-7.539,-7.4609,-7.4609,-7.3008,-7.1914,-7.1992,-7.1562,-7.1094,-7.0625,-7.0625,-7.0312,-6.9492,-6.8672,-6.8008,-6.7539,-6.6289,-6.4961,-6.3633,-6.3594,-6.3828,-6.4297,-6.4603,-6.4739,-6.4658,-6.5338,-6.5559,0.0,0.0,0.0,0.0,0.0,0.0,0.0,0.0,0.0,0.0,0.0,0.0,0.0,-6.0934,0.0,0.0,0.0,0.0,0.0,0.0,0.0,0.0,0.0,0.0,-8.6914,-8.7344,-8.7422,-8.7304,-8.6484,-8.5937,-8.582,-8.4297,-8.3398,-8.3398,-8.2695,-8.2304,-8.2304,-8.3047,-8.3047,-8.2304,-8.2304,-8.2304,-8.2304,-8.2304,-8.2304,-8.2304,-8.2304,0.0,-8.2304,-8.2304,-8.2304,-8.2304,-8.2304,-8.2304,-8.2304,-8.2304,-8.2304,-8.2304,-8.2304,-8.2168,-8.1889,-8.1553,-8.1418,-8.1324,-8.1161,-8.1093,-8.1093,-8.1093,-8.1093,-8.0939,-8.0208,-7.9246,-7.8542,-7.8757,-7.7556,-7.6642,-7.7687,-7.7398,-7.6998,-7.7187,-7.5898,-7.5273,-7.6758,-7.5156,-7.4375,-7.6328,-7.5469,-7.4492,-7.4258,-7.3672,-7.3008,-7.2265,-7.2305,-7.2344,-7.2226,-7.2187,-7.1523,-6.9883,-6.9023,-6.8476,-6.8203,-6.6523,-6.5312,-6.4726,-6.457,-6.4531,-6.4647,-6.5202,-6.5546,-6.5628,-6.5942,-6.6167,-6.232,-6.2106,-6.1441,-6.0625,-6.1041,0.0,0.0,0.0,0.0,0.0,0.0,0.0,0.0,-6.1678,-6.257,0.0,0.0,-7.0593,0.0,0.0,-7.9726,-8.3008,0.0,-8.6484,-8.539,-8.664,-8.7187,-8.6445,-8.5586,-8.4765,-8.4023,-8.3047,-8.25,-8.25,-8.2383,-8.2304,-8.2304,-8.2422,-8.2422,-8.2304,-8.2304,-8.2304,-8.2304,-8.2304,-8.2304,-8.2304,0.0,-8.2304,-8.2304,-8.2304,-8.2304,-8.2304,-8.2304,-8.2304,-8.2304,-8.2304,-8.2304,-8.2304,-8.2304,-8.2059,-8.1757,-8.1656,-8.1403,-8.1131,-8.1108,-8.1093,-8.1093,-8.1093,-8.1093,-8.1054,-8.0939,-7.9708,-7.8542,-7.8757,-7.7661,-7.6636,-7.7008,-7.7126,-7.7147,-7.7187,-7.6406,-7.5781,-7.6055,-7.5781,-7.5156,-7.4062,-7.4297,-7.4062,-7.2578,-7.293,-7.3242,-7.3125,-7.375,-7.3906,-7.3164,-7.3086,-7.2656,-7.164,-7.0781,-6.9687,-6.8242,-6.6523,-6.5898,-6.6484,-6.5781,-6.5698,-6.6243,-6.6349,-6.6634,-6.7062,-6.6418,-6.6415,-6.2691,-6.2695,-6.2382,-6.2414,-6.2068,0.0,0.0,0.0,0.0,0.0,0.0,0.0,0.0,0.0,-6.4999,-6.6788,0.0,-7.3153,-7.815,-7.8982,-8.0351,0.0,0.0,-8.5469,-8.5586,-8.5898,-8.5937,-8.5547,-8.5117,-8.4531,-8.3633,-8.3203,-8.2773,-8.2304,-8.2304,-8.2304,-8.2304,-8.2304,-8.2304,-8.2304,-8.2304,-8.2304,-8.2304,-8.2304,-8.2304,-8.2304,0.0,-8.2304,-8.2304,-8.2304,-8.2304,-8.2304,-8.2304,-8.2304,-8.2304,-8.2304,-8.2304,-8.2265,-8.2173,-8.2,-8.185,-8.1757,-8.1483,-8.1258,-8.1258,-8.1181,-8.1093,-8.1093,-8.1093,-8.0977,-8.0516,-7.9871,-7.93,-7.9049,-7.8543,-7.8048,-7.7825,-7.7848,-7.789,-7.789,-7.6836,-7.6211,-7.7148,-7.6133,-7.5234,-7.539,-7.4531,-7.3945,-7.4101,-7.3633,-7.3476,-7.3945,-7.4375,-7.4453,-7.4023,-7.3984,-7.3242,-7.1406,-7.0937,-6.9961,-6.8281,-6.7422,-6.6953,-6.6914,-6.6398,-6.6297,-6.6616,-6.6875,-6.7169,-6.7416,-6.7338,-6.7278,-6.3045,-6.3008,-6.289,-6.3789,-6.3164,-6.2578,-6.3672,-6.3906,0.0,0.0,0.0,0.0,0.0,0.0,0.0,-7.1015,-7.3594,-7.5937,-7.8359,-7.9453,-8.1211,-8.4492,-8.4297,-8.4414,-8.5781,-8.5273,-8.4804,-8.4609,-8.4609,-8.4219,-8.3359,-8.3281,-8.3008,-8.2304,-8.2304,-8.2304,-8.2304,-8.2304,-8.2304,-8.2304,-8.2304,-8.2304,-8.2304,-8.2304,-8.2187,-8.1992,-8.2226,-8.2187,-8.1992,-8.2226,-8.2304,-8.2304,-8.2304,-8.2304,-8.2304,-8.2304,-8.2304,-8.2265,-8.212,-8.2049,-8.1976,-8.1831,-8.1615,-8.148,-8.148,-8.1336,-8.1152,-8.1152,-8.1131,-8.0939,-8.0285,-8.0111,-7.9974,-7.9531,-7.9405,-7.929,-7.8865,-7.8789,-7.8789,-7.8789,-7.7539,-7.6914,-7.8281,-7.668,-7.5586,-7.6719,-7.5195,-7.4336,-7.5469,-7.4609,-7.414,-7.4844,-7.5078,-7.5117,-7.4922,-7.4531,-7.3437,-7.1445,-7.0937,-7.0117,-6.8828,-6.8594,-6.8164,-6.7457,-6.7308,-6.7177,-6.7082,-6.7479,-6.7657,-6.7634,-6.7935,-6.7744,-6.3943,-6.3047,-6.1992,-6.289,-6.3594,-6.4531,-6.625,-6.6601,0.0,-6.8711,0.0,0.0,0.0,-6.625,0.0,0.0,-7.7773,-8.1094,-8.289,0.0,-8.4531,-8.4844,-8.4844,-8.4844,-8.4961,-8.4922,-8.457,-8.375,-8.3672,-8.332,-8.2422,-8.2383,-8.2344,-8.2304,-8.2304,-8.2304,-8.2304,-8.2304,-8.2304,-8.2304,-8.2304,-8.2304,-8.2304,-8.2304,-8.1875,-8.1133,-8.1953,-8.1836,-8.1172,-8.1953,-8.2304,-8.2304,-8.2304,-8.2304,-8.2304,-8.2304,-8.2304,-8.2304,-8.2265,-8.217,-8.1988,-8.1984,-8.185,-8.1664,-8.1664,-8.1534,-8.1371,-8.1371,-8.1217,-8.1093,-8.1016,-8.0574,-8.0129,-8.0262,-7.9834,-7.9447,-7.9568,-7.9609,-7.9609,-7.9609,-7.8906,-7.8359,-7.8476,-7.7656,-7.6797,-7.6094,-7.582,-7.5469,-7.4765,-7.5273,-7.5742,-7.5781,-7.6523,-7.668,-7.5898,-7.4336,-7.332,-7.3125,-7.1601,-7.0664,-7.0547,-6.9805,-6.9291,-6.9042,-6.9036,-6.8844,-6.8471,-6.851,-6.8442,-6.8309,-6.7564,-6.7167,-6.4062,-6.3437,-6.2969,-6.4922,-6.5273,0.0,0.0,-6.8476,-6.8984,-7.0703,-7.0976,0.0,0.0,0.0,-7.2422,-7.5703,-7.9375,-8.2226,-8.3437,-8.3867,-8.4297,-8.4844,-8.4414,-8.4101,-8.4101,-8.3594,-8.3164,-8.2812,-8.2773,-8.2656,-8.2304,-8.2304,-8.2304,-8.2304,-8.2304,-8.2304,-8.2304,-8.2304,-8.2304,-8.2304,-8.2304,-8.2304,-8.2304,-8.2304,-8.2109,-8.1836,-8.2148,-8.2109,-8.1836,-8.2148,-8.2304,-8.2304,-8.2304,-8.2304,-8.2304,-8.2304,-8.2304,-8.2304,-8.2304,-8.2263,-8.2176,-8.2176,-8.2056,-8.1883,-8.1883,-8.1679,-8.1407,-8.1407,-8.1361,-8.1298,-8.1298,-8.1193,-8.1148,-8.1337,-8.1311,-8.1087,-8.0625,-8.0508,-8.0508,-8.0508,-7.9844,-7.9414,-7.9961,-7.8906,-7.789,-7.7578,-7.6601,-7.5976,-7.6172,-7.6015,-7.6094,-7.664,-7.6992,-7.707,-7.6758,-7.5117,-7.4101,-7.4101,-7.2461,-7.1289,-7.0703,-7.039,-6.9915,-6.9231,-6.9085,-6.8889,-6.8607,-6.9054,-6.9245,-6.9206,-6.8859,-6.8436,-6.3711,-6.3437,-6.3359,-6.4883,0.0,0.0,-6.957,-7.0469,-7.1328,-7.3594,-7.3633,-7.3125,-7.2539,0.0,0.0,0.0,-8.0312,-8.2812,-8.3125,-8.3437,-8.3711,-8.4023,-8.3554,-8.3203,-8.3203,-8.2656,-8.2304,-8.2304,-8.2304,-8.2304,-8.2304,-8.2031,-8.1875,-8.1875,-8.1601,-8.1484,-8.1484,-8.1484,-8.1484,-8.1484,-8.1484,-8.1758,-8.2304,-8.2304,-8.2148,-8.1914,-8.2187,-8.2148,-8.1914,-8.2187,-8.2304,-8.2304,-8.2304,-8.2304,-8.2304,-8.2304,-8.2304,-8.2304,-8.2304,-8.2304,-8.2304,-8.2304,-8.2219,-8.2074,-8.2074,-8.1825,-8.1532,-8.1572,-8.1512,-8.1414,-8.1553,-8.1672,-8.1837,-8.1976,-8.2168,-8.2148,-8.1523,-8.1406,-8.1406,-8.1406,-8.0703,-8.039,-8.125,-7.9805,-7.8594,-7.8828,-7.7422,-7.6523,-7.7109,-7.668,-7.6523,-7.7148,-7.7187,-7.7187,-7.7187,-7.5859,-7.4883,-7.4609,-7.3161,-7.1949,-7.1133,-7.1052,-7.0677,-6.9922,-6.974,-6.9524,-6.9319,-6.981,-6.9821,-6.9283,-6.9283,-6.8706,-6.3008,-6.3008,-6.2812,0.0,0.0,0.0,-7.125,-7.2695,-7.4297,-7.7812,-7.5742,-7.3359,-7.3359,-7.4062,0.0,-7.6914,-8.0781,-8.3281,-8.2422,-8.3047,-8.3281,-8.2383,-8.2304,-8.2304,-8.2304,-8.2304,-8.2304,-8.2304,-8.2304,-8.2304,-8.2304,-8.1445,-8.0976,-8.0976,-8.0156,-7.9687,-7.9687,-7.9687,-7.9687,-7.9687,-7.9687,-8.0625,-8.2304,-8.2304,-8.1836,-8.1054,-8.1914,-8.1797,-8.1054,-8.1953,-8.2304,-8.2304,-8.2304,-8.2304,-8.2304,-8.2304,-8.2304,-8.2304,-8.2304,-8.2304,-8.2304,-8.2304,-8.2304,-8.2304,-8.2304,-8.2003,-8.1725,-8.1919,-8.1695,-8.1512,-8.1889,-8.1992,-8.1992,-8.1992,-8.217,-8.2304,-8.2304,-8.2304,-8.2304,-8.2304,-8.1601,-8.1289,-8.2148,-8.0195,-7.8789,-7.957,-7.8281,-7.7187,-7.7187,-7.7187,-7.7187,-7.7187,-7.7187,-7.7187,-7.7187,-7.6406,-7.5547,-7.4648,-7.3607,-7.2703,-7.2031,-7.1807,-7.1638,-7.1485,-7.1308,-7.112,-7.0898,-7.0898,-7.0052,-6.8436,-6.8398,-6.7513,-6.4648,0.0,0.0,-6.5898,0.0,0.0,0.0,-7.4023,0.0,0.0,-7.8008,-7.6055,-7.6055,-7.6758,0.0,-7.7226,-8.0273,-8.2617,-8.2344,-8.2539,-8.2578,-8.2344,-8.2304,-8.2304,-8.2304,-8.2304,-8.2304,-8.2304,-8.1719,-8.1406,-8.1406,-8.0547,-8.0078,-8.0078,-7.9844,-7.9687,-7.9687,-7.9687,-7.9687,-7.9687,-7.9687,-8.0273,-8.1406,-8.1406,-8.125,-8.1054,-8.1914,-8.1797,-8.1054,-8.1953,-8.2304,-8.2304,-8.2304,-8.2304,-8.2304,-8.2304,-8.2304,-8.2304,-8.2304,-8.2304,-8.2304,-8.2304,-8.2304,-8.2304,-8.2304,-8.2003,-8.1725,-8.1919,-8.1825,-8.1648,-8.1914,-8.2115,-8.2219,-8.2219,-8.2264,-8.2304,-8.2304,-8.2304,-8.2304,-8.2304,-8.2109,-8.1797,-8.1445,-8.0234,-7.9219,-7.8906,-7.789,-7.7187,-7.7187,-7.7187,-7.7187,-7.7187,-7.7187,-7.7187,-7.7187,-7.6406,-7.5739,-7.5316,-7.4435,-7.326,-7.1841,-7.1633,-7.1478,-7.1299,-7.1223,-7.112,-7.0898,-7.0898,-7.0629,-7.0129,-6.8936,-6.8129,-6.3984,0.0,0.0,-6.6601,-6.8203,-7.039,-7.5078,0.0,0.0,0.0,-7.9726,-7.8281,-7.8633,-7.8867,0.0,-7.875,-8.0742,-8.2304,-8.2304,-8.2304,-8.2304,-8.2304,-8.2304,-8.2304,-8.2304,-8.2304,-8.2148,-8.1797,-8.1289,-8.0859,-8.0508,-7.9687,-7.9219,-7.9219,-7.8906,-7.8711,-7.8711,-7.8711,-7.8711,-7.8711,-7.8711,-7.914,-8.0039,-8.0351,-8.0469,-8.0508,-8.1054,-8.0976,-8.0508,-8.1054,-8.1484,-8.1797,-8.1797,-8.1992,-8.2304,-8.2304,-8.2304,-8.2304,-8.2304,-8.2304,-8.2304,-8.2304,-8.2304,-8.2304,-8.2304,-8.2065,-8.1867,-8.2059,-8.198,-8.1867,-8.2062,-8.2219,-8.2304,-8.2304,-8.2304,-8.2304,-8.2304,-8.2304,-8.2304,-8.2304,-8.2304,-8.2148,-8.1601,-8.0781,-7.9922,-7.9101,-7.7969,-7.7187,-7.7187,-7.7187,-7.7187,-7.7187,-7.7187,-7.7187,-7.7187,-7.6636,-7.6109,-7.5631,-7.4951,-7.3951,-7.2543,-7.2438,-7.2296,-7.2189,-7.2148,-7.1877,-7.1398,-7.1398,-7.1052,-7.0398,-6.9398,-6.8744,-6.2383,0.0,0.0,-6.5625,-6.875,0.0,-7.7617,-7.9961,-8.1328,-8.2031,0.0,-8.0195,-8.0976,-8.0469,-8.0195,-8.0976,-8.1797,-8.2304,-8.2304,-8.2226,-8.2187,-8.2187,-8.2109,-8.207,-8.207,-8.207,-8.1719,-8.0937,-8.082,-8.0429,-7.9648,-7.8828,-7.8398,-7.8398,-7.7539,-7.707,-7.707,-7.707,-7.707,-7.707,-7.707,-7.7539,-7.8398,-7.9219,-7.9648,-7.9687,-7.9609,-7.9648,-7.9687,-7.9687,-8.0156,-8.0898,-8.0976,-8.1484,-8.2187,-8.2265,-8.2304,-8.2304,-8.2304,-8.2304,-8.2304,-8.2304,-8.2304,-8.2304,-8.2304,-8.217,-8.2049,-8.2223,-8.217,-8.2053,-8.2263,-8.2304,-8.2304,-8.2304,-8.2304,-8.2304,-8.2304,-8.2304,-8.2304,-8.2304,-8.2304,-8.2265,-8.2187,-8.1523,-8.0664,-7.9726,-7.8242,-7.7187,-7.7187,-7.7187,-7.7187,-7.7187,-7.7187,-7.7187,-7.7187,-7.7005,-7.6564,-7.5729,-7.5322,-7.4735,-7.3955,-7.3762,-7.3684,-7.3684,-7.3485,-7.2976,-7.2206,-7.2129,-7.1283,-6.9821,-6.9744,-6.9283,0.0,-6.6406,0.0,0.0,0.0,0.0,-7.9922,-8.1289,-8.1875,-8.1367,-8.1523,-8.1797,-8.1992,-8.1875,-8.1797,-8.1992,-8.2187,-8.2304,-8.2304,-8.1719,-8.1289,-8.1289,-8.0664,-8.0273,-8.0273,-8.0273,-8.0195,-8.0,-7.9375,-7.8945,-7.8789,-7.7969,-7.7461,-7.7461,-7.664,-7.6172,-7.6172,-7.6172,-7.6172,-7.6172,-7.6172,-7.664,-7.75,-7.8359,-7.9101,-7.9648,-7.9023,-7.9101,-7.9687,-7.9687,-7.9805,-8.0039,-8.0742,-8.1094,-8.1367,-8.2031,-8.2304,-8.2304,-8.2304,-8.2304,-8.2304,-8.2304,-8.2304,-8.2304,-8.2304,-8.217,-8.2049,-8.2223,-8.217,-8.2053,-8.2263,-8.2304,-8.2304,-8.2304,-8.2304,-8.2304,-8.2304,-8.2304,-8.2304,-8.2304,-8.2304,-8.207,-8.1406,-8.1133,-8.0508,-7.8984,-7.7851,-7.7187,-7.7187,-7.7187,-7.7187,-7.7187,-7.7187,-7.7187,-7.7187,-7.7005,-7.6765,-7.6417,-7.6167,-7.5883,-7.5526,-7.4241,-7.3547,-7.3547,-7.2825,-7.2399,-7.2206,-7.1514,-7.0975,-7.0629,-6.9975,-6.959,0.0,0.0,0.0,0.0,0.0,0.0,0.0,0.0,-8.1679,-8.164,-8.1992,-8.2304,-8.2304,-8.2304,-8.2148,-8.1758,-8.2031,-8.1992,-8.1172,-8.1015,-8.0859,-8.0429,-7.9961,-7.9687,-7.9687,-7.9687,-7.9531,-7.914,-7.875,-7.8125,-7.7305,-7.6836,-7.6406,-7.5976,-7.5508,-7.5273,-7.5273,-7.5273,-7.5273,-7.5273,-7.5273,-7.5508,-7.6015,-7.7305,-7.8125,-7.8476,-7.8047,-7.8125,-7.8515,-7.8515,-7.875,-7.918,-7.9648,-8.0273,-8.1054,-8.1523,-8.1953,-8.2304,-8.2304,-8.2304,-8.2304,-8.2304,-8.2304,-8.2265,-8.2176,-8.2168,-8.2166,-8.2168,-8.2168,-8.2171,-8.2265,-8.2304,-8.2304,-8.2304,-8.2304,-8.2304,-8.2304,-8.2304,-8.2304,-8.2304,-8.2304,-8.2148,-8.1719,-8.1289,-8.0547,-7.9258,-7.8359,-7.7656,-7.7265,-7.7187,-7.7187,-7.7187,-7.7187,-7.7147,-7.7055,-7.6868,-7.669,-7.6484,-7.6289,-7.6108,-7.5991,-7.5168,-7.4707,-7.4707,-7.386,-7.3206,-7.2822,-7.1937,-7.1321,-7.0898,-7.0475,-7.0337,0.0,0.0,0.0,0.0,0.0,0.0,0.0,0.0,0.0,0.0,-8.2187,-8.2304,-8.2304,-8.2187,-8.1836,-8.1133,-8.1484,-8.1367,-7.9883,-8.0195,-8.0234,-7.9375,-7.914,-7.8984,-7.8828,-7.8828,-7.8555,-7.789,-7.7812,-7.7187,-7.5742,-7.5664,-7.5351,-7.4609,-7.4453,-7.4375,-7.4375,-7.4375,-7.4375,-7.4375,-7.4531,-7.4531,-7.4414,-7.6015,-7.6758,-7.6758,-7.6914,-7.6992,-7.6992,-7.7148,-7.7617,-7.8281,-7.8437,-7.9336,-8.0586,-8.0898,-8.1445,-8.2109,-8.2265,-8.2304,-8.2304,-8.2304,-8.2304,-8.2265,-8.2115,-8.2171,-8.2264,-8.2113,-8.2173,-8.2304,-8.2304,-8.2304,-8.2304,-8.2304,-8.2304,-8.2304,-8.2304,-8.2304,-8.2304,-8.2304,-8.2304,-8.2304,-8.2304,-8.1562,-8.0703,-7.9844,-7.9023,-7.8203,-7.7305,-7.7187,-7.7187,-7.7187,-7.7187,-7.7097,-7.6926,-7.6696,-7.6493,-7.6316,-7.6108,-7.6015,-7.6015,-7.6015,-7.6015,-7.6015,-7.513,-7.4322,-7.3514,-7.2629,-7.1745,-7.0898,-7.0898,-7.1004,0.0,0.0,0.0,0.0,0.0,0.0,0.0,0.0,0.0,0.0,0.0,-8.2304,-8.2304,-8.1679,-8.1133,-8.1015,-8.0469,-7.9961,-7.9726,-7.9219,-7.8515,-7.7656,-7.6875,-7.6094,-7.5351,-7.5273,-7.5234,-7.5117,-7.5117,-7.5039,-7.4805,-7.4765,-7.4726,-7.4609,-7.3867,-7.3476,-7.3476,-7.3476,-7.3476,-7.3476,-7.4258,-7.4219,-7.3515,-7.4492,-7.4961,-7.5,-7.5742,-7.6055,-7.6133,-7.6875,-7.7265,-7.7461,-7.8203,-7.8633,-7.9023,-8.0469,-8.1054,-8.1289,-8.2031,-8.2304,-8.2304,-8.2304,-8.2304,-8.2304,-8.2265,-8.2265,-8.2304,-8.2265,-8.2265,-8.2304,-8.2304,-8.2304,-8.2304,-8.2304,-8.2304,-8.2304,-8.2304,-8.2304,-8.2304,-8.2304,-8.2304,-8.2304,-8.2304,-8.1562,-8.0703,-7.9844,-7.9023,-7.8203,-7.7305,-7.7187,-7.7187,-7.7187,-7.7052,-7.6933,-7.6919,-7.6576,-7.6327,-7.6295,-7.6108,-7.6015,-7.6015,-7.6015,-7.6015,-7.6015,-7.513,-7.4322,-7.3514,-7.2629,-7.1745,-7.0898,-7.0898,-7.1004,0.0,0.0,0.0,0.0,0.0,0.0,0.0,0.0,0.0,0.0,0.0,0.0,-8.1484,-8.125,-8.0547,-7.9101,-7.8945,-7.8515,-7.7031,-7.6953,-7.6719,-7.5859,-7.539,-7.5039,-7.4648,-7.4609,-7.4609,-7.4609,-7.414,-7.3867,-7.3867,-7.2969,-7.2656,-7.3125,-7.1875,-7.1601,-7.2578,-7.164,-7.1406,-7.1836,-7.2734,-7.293,-7.2578,-7.2969,-7.3672,-7.4609,-7.5,-7.5469,-7.5937,-7.6328,-7.6758,-7.7226,-7.7488,-7.7907,-7.8415,-7.9157,-8.0016,-8.0918,-8.1405,-8.1875,-8.2304,-8.2304,-8.2304,-8.2265,-8.2171,-8.2219,-8.2265,-8.2171,-8.2219,-8.2304,-8.2304,-8.2304,-8.2304,-8.2304,-8.2304,-8.2304,-8.2304,-8.2304,-8.2304,-8.2304,-8.2304,-8.2304,-8.2304,-8.1992,-8.1289,-7.9883,-7.9414,-7.8672,-7.7383,-7.7187,-7.7187,-7.7187,-7.7005,-7.6856,-7.6744,-7.6475,-7.6254,-7.6147,-7.6062,-7.6015,-7.6015,-7.6015,-7.6015,-7.6015,-7.513,-7.4322,-7.3514,-7.2629,-7.1745,-7.0898,-7.1016,-7.118,0.0,0.0,0.0,0.0,0.0,0.0,0.0,0.0,0.0,0.0,0.0,0.0,0.0,0.0,-7.9687,-7.7539,-7.7578,-7.707,-7.4922,-7.5156,-7.5234,-7.4375,-7.4062,-7.3867,-7.3633,-7.3437,-7.3281,-7.3281,-7.2695,-7.2305,-7.2305,-7.1094,-7.0703,-7.1328,-7.0156,-7.0078,-7.1328,-7.0117,-6.9805,-7.039,-7.1055,-7.1367,-7.1367,-7.1562,-7.2383,-7.3633,-7.4062,-7.4648,-7.5234,-7.5427,-7.6011,-7.675,-7.6571,-7.7034,-7.7814,-7.8048,-7.8967,-8.0133,-8.0456,-8.121,-8.1953,-8.1953,-8.2109,-8.2265,-8.212,-8.2175,-8.2265,-8.212,-8.2176,-8.2304,-8.2304,-8.2304,-8.2304,-8.2304,-8.2304,-8.2304,-8.2222,-8.2221,-8.2221,-8.2221,-8.2221,-8.2223,-8.2304,-8.2304,-8.1797,-8.0273,-7.9844,-7.918,-7.7734,-7.7344,-7.7187,-7.7145,-7.6939,-7.676,-7.6597,-7.6351,-7.6197,-7.6093,-7.6034,-7.6015,-7.6015,-7.6015,-7.6015,-7.6015,-7.5361,-7.463,-7.3822,-7.2937,-7.2107,-7.1313,-7.1231,-7.143,0.0,0.0,0.0,0.0,0.0,0.0,0.0,0.0,0.0,0.0,0.0,0.0,0.0,0.0,0.0,0.0,-7.6523,-7.5703,-7.4726,-7.4648,-7.4336,-7.3476,-7.2656,-7.1797,-7.0976,-7.0195,-6.9765,-6.9765,-6.9648,-6.9609,-6.9609,-6.957,-6.957,-6.9648,-6.9492,-6.9453,-6.9531,-6.9492,-6.9492,-6.9453,-6.957,-6.9648,-6.9648,-7.043,-7.082,-7.0976,-7.2656,-7.3398,-7.3476,-7.4111,-7.49,-7.567,-7.5462,-7.5903,-7.6791,-7.7616,-7.8108,-7.8444,-7.9232,-8.0176,-8.1054,-8.1054,-8.164,-8.2304,-8.2304,-8.2304,-8.2304,-8.2304,-8.2304,-8.2304,-8.2304,-8.2304,-8.2304,-8.2304,-8.2304,-8.2263,-8.2056,-8.2039,-8.2039,-8.2039,-8.2039,-8.2065,-8.2265,-8.2304,-8.1992,-8.1054,-8.0234,-7.9375,-7.8555,-7.7695,-7.7144,-7.6936,-7.6738,-7.6597,-7.6582,-7.6243,-7.6068,-7.6261,-7.6095,-7.6015,-7.6015,-7.6015,-7.6015,-7.6015,-7.5976,-7.5515,-7.463,-7.3822,-7.3061,-7.239,-7.1598,-7.1824,0.0,0.0,0.0,0.0,0.0,0.0,0.0,0.0,0.0,0.0,0.0,0.0,0.0,0.0,0.0,0.0,0.0,-7.3711,-7.2305,-7.2109,-7.1797,-7.0976,-7.0547,-7.0234,-6.9961,-6.9648,-6.9453,-6.9453,-6.8945,-6.8867,-6.9414,-6.8437,-6.832,-6.9414,-6.8359,-6.7812,-6.7812,-6.8906,-6.914,-6.8633,-6.9219,-6.9492,-6.9453,-7.0312,-7.0703,-7.0742,-7.1822,-7.259,-7.3134,-7.3384,-7.423,-7.5378,-7.5189,-7.5634,-7.6458,-7.6887,-7.7488,-7.8074,-7.864,-7.9411,-8.0273,-8.082,-8.1211,-8.1562,-8.2148,-8.2304,-8.2304,-8.2304,-8.2304,-8.2304,-8.2304,-8.2304,-8.2304,-8.2304,-8.2304,-8.2219,-8.1878,-8.1899,-8.1971,-8.1844,-8.1825,-8.1844,-8.1894,-8.1904,-8.1436,-7.9993,-7.9622,-7.8991,-7.7664,-7.7299,-7.7187,-7.7101,-7.6926,-7.678,-7.678,-7.6521,-7.6341,-7.6295,-7.6231,-7.6109,-7.6029,-7.6015,-7.6015,-7.6015,-7.6015,-7.5553,-7.4707,-7.3961,-7.3512,-7.3323,-7.2662,-7.2906,-6.9414,0.0,0.0,0.0,0.0,0.0,0.0,0.0,0.0,0.0,0.0,0.0,0.0,0.0,0.0,0.0,0.0,0.0,0.0,-7.0469,-7.0078,-6.9531,-6.918,-6.9023,-6.9062,-6.875,-6.8437,-6.8164,-6.7617,0.0,-6.7734,-6.6914,-6.7109,-6.8515,-6.7461,-6.6758,-6.6484,-6.7851,-6.8164,-6.7344,-6.8203,-6.875,-6.9023,-6.9883,-7.043,-7.0742,-7.1412,-7.2044,-7.2544,-7.2428,-7.3334,-7.4744,-7.4569,-7.5178,-7.6207,-7.6429,-7.6918,-7.7527,-7.7851,-7.8552,-7.9453,-8.0273,-8.0742,-8.1172,-8.2031,-8.2304,-8.2304,-8.2304,-8.2304,-8.2304,-8.2304,-8.2304,-8.2304,-8.2304,-8.2304,-8.2176,-8.1805,-8.178,-8.185,-8.1653,-8.1609,-8.1636,-8.1672,-8.1688,-8.1321,-8.0247,-7.9676,-7.9033,-7.7971,-7.7455,-7.7187,-7.7103,-7.699,-7.6919,-7.688,-7.6727,-7.6521,-7.64,-7.6348,-7.6195,-7.5991,-7.6015,-7.6015,-7.6015,-7.6015,-7.5707,-7.513,-7.4471,-7.4178,-7.4276,-7.3709,-7.4073,0.0,0.0,0.0,0.0,0.0,0.0,0.0,0.0,0.0,0.0,0.0,0.0,0.0,0.0,0.0,0.0,0.0,0.0,0.0,0.0,-6.9375,-6.9336,-6.8633,-6.8164,-6.8125,-6.7383,-6.6523,-6.5625,-6.5586,-6.5234,-6.4336,-6.5117,-6.5937,-6.6797,-6.6836,-6.6406,-6.5586,-6.6445,-6.6445,-6.5625,-6.6523,-6.7383,-6.8242,-6.9062,-6.9883,-7.0742,-7.1409,-7.1686,-7.1671,-7.1348,-7.2179,-7.3684,-7.3561,-7.4514,-7.6048,-7.6243,-7.6438,-7.6657,-7.6847,-7.7595,-7.8594,-7.9414,-8.0234,-8.1133,-8.1992,-8.2265,-8.2304,-8.2304,-8.2304,-8.2304,-8.2304,-8.2304,-8.2304,-8.2304,-8.2304,-8.2176,-8.1805,-8.1688,-8.1653,-8.1414,-8.1395,-8.1447,-8.167,-8.1664,-8.1732,-8.1928,-8.0497,-7.9441,-7.9647,-7.8203,-7.7144,-7.6936,-7.6922,-7.6922,-7.6922,-7.6732,-7.6636,-7.659,-7.6468,-7.6258,-7.6044,-7.6029,-7.6029,-7.6053,-7.6029,-7.5991,-7.5991,-7.5357,-7.5129,-7.533,-7.4689,-7.5283,-7.1094,0.0,0.0,0.0,0.0,0.0,0.0,0.0,0.0,0.0,0.0,0.0,0.0,0.0,0.0,0.0,0.0,0.0,0.0,0.0,0.0,-6.7656,-6.7383,-6.6992,-6.6367,-6.668,-6.6289,0.0,-6.5234,-6.5234,-6.4336,-6.4531,-6.4765,-6.5,-6.5039,-6.4883,-6.4648,-6.5508,-6.5859,-6.5625,-6.7109,-6.7969,-6.8242,-6.9687,-7.0469,-7.0742,-7.1304,-7.1554,-7.1536,-7.1317,-7.2136,-7.3536,-7.3504,-7.4603,-7.6254,-7.6448,-7.6624,-7.6852,-7.7052,-7.7303,-7.7695,-7.8555,-7.9375,-8.0234,-8.1094,-8.1797,-8.2304,-8.2304,-8.2304,-8.2304,-8.2304,-8.2304,-8.2304,-8.2304,-8.2304,-8.2176,-8.1805,-8.1688,-8.1609,-8.1231,-8.1181,-8.121,-8.1244,-8.1258,-8.1104,-8.068,-7.9797,-7.9043,-7.8663,-7.7806,-7.7187,-7.7105,-7.7104,-7.7104,-7.7104,-7.7055,-7.699,-7.6843,-7.7345,-7.7533,-7.7147,-7.7147,-7.7074,-7.6953,-7.6469,-7.6207,-7.6207,-7.5556,-7.5588,-7.6239,-7.636,-7.6892,-7.1328,-7.0,-6.875,-6.9883,0.0,0.0,-6.8437,-6.8633,-6.8555,0.0,0.0,0.0,0.0,0.0,0.0,0.0,0.0,0.0,0.0,0.0,0.0,0.0,0.0,-6.6172,-6.5664,-6.6406,-6.6328,-6.4961,-6.5312,-6.5234,-6.4336,-6.4297,-6.4297,-6.4297,-6.4297,-6.414,-6.375,-6.4609,-6.5234,-6.5625,-6.6992,-6.8203,-6.9297,-7.0234,-7.0858,-7.1117,-7.1399,-7.1435,-7.1378,-7.1158,-7.1814,-7.299,-7.3459,-7.4521,-7.5844,-7.6487,-7.6785,-7.6933,-7.7145,-7.7187,-7.7344,-7.8203,-7.9023,-7.9844,-8.0742,-8.1601,-8.2304,-8.2304,-8.2304,-8.2265,-8.2217,-8.2223,-8.2265,-8.2178,-8.2173,-8.211,-8.1753,-8.1615,-8.1491,-8.1137,-8.1093,-8.1093,-8.1093,-8.1093,-8.0998,-8.0701,-8.0087,-7.9558,-7.9283,-7.8658,-7.8125,-7.7773,-7.7734,-7.7617,-7.7226,-7.7187,-7.7104,-7.6926,-7.7703,-7.8012,-7.7622,-7.7932,-7.787,-7.7299,-7.6983,-7.6759,-7.6537,-7.6177,-7.6253,-7.6856,-7.7452,-7.8026,-7.0976,-7.0781,-7.0469,-6.9961,-6.9726,0.0,-6.7695,-6.793,-6.793,-6.6015,0.0,0.0,0.0,0.0,0.0,0.0,0.0,0.0,0.0,0.0,0.0,0.0,0.0,-6.5586,-6.5586,-6.6289,-6.6406,-6.5508,-6.5469,-6.5078,-6.4219,-6.414,-6.4101,-6.4023,-6.4023,-6.3633,-6.2851,-6.3711,-6.4609,-6.5469,-6.6523,-6.8281,-7.0547,-7.0664,-7.1047,-7.1582,-7.1349,-7.1179,-7.1087,-7.0922,-7.1377,-7.234,-7.3264,-7.4217,-7.5207,-7.6331,-7.6848,-7.6945,-7.7145,-7.7187,-7.7344,-7.8086,-7.8906,-7.9726,-8.0508,-8.1406,-8.2187,-8.2265,-8.2265,-8.2221,-8.2053,-8.2118,-8.2176,-8.1996,-8.1971,-8.1899,-8.1695,-8.1514,-8.1361,-8.1152,-8.1124,-8.1093,-8.1093,-8.1093,-8.1167,-8.1407,-8.0844,-8.0468,-8.0704,-8.0145,-7.9375,-7.8594,-7.8515,-7.8164,-7.7265,-7.7305,-7.7261,-7.7098,-7.7993,-7.8314,-7.7948,-7.8596,-7.8474,-7.7453,-7.7483,-7.7321,-7.6933,-7.6922,-7.7039,-7.7344,-7.8124,-7.8738,-7.2617,-7.1289,-7.0195,-7.207,-7.1484,0.0,-7.0039,-7.0078,-6.9336,0.0,0.0,0.0,0.0,0.0,0.0,0.0,0.0,0.0,0.0,0.0,0.0,0.0,0.0,0.0,-6.5586,-6.5742,-6.5508,-6.4609,-6.4531,-6.418,-6.3281,-6.3242,-6.293,-6.2226,-6.2226,-6.2148,-6.1953,-6.2812,-6.3672,-6.457,-6.6875,-6.8555,-6.9687,-7.039,-7.0781,-7.0856,-7.0021,-7.0004,-7.0639,-7.0431,-7.1164,-7.2452,-7.2672,-7.3876,-7.5494,-7.5768,-7.6412,-7.7146,-7.7187,-7.7187,-7.7226,-7.7383,-7.8047,-7.8789,-7.8945,-8.0039,-8.1406,-8.2109,-8.2175,-8.2053,-8.1996,-8.1899,-8.1825,-8.1785,-8.1739,-8.1688,-8.1483,-8.1414,-8.1395,-8.1361,-8.12,-8.1093,-8.1093,-8.1093,-8.1214,-8.1591,-8.0909,-8.0512,-8.0889,-8.0195,-7.9375,-7.8594,-7.8515,-7.8164,-7.7265,-7.7851,-7.8242,-7.8201,-7.9607,-8.0263,-7.9881,-7.999,-7.9513,-7.8299,-7.7299,-7.6894,-7.7145,-7.6993,-7.7352,-7.8242,-7.8217,-7.8901,-7.3594,-7.2695,-7.1601,-7.2422,-7.2305,0.0,0.0,-7.0039,-6.9336,-6.6758,0.0,0.0,0.0,0.0,0.0,0.0,0.0,0.0,0.0,0.0,0.0,0.0,0.0,0.0,-6.5586,-6.5586,-6.543,-6.4961,-6.4961,-6.457,-6.3672,-6.3242,-6.2617,-6.1719,-6.1719,-6.1719,-6.1719,-6.2578,-6.3672,-6.4961,-6.6719,-6.8203,-6.9492,-7.0312,-7.0427,-6.9942,-6.9871,-7.006,-7.0346,-7.0227,-7.0972,-7.2139,-7.2574,-7.3654,-7.5013,-7.5558,-7.636,-7.7187,-7.7187,-7.7187,-7.7187,-7.7187,-7.7773,-7.8555,-7.8984,-8.0273,-8.1718,-8.2058,-8.2065,-8.1967,-8.1732,-8.168,-8.1656,-8.1582,-8.1543,-8.1543,-8.1543,-8.148,-8.1414,-8.1524,-8.1469,-8.1359,-8.1258,-8.1336,-8.1425,-8.1524,-8.1353,-8.128,-8.1456,-8.1208,-8.0664,-7.9844,-7.9375,-7.8906,-7.8476,-7.8476,-7.8672,-7.9062,-8.0273,-8.0831,-8.0411,-8.0824,-8.0336,-7.8851,-7.7365,-7.678,-7.7187,-7.7531,-7.7961,-7.8515,-7.914,-8.0001,-7.3906,-7.3711,-7.293,-7.2383,-7.2656,-7.25,0.0,0.0,0.0,0.0,0.0,0.0,0.0,0.0,0.0,0.0,0.0,0.0,0.0,0.0,0.0,0.0,0.0,0.0,-6.6055,-6.5937,-6.5859,-6.5859,-6.5859,-6.5469,-6.4609,-6.3711,-6.2851,-6.1992,-6.1797,-6.1719,-6.1719,-6.2578,-6.3789,-6.5351,-6.6406,-6.7734,-6.9297,-7.0078,-6.9994,-6.9291,-6.9994,-7.0306,-7.0286,-7.0286,-7.0858,-7.1831,-7.248,-7.342,-7.4457,-7.5349,-7.6328,-7.7187,-7.7187,-7.7187,-7.7187,-7.7187,-7.7695,-7.8437,-7.9414,-8.0664,-8.1834,-8.1978,-8.1976,-8.1861,-8.1512,-8.1512,-8.1534,-8.1383,-8.1359,-8.1436,-8.1618,-8.1543,-8.1504,-8.1703,-8.1778,-8.168,-8.1512,-8.16,-8.1679,-8.1524,-8.1805,-8.2,-8.2056,-8.2218,-8.1953,-8.1094,-8.0234,-7.9687,-7.9687,-7.9101,-7.9062,-7.9883,-8.0781,-8.107,-8.0734,-8.1158,-8.0659,-7.9135,-7.7626,-7.7053,-7.7461,-7.8085,-7.8512,-7.8707,-8.0013,-8.1007,-7.3164,-7.2812,-7.2305,-7.2969,-7.2656,-7.207,-7.1758,0.0,-6.9219,-6.8242,0.0,0.0,0.0,0.0,0.0,0.0,0.0,0.0,0.0,0.0,0.0,0.0,0.0,0.0,-6.7734,-6.7226,-6.6758,-6.6758,-6.6758,-6.6367,-6.5508,-6.4648,-6.375,-6.289,-6.2109,-6.1719,-6.1719,-6.2578,-6.3476,-6.4453,-6.6094,-6.7422,-6.8359,-6.918,-6.9531,-6.9452,-6.9491,-6.9959,-7.0621,-7.0621,-7.117,-7.1951,-7.1875,-7.2941,-7.4569,-7.4687,-7.5781,-7.7187,-7.7187,-7.7187,-7.7187,-7.7187,-7.7265,-7.7656,-7.9219,-7.9844,-8.0272,-8.1627,-8.1873,-8.1664,-8.1458,-8.1298,-8.1137,-8.1131,-8.1271,-8.1418,-8.1414,-8.1553,-8.1749,-8.1948,-8.1971,-8.1894,-8.168,-8.1664,-8.1732,-8.1899,-8.1976,-8.2059,-8.2223,-8.2304,-8.1953,-8.1094,-8.0234,-7.9687,-7.9687,-7.9609,-7.9922,-8.0781,-8.1679,-8.2062,-8.182,-8.082,-7.9903,-7.9128,-7.817,-7.7872,-7.8359,-7.8213,-7.853,-7.9307,-8.0078,-8.0772,-7.3555,-7.3789,-7.3476,-7.332,-7.3398,-7.3242,-7.2226,-7.1445,-7.0859,-7.0469,0.0,0.0,0.0,0.0,0.0,0.0,-6.8203,0.0,0.0,0.0,0.0,0.0,0.0,0.0,-6.5976,-6.6055,-6.5937,-6.543,-6.5859,-6.5976,-6.5625,-6.4297,-6.3398,-6.3008,-6.2148,-6.1953,-6.2461,-6.3828,-6.4961,-6.582,-6.707,-6.7851,-6.8242,-6.9023,-6.914,-6.8789,-6.9726,-7.0351,-7.0703,-7.0703,-7.1211,-7.1992,-7.1908,-7.3003,-7.4609,-7.4609,-7.5703,-7.7187,-7.7187,-7.7187,-7.7187,-7.7187,-7.7851,-7.8789,-7.9492,-8.0307,-8.1131,-8.1683,-8.1664,-8.1491,-8.1285,-8.1137,-8.1093,-8.1093,-8.1152,-8.1298,-8.1514,-8.1662,-8.1773,-8.2118,-8.2173,-8.2168,-8.2062,-8.2056,-8.2049,-8.1992,-8.2113,-8.2218,-8.2304,-8.2304,-8.2148,-8.1797,-8.1445,-8.1211,-8.1211,-8.1211,-8.1367,-8.1719,-8.1981,-8.2049,-8.1844,-8.0699,-7.9953,-7.9708,-7.835,-7.8054,-7.8837,-7.8743,-7.9084,-7.9817,-8.0612,-8.1718,-7.332,0.0,-7.3789,-7.3398,-7.3789,-7.3906,-7.2656,-7.2187,-7.207,-7.2305,0.0,0.0,0.0,0.0,0.0,0.0,0.0,-7.0117,0.0,0.0,0.0,0.0,0.0,0.0,0.0,-6.5234,-6.5234,-6.4375,-6.5117,-6.5586,-6.5586,-6.418,-6.3359,-6.3359,-6.2265,-6.2109,-6.3008,-6.4726,-6.6055,-6.6914,-6.7773,-6.8203,-6.8242,-6.9062,-6.9101,-6.8633,-7.0312,-7.1055,-7.1055,-7.1055,-7.1445,-7.1992,-7.1992,-7.293,-7.4258,-7.4258,-7.5195,-7.6523,-7.6758,-7.6992,-7.7187,-7.7187,-7.8164,-7.9414,-7.9648,-8.0607,-8.1655,-8.17,-8.16,-8.1425,-8.1242,-8.1214,-8.1231,-8.121,-8.1228,-8.1361,-8.1653,-8.1725,-8.1883,-8.2222,-8.2304,-8.2304,-8.2304,-8.2304,-8.2263,-8.2115,-8.2218,-8.2304,-8.2304,-8.2304,-8.2383,-8.2617,-8.2422,-8.2383,-8.2656,-8.2422,-8.2304,-8.2304,-8.2349,-8.2289,-8.2077,-8.1261,-8.0671,-8.0454,-7.9033,-7.8669,-7.9447,-7.9398,-7.9855,-8.0814,-8.1243,-8.2164,0.0,0.0,0.0,-7.3086,-7.332,-7.332,-7.3281,-7.2617,-7.2226,-7.3086,-7.125,0.0,0.0,0.0,0.0,0.0,0.0,0.0,0.0,0.0,0.0,0.0,0.0,0.0,0.0,-6.5586,-6.5234,-6.4375,-6.5117,-6.5586,-6.5586,-6.4765,-6.4258,-6.4258,-6.2578,-6.2109,-6.3008,-6.4726,-6.6055,-6.6914,-6.7773,-6.8203,-6.8242,-6.9101,-6.9492,-6.9531,-7.1211,-7.1953,-7.1953,-7.1953,-7.1953,-7.1992,-7.1992,-7.2539,-7.3359,-7.3359,-7.3906,-7.4805,-7.5664,-7.6484,-7.7187,-7.7187,-7.7812,-7.8672,-7.9453,-8.0178,-8.0874,-8.1506,-8.1719,-8.1623,-8.1436,-8.1524,-8.1645,-8.1425,-8.1534,-8.1664,-8.168,-8.1861,-8.2056,-8.2264,-8.2304,-8.2304,-8.2304,-8.2304,-8.2304,-8.2304,-8.2304,-8.2304,-8.2304,-8.2304,-8.2617,-8.3476,-8.2812,-8.2656,-8.3476,-8.2773,-8.2304,-8.2304,-8.2896,-8.3176,-8.2964,-8.2686,-8.2131,-8.1383,-8.0493,-8.0144,-8.0349,-8.0154,-8.0903,-8.2491,-8.1959,-8.1639,0.0,0.0,-7.1367,-7.2226,0.0,0.0,0.0,0.0,0.0,0.0,0.0,0.0,0.0,0.0,0.0,0.0,0.0,0.0,0.0,0.0,0.0,0.0,0.0,0.0,0.0,0.0,0.0,-6.3476,-6.3164,-6.3515,-6.4687,-6.3906,-6.3711,-6.4297,-6.3164,-6.2969,-6.3867,-6.5586,-6.7187,-6.8555,-6.8867,-6.9297,-6.9844,-6.9609,-6.9805,-7.0351,-7.1484,-7.1992,-7.1992,-7.1992,-7.1992,-7.1992,-7.1992,-7.2187,-7.25,-7.3086,-7.4219,-7.5586,-7.6445,-7.6953,-7.7187,-7.7187,-7.7773,-7.8633,-7.9453,-8.0068,-8.0669,-8.1469,-8.1618,-8.1501,-8.1441,-8.1447,-8.1501,-8.143,-8.1447,-8.1534,-8.1656,-8.1861,-8.2059,-8.2264,-8.2304,-8.2304,-8.2304,-8.2304,-8.2304,-8.2304,-8.2304,-8.2304,-8.2304,-8.2812,-8.3281,-8.3554,-8.4375,-8.4531,-8.3672,-8.2812,-8.2539,-8.3125,-8.3248,-8.3449,-8.3781,-8.3568,-8.327,-8.2868,-8.202,-8.1884,-8.2509,-8.1884,-8.1866,-8.2381,-8.2504,-8.2526,-7.1406,-7.1601,0.0,-7.2226,-7.289,0.0,-7.3672,0.0,-7.4844,0.0,0.0,0.0,0.0,0.0,0.0,0.0,0.0,0.0,0.0,-6.8672,0.0,0.0,0.0,0.0,0.0,0.0,-6.3086,-6.2148,-6.2148,-6.2539,0.0,-6.3437,-6.3594,-6.3828,-6.3594,-6.3711,-6.4297,-6.6328,-6.8047,-6.9453,-6.9726,-7.0156,-7.0664,-7.0156,-7.0195,-7.0742,-7.1601,-7.1992,-7.1992,-7.1992,-7.1992,-7.1992,-7.1992,-7.1992,-7.207,-7.2617,-7.375,-7.5117,-7.5976,-7.6484,-7.6797,-7.7109,-7.7969,-7.9023,-7.9531,-8.0305,-8.1039,-8.1273,-8.1462,-8.1541,-8.123,-8.1445,-8.168,-8.1645,-8.1618,-8.1662,-8.1799,-8.1899,-8.2059,-8.2264,-8.2304,-8.2304,-8.2304,-8.2304,-8.2304,-8.2304,-8.2304,-8.2422,-8.2734,-8.3242,-8.3828,-8.4453,-8.5547,-8.5625,-8.4179,-8.3242,-8.3008,-8.3554,-8.3884,-8.4247,-8.4637,-8.4398,-8.4469,-8.4956,-8.3516,-8.3324,-8.4478,-8.3324,-8.2747,-8.2763,-8.2919,-8.2987]},{"header":{"parameterUnit":"m.s-1","parameterCategory":1,"la1":30.6,"la2":29.2853,"lo1":-89.7004,"lo2":-87.6739,"dx":0.0162,"dy":0.0183,"nx":112,"ny":82,"refTime":"2023-02-21T18:00:00:Z","depth":0,"parameterNumber":3,"parameterNumberName":"V-component_of_WINDS"},"data":[0.0,0.0,0.0,0.0,0.0,0.0,0.0,0.0,0.0,0.0,0.0,0.0,0.0,0.0,0.0,0.0,0.0,0.0,0.0,0.0,0.0,0.0,0.0,0.0,0.0,0.0,0.0,0.0,0.0,0.0,0.0,0.0,0.0,0.0,0.0,0.0,0.0,0.0,0.0,0.0,0.0,0.0,0.0,0.0,0.0,0.0,0.0,0.0,0.0,0.0,0.0,0.0,0.0,0.0,0.0,0.0,0.0,0.0,0.0,0.0,0.0,0.0,0.0,0.0,0.0,0.0,0.0,0.0,0.0,0.0,0.0,0.0,0.0,0.0,0.0,0.0,0.0,0.0,0.0,0.0,0.0,0.0,0.0,0.0,0.0,0.0,0.0,0.0,0.0,0.0,0.0,0.0,0.0,0.0,0.0,0.0,0.0,0.0,0.0,0.0,0.0,0.0,0.0,0.0,0.0,0.0,0.0,0.0,0.0,0.0,0.0,0.0,0.0,0.0,0.0,0.0,0.0,0.0,0.0,0.0,0.0,0.0,0.0,0.0,0.0,0.0,0.0,0.0,0.0,0.0,0.0,0.0,0.0,0.0,0.0,0.0,0.0,0.0,0.0,0.0,0.0,0.0,0.0,0.0,0.0,0.0,0.0,0.0,0.0,0.0,0.0,0.0,0.0,0.0,0.0,0.0,0.0,0.0,0.0,0.0,0.0,0.0,0.0,0.0,0.0,0.0,0.0,0.0,0.0,0.0,0.0,0.0,0.0,0.0,0.0,0.0,0.0,0.0,0.0,0.0,0.0,0.0,0.0,0.0,0.0,0.0,0.0,0.0,0.0,0.0,0.0,0.0,0.0,0.0,0.0,0.0,0.0,0.0,0.0,0.0,0.0,0.0,0.0,0.0,0.0,0.0,0.0,0.0,0.0,0.0,0.0,0.0,0.0,0.0,0.0,0.0,0.0,0.0,0.0,0.0,0.0,0.0,0.0,0.0,0.0,0.0,0.0,0.0,0.0,0.0,0.0,0.0,0.0,0.0,0.0,0.0,0.0,0.0,0.0,0.0,0.0,0.0,0.0,0.0,0.0,0.0,0.0,0.0,0.0,0.0,0.0,0.0,0.0,0.0,0.0,0.0,0.0,0.0,0.0,0.0,0.0,0.0,0.0,0.0,0.0,0.0,0.0,0.0,0.0,0.0,0.0,0.0,0.0,0.0,0.0,0.0,0.0,0.0,0.0,0.0,0.0,0.0,0.0,0.0,0.0,0.0,0.0,0.0,0.0,0.0,0.0,0.0,0.0,0.0,0.0,0.0,0.0,0.0,0.0,0.0,0.0,0.0,0.0,0.0,0.0,0.0,0.0,0.0,0.0,0.0,0.0,0.0,0.0,0.0,0.0,0.0,0.0,0.0,0.0,0.0,0.0,0.0,0.0,0.0,0.0,0.0,0.0,0.0,0.0,0.0,0.0,0.0,0.0,0.0,0.0,0.0,0.0,0.0,0.0,0.0,0.0,0.0,0.0,0.0,0.0,0.0,0.0,0.0,0.0,0.0,0.0,0.0,0.0,0.0,0.0,0.0,0.0,0.0,0.0,0.0,0.0,0.0,0.0,0.0,0.0,0.0,0.0,0.0,0.0,0.0,0.0,0.0,0.0,0.0,0.0,0.0,0.0,0.0,0.0,0.0,0.0,0.0,0.0,0.0,0.0,0.0,0.0,0.0,0.0,0.0,0.0,0.0,0.0,0.0,0.0,0.0,0.0,0.0,0.0,0.0,0.0,0.0,0.0,0.0,0.0,0.0,0.0,0.0,0.0,0.0,0.0,0.0,0.0,0.0,0.0,0.0,0.0,0.0,0.0,0.0,0.0,0.0,0.0,0.0,0.0,0.0,0.0,0.0,0.0,0.0,0.0,0.0,0.0,0.0,0.0,0.0,0.0,0.0,0.0,0.0,0.0,0.0,0.0,0.0,0.0,0.0,0.0,0.0,0.0,0.0,0.0,0.0,0.0,0.0,0.0,0.0,0.0,0.0,0.0,0.0,0.0,0.0,0.0,0.0,0.0,0.0,0.0,0.0,0.0,0.0,0.0,0.0,0.0,0.0,0.0,0.0,0.0,0.0,0.0,0.0,0.0,0.0,0.0,0.0,0.0,0.0,0.0,0.0,0.0,0.0,0.0,0.0,0.0,0.0,0.0,0.0,0.0,0.0,0.0,0.0,0.0,0.0,0.0,0.0,0.0,0.0,0.0,0.0,0.0,0.0,0.0,0.0,0.0,0.0,0.0,0.0,0.0,0.0,0.0,0.0,0.0,0.0,0.0,0.0,0.0,0.0,0.0,0.0,0.0,0.0,0.0,0.0,0.0,0.0,0.0,0.0,0.0,0.0,0.0,0.0,0.0,0.0,0.0,0.0,0.0,0.0,0.0,0.0,0.0,0.0,0.0,0.0,0.0,0.0,0.0,0.0,0.0,0.0,0.0,0.0,0.0,0.0,0.0,0.0,0.0,0.0,0.0,0.0,0.0,0.0,0.0,0.0,0.0,0.0,0.0,0.0,0.0,0.0,0.0,0.0,0.0,0.0,0.0,0.0,0.0,0.0,0.0,0.0,0.0,0.0,0.0,0.0,0.0,0.0,0.0,0.0,0.0,0.0,0.0,0.0,0.0,0.0,0.0,0.0,0.0,0.0,0.0,0.0,0.0,0.0,0.0,0.0,0.0,0.0,0.0,0.0,0.0,0.0,0.0,0.0,0.0,0.0,0.0,0.0,0.0,0.0,0.0,0.0,0.0,0.0,0.0,0.0,0.0,0.0,0.0,0.0,0.0,0.0,0.0,0.0,0.0,0.0,0.0,0.0,0.0,0.0,0.0,0.0,0.0,0.0,0.0,0.0,0.0,0.0,0.0,0.0,0.0,0.0,0.0,0.0,0.0,0.0,0.0,0.0,0.0,0.0,0.0,0.0,0.0,0.0,0.0,0.0,0.0,0.0,0.0,0.0,0.0,0.0,0.0,0.0,0.0,0.0,0.0,0.0,0.0,0.0,0.0,0.0,0.0,0.0,0.0,0.0,0.0,0.0,0.0,0.0,0.0,0.0,0.0,0.0,0.0,0.0,0.0,0.0,0.0,0.0,0.0,0.0,0.0,0.0,0.0,0.0,0.0,0.0,0.0,0.0,0.0,0.0,0.0,0.0,0.0,0.0,0.0,0.0,0.0,0.0,0.0,0.0,0.0,0.0,0.0,0.0,0.0,0.0,0.0,0.0,0.0,0.0,0.0,0.0,0.0,0.0,0.0,0.0,0.0,0.0,0.0,0.0,0.0,0.0,0.0,0.0,0.0,0.0,0.0,0.0,0.0,0.0,0.0,0.0,0.0,0.0,0.0,0.0,0.0,0.0,0.0,0.0,0.0,0.0,0.0,0.0,0.0,0.0,0.0,0.0,0.0,0.0,0.0,0.0,0.0,0.0,0.0,0.0,0.0,0.0,0.0,0.0,0.0,0.0,0.0,0.0,0.0,0.0,0.0,0.0,0.0,0.0,0.0,0.0,0.0,0.0,0.0,0.0,0.0,0.0,0.0,0.0,0.0,0.0,0.0,0.0,0.0,0.0,0.0,0.0,0.0,0.0,0.0,0.0,0.0,0.0,0.0,0.0,0.0,0.0,0.0,0.0,0.0,0.0,0.0,0.0,0.0,0.0,0.0,0.0,0.0,0.0,0.0,0.0,0.0,0.0,0.0,0.0,0.0,0.0,0.0,0.0,0.0,0.0,0.0,0.0,0.0,0.0,0.0,0.0,0.0,0.0,0.0,0.0,0.0,0.0,0.0,0.0,0.0,0.0,0.0,0.0,0.0,0.0,0.0,0.0,0.0,0.0,0.0,0.0,0.0,0.0,0.0,0.0,0.0,0.0,0.0,0.0,0.0,0.0,0.0,0.0,0.0,0.0,0.0,0.0,0.0,0.0,0.0,0.0,0.0,0.0,0.0,0.0,0.0,0.0,0.0,0.0,0.0,0.0,0.0,0.0,0.0,0.0,0.0,0.0,0.0,0.0,0.0,0.0,0.0,0.0,0.0,0.0,0.0,0.0,0.0,0.0,0.0,0.0,0.0,0.0,0.0,0.0,0.0,0.0,0.0,0.0,0.0,0.0,0.0,0.0,0.0,0.0,0.0,0.0,0.0,0.0,0.0,0.0,0.0,0.0,0.0,0.0,0.0,0.0,0.0,0.0,0.0,0.0,0.0,0.0,0.0,0.0,0.0,0.0,0.0,0.0,0.0,0.0,0.0,0.0,0.0,0.0,0.0,0.0,0.0,0.0,0.0,0.0,0.0,0.0,0.0,0.0,0.0,0.0,0.0,0.0,0.0,0.0,0.0,0.0,0.0,0.0,0.0,0.0,0.0,0.0,0.0,0.0,0.0,0.0,0.0,0.0,0.0,0.0,0.0,0.0,0.0,0.0,0.0,0.0,0.0,0.0,0.0,0.0,0.0,0.0,0.0,0.0,0.0,0.0,0.0,0.0,0.0,0.0,0.0,0.0,0.0,0.0,0.0,0.0,0.0,0.0,0.0,0.0,0.0,0.0,0.0,0.0,0.0,0.0,0.0,0.0,0.0,0.0,0.0,0.0,0.0,0.0,0.0,0.0,0.0,0.0,0.0,0.0,0.0,0.0,0.0,0.0,0.0,0.0,0.0,0.0,0.0,0.0,0.0,0.0,0.0,0.0,0.0,0.0,0.0,0.0,0.0,0.0,0.0,0.0,0.0,0.0,0.0,0.0,0.0,0.0,0.0,0.0,0.0,0.0,0.0,0.0,0.0,0.0,0.0,0.0,0.0,0.0,0.0,0.0,0.0,0.0,0.0,0.0,0.0,0.0,0.0,0.0,0.0,0.0,0.0,0.0,0.0,0.0,0.0,0.0,0.0,0.0,0.0,0.0,0.0,0.0,0.0,0.0,0.0,0.0,0.0,0.0,0.0,0.0,0.0,0.0,0.0,0.0,0.0,0.0,0.0,0.0,0.0,0.0,0.0,0.0,0.0,0.0,0.0,0.0,0.0,0.0,0.0,0.0,0.0,0.0,0.0,0.0,0.0,0.0,0.0,0.0,0.0,0.0,0.0,0.0,0.0,0.0,0.0,0.0,0.0,0.0,0.0,0.0,0.0,0.0,0.0,0.0,0.0,0.0,0.0,0.0,0.0,0.0,0.0,0.0,0.0,0.0,0.0,0.0,0.0,0.0,0.0,0.0,0.0,0.0,0.0,0.0,0.0,0.0,0.0,0.0,0.0,0.0,0.0,0.0,0.0,0.0,0.0,0.0,0.0,0.0,0.0,0.0,0.0,0.0,0.0,0.0,0.0,0.0,0.0,0.0,0.0,0.0,0.0,0.0,0.0,0.0,0.0,0.0,0.0,0.0,0.0,0.0,0.0,0.0,0.0,0.0,0.0,0.0,0.0,0.0,0.0,0.0,0.0,0.0,0.0,0.0,0.0,0.0,0.0,0.0,0.0,0.0,0.0,0.0,0.0,0.0,0.0,0.0,0.0,0.0,0.0,0.0,0.0,0.0,0.0,0.0,0.0,0.0,0.0,0.0,0.0,0.0,0.0,0.0,0.0,0.0,0.0,0.0,0.0,0.0,0.0,0.0,0.0,0.0,0.0,0.0,-0.3658,-0.463,0.0,0.0,0.0,0.0,0.0,0.0,0.0,0.0,0.0,0.0,0.0,0.0,0.0,0.0,0.0,0.0,0.0,0.0,0.0,0.0,0.0,0.0,0.0,0.0,0.0,0.0,0.0,0.0,0.0,0.0,0.0,0.0,0.0,0.0,0.0,0.0,0.0,0.0,0.0,0.0,0.0,0.0,0.0,0.0,0.0,0.0,0.0,0.0,0.0,0.0,0.0,0.0,0.0,0.0,0.0,0.0,0.0,0.0,0.0,0.0,0.0,0.0,0.0,0.0,0.0,0.0,0.0,0.0,0.0,0.0,0.0,0.0,0.0,0.0,0.0,0.0,0.0,0.0,0.0,0.0,0.0,0.0,0.0,0.0,0.0,0.0,0.0,0.0,0.0,0.0,0.0,0.0,0.0,0.0,0.0,0.0,0.0,0.0,0.0,0.0,0.0,0.0,0.0,0.0,0.0,0.0,0.0,0.0,0.0,0.0,-0.1501,-0.2582,0.0,0.0,0.0,0.0,0.0,0.0,0.0,0.0,0.0,0.0,0.0,0.0,0.0,0.0,0.0,0.0,0.0,0.0,0.0,0.0,0.0,0.0,0.0,0.0,0.0,0.0,0.0,0.0,0.0,0.0,0.0,0.0,0.0,0.0,0.0,0.0,0.0,0.0,0.0,0.0,0.0,0.0,0.0,0.0,0.0,0.0,0.0,0.0,0.0,0.0,0.0,0.0,0.0,0.0,0.0,0.0,0.0,0.0,0.0,0.0,0.0,0.0,0.0,0.0,0.0,0.0,0.0,0.0,0.0,0.0,0.0,0.0,0.0,0.0,0.0,0.0,0.0,0.0,0.0,0.0,0.0,0.0,0.0,0.0,0.0,0.0,0.0,0.0,0.0,0.0,0.0,0.0,0.0,0.0,0.0,0.0,0.0,0.0,0.0,0.0,0.0,0.0,0.0,0.0,0.0,0.0,0.0,0.0,0.0,0.0,0.0,-0.0906,-0.2401,-0.2727,0.0,0.0,0.0,0.0,0.0,0.0,0.0,0.0,0.0,0.0,0.0,0.0,0.0,0.0,0.0,0.0,0.0,0.0,0.0,0.0,0.0,0.0,0.0,0.0,0.0,0.0,0.0,0.0,0.0,0.0,0.0,0.0,0.0,0.0,0.0,0.0,0.0,0.0,0.0,0.0,0.0,0.0,0.0,0.0,0.0,0.0,0.0,0.0,0.0,0.0,0.0,0.0,0.0,0.0,0.0,0.0,0.0,0.0,0.0,0.0,0.0,0.0,0.0,0.0,0.0,0.0,0.0,0.0,0.0,0.0,0.0,0.0,0.0,0.0,0.0,0.0,0.0,0.0,0.0,0.0,0.0,0.0,-0.8742,-1.0551,0.0,0.0,0.0,0.0,0.0,0.0,0.0,0.0,0.0,0.0,0.0,0.0,0.0,0.0,0.0,0.0,0.0,0.0,0.0,0.0,0.0,0.0,0.0,0.0,0.0,0.0,-0.0543,-0.2236,0.0,0.0,0.0,0.0,0.0,0.0,0.0,0.0,0.0,0.0,0.0,0.0,0.0,0.0,0.0,0.0,0.0,0.0,0.0,0.0,0.0,0.0,0.0,0.0,0.0,0.0,0.0,0.0,0.0,0.0,0.0,0.0,0.0,0.0,0.0,0.0,0.0,0.0,0.0,0.0,0.0,0.0,0.0,0.0,0.0,0.0,0.0,0.0,0.0,0.0,0.0,0.0,0.0,0.0,0.0,0.0,0.0,0.0,0.0,0.0,0.0,0.0,0.0,0.0,0.0,0.0,0.0,0.0,0.0,0.0,0.0,0.0,0.0,0.0,0.0,0.0,0.0,0.0,0.0,0.0,0.0,-0.5197,-0.7599,-0.9018,-1.0562,-1.1396,0.0,0.0,0.0,0.0,0.0,0.0,0.0,0.0,0.0,-0.1196,-0.0434,0.0,0.0,0.0,0.0,0.0,0.0,0.0,0.0,0.0,0.0,0.0,0.0,0.0,-0.0083,-0.0898,-0.1276,-0.1324,0.0,0.0,0.0,0.0,0.0,-0.017,-0.1091,-0.1438,-0.1625,-0.2596,0.0,0.0,0.0,0.0,0.0,0.0,0.0,0.0,0.0,0.0,0.0,0.0,0.0,0.0,0.0,0.0,0.0,0.0,0.0,0.0,0.0,0.0,0.0,0.0,0.0,0.0,0.0,0.0,0.0,0.0,0.0,0.0,0.0,0.0,0.0,0.0,0.0,0.0,0.0,0.0,0.0,0.0,0.0,0.0,0.0,0.0,0.0,0.0,0.0,0.0,0.0,0.0,0.0,0.0,0.0,0.0,0.0,0.0,0.0,0.0,0.0,0.0,0.0,0.0,0.0,0.0,0.0,0.0,0.0,-0.5198,-0.7224,-0.8523,-1.0348,-1.1396,0.0,0.0,0.0,0.0,0.0,0.0,-0.2207,-0.1981,-0.1381,-0.0075,0.0,0.0,0.0,0.0,0.0,0.0,0.0,0.0,0.0,0.0,0.0,0.0,0.0,0.0,0.0,0.0,0.0,0.0,0.0,0.0,0.0,0.0,0.0,0.0,0.0,0.0,0.0,0.0,0.0,0.0,0.0,0.0,0.0,0.0,0.0,0.0,0.0,0.0,0.0,0.0,0.0,0.0,0.0,0.0,0.0,0.0,0.0,0.0,0.0,0.0,0.0,0.0,0.0,0.0,0.0,0.0,0.0,0.0,0.0,0.0,0.0,0.0,0.0,0.0,0.0,0.0,0.0,0.0,0.0,0.0,0.0,0.0,0.0,0.0,0.0,0.0,0.0,0.0,0.0,0.0,0.0,0.0,0.0,0.0,0.0,0.0,0.0,0.0,0.0,0.0,0.0,0.0,0.0,0.0,0.0,0.0,0.0,0.0,0.0,-1.0241,-1.0968,0.0,0.0,0.0,0.0,-0.6022,-0.5808,-0.4204,-0.037,-0.0152,-0.0078,0.0,0.0,0.0,0.0,0.0,0.0,0.0,0.0,0.0,0.0,0.0,0.0,0.0,0.0,0.0,0.0,0.0,0.0,0.0,0.0,0.0,0.0,0.0,0.0,0.0,0.0,0.0,0.0,0.0,0.0,0.0,0.0,0.0,0.0,0.0,0.0,0.0,0.0,0.0,0.0,0.0,0.0,0.0,0.0,0.0,0.0,0.0,0.0,0.0,0.0,0.0,0.0,0.0,0.0,0.0,0.0,0.0,0.0,0.0,0.0,0.0,0.0,0.0,0.0,0.0,0.0,0.0,0.0,0.0,0.0,0.0,0.0,0.0,0.0,0.0,0.0,0.0,0.0,0.0,0.0,0.0,0.0,0.0,0.0,0.0,0.0,0.0,0.0,0.0,0.0,0.0,0.0,0.0,0.0,0.0,0.0,0.0,0.0,0.0,0.0,-0.9416,-1.1241,0.0,-1.1714,-1.0395,-0.8499,-0.5918,-0.4489,-0.26,-0.0156,0.0,0.0,0.0,0.0,0.0,0.0,0.0,0.0,0.0,0.0,0.0,0.0,0.0,0.0,0.0,0.0,0.0,0.0,0.0,0.0,0.0,0.0,0.0,0.0,0.0,0.0,0.0,0.0,0.0,0.0,0.0,0.0,0.0,0.0,0.0,0.0,0.0,0.0,0.0,0.0,0.0,0.0,0.0,0.0,0.0,0.0,0.0,0.0,0.0,0.0,0.0,0.0,0.0,0.0,0.0,0.0,0.0,0.0,0.0,0.0,0.0,0.0,0.0,0.0,0.0,0.0,0.0,0.0,0.0,0.0,0.0,0.0,0.0,0.0,0.0,0.0,0.0,0.0,0.0,0.0,0.0,0.0,0.0,0.0,0.0,0.0,0.0,0.0,0.0,0.0,0.0,0.0,0.0,0.0,0.0,0.0,0.0,0.0,0.0,0.0,0.0,-1.0208,-1.0197,-1.1856,-1.2786,-1.2332,-1.0862,-0.8851,-0.6187,-0.4688,-0.2724,-0.0164,0.0,0.0,0.0,0.0,0.0,0.0,0.0,0.0,0.0,0.0,0.0,0.0,0.0,0.0,0.0,0.0,0.0,0.0,0.0,0.0,0.0,0.0,0.0,0.0,0.0,0.0,0.0,0.0,0.0,0.0,0.0,0.0,0.0,0.0,0.0,0.0,0.0,0.0,0.0,0.0,0.0,0.0,0.0,0.0,0.0,0.0,0.0,0.0,0.0,0.0,0.0,0.0,0.0,0.0,0.0,0.0,0.0,0.0,0.0,0.0,0.0,0.0,0.0,0.0,0.0,0.0,0.0,0.0,0.0,0.0,0.0,0.0,0.0,0.0,0.0,0.0,0.0,0.0,0.0,0.0,0.0,0.0,0.0,0.0,0.0,0.0,0.0,0.0,0.0,0.0,0.0,0.0,0.0,0.0,0.0,0.0,0.0,0.0,0.0,-0.8925,-1.1121,-1.2745,-1.2759,-1.2901,-1.2942,-1.2793,-1.2487,-1.069,-0.664,-0.6298,-0.4494,-0.0261,0.0,0.0,0.0,0.0,0.0,0.0,0.0,0.0,0.0,0.0,0.0,0.0,0.0,0.0,0.0,0.0,0.0,0.0,0.0,0.0,0.0,0.0,0.0,0.0,0.0,0.0,0.0,0.0,0.0,0.0,0.0,0.0,0.0,0.0,0.0,0.0,0.0,0.0,0.0,0.0,0.0,0.0,0.0,0.0,0.0,0.0,0.0,0.0,0.0,0.0,0.0,0.0,0.0,0.0,0.0,0.0,0.0,0.0,0.0,0.0,0.0,0.0,0.0,0.0,0.0,0.0,0.0,0.0,0.0,0.0,0.0,0.0,0.0,0.0,0.0,0.0,0.0,0.0,0.0,0.0,0.0,0.0,0.0,0.0,0.0,0.0,0.0,0.0,0.0,0.0,0.0,0.0,0.0,0.0,0.0,0.0,0.0,0.0,-0.9617,-1.1027,-1.2205,-1.3017,-1.3342,-1.3709,-1.3919,-1.3871,-1.0623,-0.8101,-0.6795,-0.3666,-0.1237,-0.0089,0.0,0.0,0.0,0.0,0.0,0.0,0.0,0.0,0.0,0.0,0.0,0.0,0.0,0.0,0.0,0.0,0.0,0.0,0.0,0.0,0.0,0.0,0.0,0.0,0.0,0.0,0.0,0.0,0.0,0.0,0.0,0.0,0.0,0.0,0.0,0.0,0.0,0.0,0.0,0.0,0.0,0.0,0.0,0.0,0.0,0.0,0.0,0.0,0.0,0.0,0.0,0.0,0.0,0.0,0.0,0.0,0.0,0.0,0.0,0.0,0.0,0.0,0.0,0.0,0.0,0.0,0.0,0.0,0.0,0.0,0.0,0.0,0.0,0.0,0.0,0.0,0.0,0.0,0.0,0.0,0.0,0.0,0.0,0.0,0.0,0.0,0.0,0.0,0.0,0.0,0.0,0.0,0.0,0.0,0.0,0.0,0.0,-1.0173,-1.1415,-1.2635,-1.3105,-1.3498,-1.3946,-1.4285,-1.4462,-1.4394,-1.0962,-0.8234,-0.7085,-0.3568,-0.1076,-0.009,0.0,0.0,0.0,0.0,0.0,0.0,0.0,0.0,0.0,0.0,0.0,0.0,0.0,0.0,0.0,0.0,0.0,0.0,0.0,0.0,0.0,0.0,0.0,0.0,0.0,0.0,0.0,0.0,0.0,0.0,0.0,0.0,0.0,0.0,0.0,0.0,0.0,0.0,0.0,0.0,0.0,0.0,0.0,0.0,0.0,0.0,0.0,0.0,0.0,0.0,0.0,0.0,0.0,0.0,0.0,0.0,0.0,0.0,0.0,0.0,0.0,0.0,0.0,0.0,0.0,0.0,0.0,0.0,0.0,0.0,0.0,0.0,0.0,0.0,0.0,0.0,0.0,0.0,0.0,0.0,0.0,0.0,0.0,0.0,0.0,0.0,0.0,0.0,0.0,0.0,0.0,0.0,0.0,0.0,0.0,0.0,0.0,-1.1725,-1.3403,-1.3851,-1.3946,-1.4116,-1.4516,-1.4652,-1.4665,-1.455,-1.2051,-0.9554,-0.7242,-0.4651,-0.224,-0.009,0.0,0.0,0.0,0.0,0.0,0.0,0.0,0.0,0.0,0.0,0.0,0.0,0.0,0.0,0.0,0.0,0.0,0.0,0.0,0.0,0.0,0.0,0.0,0.0,0.0,0.0,0.0,0.0,0.0,0.0,0.0,0.0,0.0,0.0,0.0,0.0,0.0,0.0,0.0,0.0,0.0,0.0,0.0,0.0,0.0,0.0,0.0,0.0,0.0,0.0,-0.007,-0.0276,-0.0344,-0.0205,0.0,-0.0202,-0.0202,0.0,0.0,0.0,0.0,0.0,0.0,0.0,0.0,0.0,0.0,0.0,0.0,0.0,0.0,0.0,0.0,0.0,0.0,0.0,0.0,0.0,0.0,0.0,0.0,0.0,0.0,0.0,0.0,0.0,0.0,0.0,0.0,0.0,0.0,0.0,0.0,0.0,0.0,0.0,-1.22,-1.3055,-1.3865,-1.4319,-1.4597,-1.4787,-1.4869,-1.4685,-1.459,-1.4685,-1.049,-0.761,-0.7149,-0.3134,-0.0449,0.0,0.0,0.0,0.0,0.0,0.0,0.0,0.0,0.0,0.0,0.0,0.0,0.0,0.0,0.0,0.0,0.0,0.0,0.0,0.0,0.0,0.0,0.0,0.0,0.0,0.0,0.0,0.0,0.0,0.0,0.0,0.0,0.0,0.0,0.0,0.0,0.0,0.0,0.0,0.0,0.0,0.0,0.0,0.0,0.0,0.0,0.0,0.0,0.0,0.0,0.0,-0.0503,-0.2101,-0.228,-0.1707,-0.0202,-0.121,-0.1672,-0.0199,0.0,0.0,0.0,0.0,0.0,0.0,0.0,0.0,0.0,0.0,0.0,0.0,0.0,0.0,0.0,0.0,0.0,0.0,0.0,0.0,0.0,0.0,0.0,0.0,0.0,0.0,0.0,0.0,0.0,0.0,0.0,0.0,0.0,0.0,-1.0361,0.0,0.0,-1.2766,-1.322,-1.3729,-1.4177,-1.4468,-1.4774,-1.4943,-1.4862,-1.3767,-1.3418,-1.445,-0.9054,-0.5934,-0.706,-0.2687,0.0,0.0,0.0,0.0,0.0,0.0,0.0,0.0,0.0,0.0,0.0,0.0,0.0,0.0,0.0,0.0,0.0,0.0,0.0,0.0,0.0,0.0,0.0,0.0,0.0,0.0,0.0,0.0,0.0,0.0,0.0,0.0,0.0,0.0,0.0,0.0,0.0,0.0,0.0,0.0,0.0,0.0,0.0,0.0,0.0,0.0,0.0,0.0,0.0,0.0,0.0,0.0,-0.0652,-0.2552,-0.3579,-0.3815,-0.2923,-0.278,-0.2431,-0.1465,-0.0592,0.0,0.0,0.0,0.0,0.0,0.0,0.0,0.0,0.0,0.0,0.0,0.0,0.0,0.0,0.0,0.0,0.0,0.0,0.0,0.0,0.0,0.0,0.0,0.0,0.0,0.0,0.0,0.0,0.0,0.0,-0.6785,-0.8755,-1.079,-1.2162,-1.2345,-1.2935,-1.3458,-1.3641,-1.4075,-1.4428,-1.4536,-1.4821,-1.4943,-1.476,-1.3174,-1.2495,-1.3713,-0.8148,-0.4965,-0.635,-0.2418,0.0,0.0,0.0,0.0,0.0,0.0,0.0,0.0,0.0,0.0,0.0,0.0,0.0,0.0,0.0,0.0,0.0,0.0,0.0,0.0,0.0,0.0,0.0,0.0,0.0,0.0,0.0,0.0,0.0,0.0,0.0,0.0,0.0,0.0,0.0,0.0,0.0,0.0,0.0,0.0,0.0,0.0,0.0,0.0,0.0,0.0,0.0,0.0,0.0,0.0,0.0,-0.0293,-0.1165,-0.3156,-0.5003,-0.6085,-0.5632,-0.4379,-0.3269,-0.2747,-0.1126,0.0,0.0,0.0,0.0,0.0,0.0,0.0,0.0,0.0,0.0,0.0,0.0,0.0,0.0,0.0,0.0,0.0,0.0,0.0,0.0,0.0,0.0,-0.0325,-0.0128,0.0,0.0,-0.1237,-0.295,0.0,0.0,-0.9013,-1.1203,-1.2046,-1.2352,-1.263,-1.3078,-1.3492,-1.377,-1.4306,-1.4699,-1.4713,-1.497,-1.5052,-1.4774,-1.4479,-1.3497,-1.1522,-0.8542,-0.5996,-0.4116,-0.1524,0.0,0.0,0.0,0.0,0.0,0.0,0.0,0.0,0.0,0.0,0.0,0.0,0.0,0.0,0.0,0.0,0.0,0.0,0.0,0.0,0.0,0.0,0.0,0.0,0.0,0.0,0.0,0.0,0.0,0.0,0.0,0.0,0.0,0.0,0.0,0.0,0.0,0.0,0.0,0.0,0.0,0.0,0.0,0.0,0.0,0.0,0.0,0.0,0.0,0.0,0.0,-0.1408,-0.3167,-0.5156,-0.7094,-0.7718,-0.5845,-0.5403,-0.4676,-0.2907,-0.112,0.0,0.0,0.0,0.0,0.0,0.0,0.0,0.0,0.0,0.0,0.0,0.0,0.0,0.0,0.0,0.0,0.0,0.0,0.0,0.0,0.0,0.0,0.0,-0.0746,0.0,0.0,-0.3245,-0.5211,-0.748,-0.8706,-0.9936,-1.2198,-1.284,-1.3132,-1.3336,-1.3675,-1.3994,0.0,-1.4516,-1.474,-1.474,-1.4923,-1.4916,-1.4529,-1.4557,-1.3546,-1.1062,-0.7345,-0.4651,-0.3669,-0.1345,0.0,0.0,0.0,0.0,0.0,0.0,0.0,0.0,0.0,0.0,0.0,0.0,0.0,0.0,0.0,0.0,0.0,0.0,0.0,0.0,0.0,0.0,0.0,0.0,0.0,0.0,0.0,0.0,0.0,0.0,0.0,0.0,0.0,0.0,0.0,0.0,0.0,0.0,0.0,0.0,0.0,0.0,0.0,0.0,0.0,0.0,0.0,0.0,-0.0985,-0.1801,-0.1801,-0.3446,-0.5438,-0.728,-0.829,-0.8853,-0.8927,-0.7091,-0.543,-0.4515,-0.1793,0.0,0.0,0.0,0.0,0.0,0.0,0.0,0.0,0.0,0.0,0.0,0.0,0.0,0.0,0.0,0.0,0.0,0.0,0.0,0.0,0.0,0.0,0.0,0.0,0.0,-0.3169,-0.5159,-0.7491,-0.9304,-1.0258,-1.1195,-1.2942,-1.3526,-1.3797,-1.3939,-1.415,-1.4346,-1.4489,-1.4638,-1.474,-1.474,-1.4835,-1.4557,-1.3483,-1.3932,-1.3123,-1.0009,-0.6589,-0.4295,-0.3669,-0.1345,0.0,0.0,0.0,0.0,0.0,0.0,0.0,0.0,0.0,0.0,0.0,0.0,0.0,0.0,0.0,0.0,0.0,0.0,0.0,0.0,0.0,0.0,0.0,0.0,0.0,0.0,0.0,0.0,0.0,0.0,0.0,0.0,0.0,0.0,0.0,0.0,0.0,0.0,0.0,0.0,0.0,0.0,0.0,0.0,0.0,0.0,-0.0155,-0.0694,-0.2065,-0.3264,-0.3871,-0.5594,-0.7431,-0.8671,-0.9291,-0.987,-1.0547,-0.7898,-0.5771,-0.5646,-0.2354,0.0,0.0,0.0,0.0,0.0,0.0,0.0,0.0,0.0,0.0,0.0,0.0,0.0,0.0,0.0,0.0,0.0,0.0,0.0,0.0,0.0,0.0,0.0,0.0,-0.3388,-0.3578,-0.6578,-0.9633,-1.0351,-1.183,-1.3322,-1.3919,-1.4048,-1.4102,-1.4258,-1.4292,-1.4346,-1.4489,-1.4638,-1.474,-1.474,-1.4746,-1.3758,-1.1302,-1.2638,-1.2122,0.0,-0.7061,-0.6079,-0.3759,-0.1345,0.0,0.0,0.0,0.0,0.0,0.0,0.0,0.0,0.0,0.0,0.0,0.0,0.0,0.0,0.0,0.0,0.0,0.0,0.0,0.0,0.0,0.0,0.0,0.0,0.0,0.0,0.0,0.0,0.0,0.0,0.0,0.0,0.0,0.0,0.0,0.0,0.0,0.0,0.0,0.0,0.0,0.0,0.0,0.0,0.0,0.0,-0.0547,-0.2547,-0.3077,-0.369,-0.5832,-0.7599,-0.8855,-0.8892,-1.0323,-1.0894,-0.9059,-0.7093,-0.5723,-0.565,-0.232,0.0,0.0,0.0,0.0,0.0,0.0,0.0,0.0,0.0,0.0,0.0,0.0,0.0,0.0,0.0,0.0,0.0,0.0,0.0,0.0,0.0,0.0,0.0,0.0,-0.5726,-0.7606,-1.0042,-1.2071,-1.2554,-1.3265,-1.3824,-1.4027,-1.3756,-1.3492,-1.3539,-1.3478,-1.3526,-1.3871,-1.2869,-1.2153,-1.2323,-1.0952,-0.9531,-0.8474,-0.8983,0.0,0.0,0.0,0.0,-0.3755,-0.1345,0.0,0.0,0.0,0.0,0.0,0.0,0.0,0.0,0.0,0.0,0.0,0.0,0.0,0.0,0.0,0.0,0.0,0.0,0.0,0.0,0.0,0.0,0.0,0.0,0.0,0.0,0.0,0.0,0.0,0.0,0.0,0.0,0.0,0.0,0.0,0.0,0.0,0.0,0.0,0.0,0.0,0.0,0.0,0.0,0.0,0.0,-0.0555,-0.2681,-0.4224,-0.5829,-0.792,-0.9845,-1.1101,-1.1033,-1.0375,-0.8692,-0.5385,-0.4309,-0.3404,-0.2047,-0.0811,0.0,0.0,0.0,0.0,0.0,0.0,0.0,0.0,0.0,0.0,0.0,0.0,0.0,0.0,0.0,0.0,0.0,0.0,0.0,0.0,0.0,0.0,0.0,-0.5617,-0.817,-0.9967,-1.1961,-1.358,-1.3926,-1.4041,-1.4027,-1.3865,-1.3437,-1.3051,-1.2888,-1.2739,-1.2807,-1.3308,-1.1646,-1.0472,-1.0919,-0.8848,-0.6958,-0.5992,-0.6422,-0.6563,0.0,0.0,0.0,-0.3732,-0.1342,0.0,0.0,0.0,0.0,0.0,0.0,0.0,0.0,0.0,0.0,0.0,0.0,0.0,0.0,0.0,0.0,0.0,0.0,0.0,0.0,0.0,0.0,0.0,0.0,0.0,0.0,0.0,0.0,0.0,0.0,0.0,0.0,0.0,0.0,0.0,0.0,0.0,0.0,0.0,0.0,0.0,0.0,0.0,0.0,0.0,-0.0571,-0.1685,-0.3827,-0.5912,-0.805,-1.0075,-1.1415,-1.195,-1.1164,-0.8691,-0.5908,-0.3288,-0.2328,-0.139,-0.0136,0.0,0.0,0.0,0.0,0.0,0.0,0.0,0.0,0.0,0.0,0.0,0.0,0.0,0.0,0.0,0.0,0.0,0.0,0.0,0.0,0.0,0.0,0.0,-0.3896,-0.7077,-1.0395,-1.0829,-1.2478,-1.4122,-1.4258,-1.4156,-1.3912,-1.3471,-1.3105,-1.2745,0.0,0.0,-1.2306,-1.2847,-1.1183,-0.9927,-1.0304,-0.8375,-0.607,0.0,0.0,0.0,0.0,0.0,0.0,-0.3431,0.0,0.0,0.0,0.0,0.0,0.0,0.0,0.0,0.0,0.0,0.0,0.0,0.0,0.0,0.0,0.0,0.0,0.0,0.0,0.0,0.0,0.0,0.0,0.0,0.0,0.0,0.0,0.0,0.0,0.0,0.0,0.0,0.0,0.0,0.0,0.0,0.0,0.0,0.0,0.0,0.0,0.0,0.0,-0.0084,-0.0168,-0.0166,-0.1803,-0.3878,-0.5992,-0.8041,-0.9998,-1.2108,-1.2188,-1.1301,-0.9244,-0.5529,-0.2895,-0.2788,-0.1202,0.0,0.0,0.0,0.0,0.0,0.0,0.0,0.0,0.0,0.0,0.0,0.0,0.0,0.0,0.0,0.0,0.0,0.0,0.0,0.0,0.0,0.0,0.0,0.0,0.0,-0.8194,-0.966,-1.1039,-1.2898,-1.3826,-1.4224,-1.415,-1.3838,-1.3478,-1.3146,-1.2298,-1.1653,0.0,0.0,0.0,-1.2657,-1.1265,0.0,-0.8152,-0.599,0.0,-0.1219,0.0,-0.1481,-0.0946,-0.0869,0.0,0.0,-0.0354,0.0,0.0,0.0,0.0,0.0,0.0,0.0,0.0,0.0,0.0,0.0,0.0,0.0,0.0,0.0,0.0,0.0,0.0,0.0,0.0,0.0,0.0,0.0,0.0,0.0,0.0,0.0,0.0,0.0,0.0,0.0,0.0,0.0,0.0,0.0,0.0,0.0,0.0,0.0,0.0,0.0,0.0,-0.1185,-0.246,-0.2515,-0.4112,-0.623,-0.8308,-0.912,-0.9998,-1.2108,-1.1106,-0.8756,-0.5146,-0.3648,-0.2398,-0.0943,-0.0287,0.0,0.0,0.0,0.0,0.0,0.0,0.0,0.0,0.0,0.0,0.0,0.0,0.0,0.0,0.0,0.0,0.0,0.0,0.0,0.0,0.0,0.0,0.0,0.0,0.0,-1.0116,-1.1345,-1.2507,-1.3973,-1.4251,-1.4109,-1.3756,-1.3383,-1.2929,-1.2305,-1.1531,0.0,0.0,0.0,0.0,0.0,0.0,0.0,-0.7003,-0.4081,-0.1512,0.0,0.0,0.0,0.0,0.0,0.0,0.0,0.0,0.0,0.0,0.0,0.0,0.0,0.0,0.0,0.0,0.0,0.0,0.0,0.0,0.0,0.0,0.0,0.0,0.0,0.0,0.0,0.0,0.0,0.0,0.0,0.0,0.0,0.0,0.0,0.0,0.0,0.0,0.0,0.0,0.0,0.0,0.0,0.0,0.0,0.0,0.0,0.0,0.0,0.0,-0.1605,-0.3299,-0.3363,-0.5684,-0.8186,-0.945,-1.0283,-1.0821,-1.1015,-0.9348,-0.6876,-0.3504,-0.2183,-0.1239,-0.0146,0.0,0.0,0.0,0.0,0.0,0.0,0.0,0.0,0.0,0.0,0.0,0.0,0.0,0.0,0.0,0.0,0.0,0.0,0.0,0.0,0.0,0.0,0.0,0.0,0.0,0.0,-1.1093,-1.2619,-1.419,-1.4299,-1.4183,-1.3885,-1.3281,-1.2854,-1.2305,-1.1335,0.0,-1.0104,-0.8355,-0.93,-1.0227,-0.9714,0.0,-0.6125,-0.6702,-0.3132,-0.0351,0.0,0.0,0.0,0.0,0.0,0.0,0.0,0.0,0.0,0.0,0.0,0.0,0.0,0.0,0.0,0.0,0.0,0.0,0.0,0.0,0.0,0.0,0.0,0.0,0.0,0.0,0.0,0.0,0.0,0.0,0.0,0.0,0.0,0.0,0.0,0.0,0.0,0.0,0.0,0.0,0.0,0.0,0.0,0.0,0.0,0.0,0.0,0.0,-0.0085,-0.0338,-0.2103,-0.3868,-0.4195,-0.7252,-1.0087,-1.0264,-1.1225,-1.1432,-0.9252,-0.7248,-0.5176,-0.2929,-0.1095,0.0,0.0,0.0,0.0,0.0,0.0,0.0,0.0,0.0,0.0,0.0,0.0,0.0,0.0,0.0,0.0,0.0,0.0,0.0,0.0,0.0,0.0,0.0,0.0,0.0,0.0,0.0,0.0,-1.3526,-1.4127,-1.4597,-1.4502,-1.4177,-1.3722,-1.3132,-1.2386,0.0,0.0,0.0,-1.0136,-1.0182,-1.0445,0.0,-1.19,0.0,0.0,0.0,0.0,-0.2209,0.0,0.0,0.0,0.0,0.0,0.0,0.0,0.0,0.0,0.0,0.0,0.0,0.0,0.0,0.0,0.0,0.0,0.0,0.0,0.0,0.0,0.0,0.0,0.0,0.0,0.0,0.0,0.0,0.0,0.0,0.0,0.0,0.0,0.0,0.0,0.0,0.0,0.0,0.0,0.0,0.0,0.0,0.0,0.0,0.0,0.0,0.0,0.0,-0.0427,-0.236,-0.4476,-0.6609,-0.8474,-1.0771,-1.2563,-1.2589,-1.1302,-0.9448,-0.7225,-0.5131,-0.2969,-0.0893,-0.0222,0.0,0.0,0.0,0.0,0.0,0.0,0.0,0.0,0.0,0.0,0.0,0.0,0.0,0.0,0.0,0.0,0.0,0.0,0.0,0.0,0.0,0.0,0.0,0.0,0.0,0.0,0.0,0.0,-1.455,-1.4753,-1.4821,-1.4665,-1.4116,-1.3417,-1.2664,0.0,0.0,0.0,0.0,-0.9709,-0.9084,0.0,0.0,0.0,0.0,0.0,0.0,0.0,0.0,0.0,0.0,0.0,0.0,0.0,0.0,0.0,0.0,0.0,0.0,0.0,0.0,0.0,0.0,0.0,0.0,0.0,0.0,0.0,0.0,0.0,0.0,0.0,0.0,0.0,0.0,0.0,0.0,0.0,0.0,0.0,0.0,0.0,0.0,0.0,0.0,0.0,0.0,0.0,0.0,0.0,0.0,0.0,0.0,0.0,0.0,0.0,-0.0859,-0.2046,-0.3032,-0.5888,-0.868,-0.9805,-1.1753,-1.2975,-1.1609,-1.0467,-0.8669,-0.5331,-0.3769,-0.245,-0.0376,0.0,0.0,0.0,0.0,0.0,0.0,0.0,0.0,0.0,0.0,0.0,0.0,0.0,0.0,0.0,0.0,0.0,0.0,0.0,0.0,0.0,0.0,0.0,0.0,0.0,0.0,0.0,0.0,0.0,-1.4889,-1.4991,-1.4977,-1.4828,-1.4068,-1.3125,-1.2257,-1.143,0.0,0.0,-0.9849,-0.9481,-0.8239,0.0,0.0,0.0,0.0,0.0,0.0,0.0,0.0,0.0,0.0,0.0,0.0,0.0,0.0,0.0,0.0,0.0,0.0,0.0,0.0,0.0,0.0,0.0,0.0,0.0,0.0,0.0,0.0,0.0,0.0,0.0,0.0,0.0,0.0,0.0,0.0,0.0,0.0,0.0,0.0,0.0,0.0,0.0,0.0,0.0,0.0,0.0,0.0,0.0,0.0,0.0,0.0,0.0,-0.0088,-0.061,-0.1978,-0.3564,-0.4539,-0.7368,-1.0128,-1.0715,-1.2139,-1.2699,-1.0211,-0.9407,-0.7932,-0.3884,-0.2705,-0.1926,-0.0305,0.0,0.0,0.0,0.0,0.0,0.0,0.0,0.0,0.0,0.0,0.0,0.0,0.0,0.0,0.0,0.0,0.0,0.0,0.0,0.0,0.0,0.0,0.0,0.0,0.0,0.0,0.0,0.0,0.0,-1.4889,-1.5065,-1.5126,-1.4984,-1.4061,-1.2996,-1.2237,0.0,0.0,0.0,-0.9869,-1.0011,-1.0039,-1.0128,0.0,0.0,0.0,0.0,0.0,0.0,0.0,0.0,0.0,0.0,0.0,0.0,0.0,0.0,0.0,0.0,0.0,0.0,0.0,0.0,0.0,0.0,0.0,0.0,0.0,0.0,0.0,0.0,0.0,0.0,0.0,0.0,0.0,0.0,0.0,0.0,0.0,0.0,0.0,0.0,0.0,0.0,0.0,0.0,0.0,0.0,0.0,0.0,0.0,0.0,0.0,0.0,-0.0435,-0.2429,-0.316,-0.4283,-0.8373,-0.9711,-1.0544,-1.2561,-1.3231,-1.2732,-1.0308,-0.8326,-0.6187,-0.3611,-0.1565,-0.0234,0.0,0.0,0.0,0.0,0.0,0.0,0.0,0.0,0.0,0.0,0.0,0.0,0.0,0.0,0.0,0.0,0.0,0.0,0.0,0.0,0.0,0.0,0.0,0.0,0.0,0.0,0.0,0.0,0.0,0.0,-1.5079,-1.5343,-1.5398,-1.516,-1.4061,-1.2629,-1.0981,0.0,0.0,-0.7127,-0.7749,-0.858,-0.8643,-0.8827,-0.9221,0.0,0.0,0.0,0.0,0.0,0.0,0.0,0.0,0.0,0.0,0.0,0.0,0.0,0.0,0.0,0.0,0.0,0.0,0.0,0.0,0.0,0.0,0.0,0.0,0.0,0.0,0.0,0.0,0.0,0.0,0.0,0.0,0.0,0.0,0.0,0.0,0.0,0.0,0.0,0.0,0.0,0.0,0.0,0.0,0.0,0.0,0.0,0.0,-0.0269,-0.1703,-0.2128,-0.2624,-0.4858,-0.6505,-0.7941,-0.9559,-1.1048,-1.233,-1.3261,-1.3464,-1.2421,-0.8861,-0.7321,-0.5629,-0.1968,-0.0549,0.0,0.0,0.0,0.0,0.0,0.0,0.0,0.0,0.0,0.0,0.0,0.0,0.0,0.0,0.0,0.0,0.0,0.0,0.0,0.0,0.0,0.0,0.0,0.0,0.0,0.0,0.0,0.0,0.0,0.0,0.0,-1.4889,-1.5255,-1.5391,-1.5174,-1.368,-1.1757,0.0,0.0,0.0,-0.5168,-0.5942,-0.7019,-0.7542,-0.7837,-0.8403,0.0,0.0,0.0,0.0,0.0,0.0,0.0,0.0,0.0,0.0,0.0,0.0,0.0,0.0,0.0,0.0,0.0,0.0,0.0,0.0,0.0,0.0,0.0,0.0,0.0,0.0,0.0,0.0,0.0,0.0,0.0,0.0,0.0,0.0,0.0,0.0,0.0,0.0,0.0,0.0,0.0,0.0,0.0,0.0,0.0,0.0,0.0,0.0,-0.0449,-0.2866,-0.3643,-0.422,-0.7143,-0.9573,-1.1272,-1.1182,-1.2315,-1.3498,-1.36,-1.3512,-1.2173,-0.7807,-0.6756,-0.5394,-0.0871,0.0,0.0,0.0,0.0,0.0,0.0,0.0,0.0,0.0,0.0,0.0,0.0,0.0,0.0,0.0,0.0,0.0,0.0,0.0,0.0,0.0,0.0,0.0,0.0,0.0,0.0,0.0,0.0,0.0,0.0,0.0,0.0,-1.415,-1.4638,-1.4977,-1.4977,-1.2644,-1.0231,0.0,0.0,0.0,-0.4926,-0.5013,-0.5704,-0.7476,-0.7893,-0.803,-0.803,0.0,0.0,0.0,0.0,0.0,0.0,0.0,0.0,0.0,0.0,0.0,0.0,0.0,0.0,0.0,0.0,0.0,0.0,0.0,0.0,0.0,0.0,0.0,0.0,0.0,0.0,0.0,0.0,0.0,0.0,0.0,0.0,0.0,0.0,0.0,0.0,0.0,0.0,0.0,0.0,0.0,0.0,0.0,0.0,0.0,0.0,0.0,-0.0449,-0.2866,-0.3643,-0.4577,-0.9136,-1.2032,-1.3752,-1.3752,-1.3644,-1.3627,-1.3627,-1.3512,-1.2148,-0.7645,-0.6718,-0.5408,-0.0881,0.0,0.0,0.0,0.0,0.0,0.0,0.0,0.0,0.0,0.0,0.0,0.0,0.0,0.0,0.0,0.0,0.0,0.0,0.0,0.0,0.0,0.0,0.0,0.0,0.0,0.0,0.0,0.0,0.0,0.0,0.0,0.0,-1.322,-1.3559,-1.3461,-1.2083,-1.0627,-0.8835,-0.6137,0.0,0.0,0.0,-0.2547,-0.4018,-0.5848,-0.7268,-0.8674,-1.0097,0.0,0.0,0.0,0.0,0.0,0.0,0.0,0.0,0.0,0.0,0.0,0.0,0.0,0.0,0.0,0.0,0.0,0.0,0.0,0.0,0.0,0.0,0.0,0.0,0.0,0.0,0.0,0.0,0.0,0.0,0.0,0.0,0.0,0.0,0.0,0.0,0.0,0.0,0.0,0.0,0.0,0.0,0.0,0.0,0.0,0.0,0.0,-0.0718,-0.474,-0.5976,-0.6925,-1.1625,-1.3348,-1.3838,-1.3838,-1.3804,-1.3797,-1.3905,-1.381,-1.2445,-0.7985,-0.6915,-0.5443,-0.0893,0.0,0.0,0.0,0.0,0.0,0.0,0.0,0.0,0.0,0.0,0.0,0.0,0.0,0.0,0.0,0.0,0.0,0.0,0.0,0.0,0.0,0.0,0.0,0.0,0.0,0.0,0.0,0.0,0.0,0.0,0.0,-0.0727,0.0,-1.2324,-1.1678,-1.0467,-0.864,0.0,0.0,0.0,0.0,0.0,0.0,0.0,-0.4955,-0.6409,-0.8053,0.0,0.0,0.0,0.0,0.0,0.0,0.0,0.0,0.0,0.0,0.0,0.0,0.0,0.0,0.0,0.0,0.0,0.0,0.0,0.0,0.0,0.0,0.0,0.0,0.0,0.0,0.0,0.0,0.0,0.0,0.0,0.0,0.0,0.0,0.0,0.0,0.0,0.0,0.0,0.0,0.0,0.0,0.0,0.0,0.0,0.0,0.0,-0.0628,-0.224,-0.7057,-0.9108,-1.0436,-1.338,-1.4089,-1.4014,-1.4014,-1.3926,-1.3878,-1.4034,-1.3871,-1.2452,-0.7961,-0.6878,-0.5474,-0.0903,0.0,0.0,0.0,0.0,0.0,0.0,0.0,0.0,0.0,0.0,0.0,0.0,0.0,0.0,0.0,0.0,0.0,0.0,0.0,0.0,0.0,0.0,0.0,0.0,0.0,0.0,0.0,0.0,0.0,0.0,-0.0742,-0.1775,0.0,0.0,0.0,0.0,0.0,0.0,0.0,0.0,0.0,0.0,0.0,0.0,0.0,0.0,0.0,0.0,0.0,0.0,0.0,0.0,0.0,0.0,0.0,0.0,0.0,0.0,0.0,0.0,0.0,0.0,0.0,0.0,0.0,0.0,0.0,0.0,0.0,0.0,0.0,0.0,0.0,0.0,0.0,0.0,0.0,0.0,0.0,0.0,0.0,0.0,0.0,0.0,0.0,0.0,0.0,0.0,0.0,0.0,0.0,0.0,0.0,-0.0179,-0.1971,-0.4919,-0.9375,-1.2237,-1.4122,-1.421,-1.4299,-1.4299,-1.4299,-1.4082,-1.3892,-1.4041,-1.3658,-1.1998,-0.7797,-0.6656,-0.5204,-0.0828,0.0,0.0,0.0,0.0,0.0,0.0,0.0,0.0,0.0,0.0,0.0,0.0,0.0,0.0,0.0,0.0,0.0,0.0,0.0,0.0,0.0,0.0,0.0,0.0,0.0,0.0,0.0,0.0,-0.0067,-0.027,-0.2077,-0.3083,0.0,0.0,0.0,0.0,0.0,0.0,0.0,0.0,0.0,0.0,0.0,0.0,0.0,0.0,0.0,0.0,0.0,0.0,0.0,0.0,0.0,0.0,0.0,0.0,0.0,0.0,0.0,0.0,0.0,0.0,0.0,0.0,0.0,0.0,0.0,0.0,0.0,0.0,0.0,0.0,0.0,0.0,0.0,0.0,0.0,0.0,0.0,0.0,0.0,0.0,0.0,0.0,0.0,0.0,0.0,0.0,0.0,0.0,0.0,0.0,-0.0269,-0.215,-0.5633,-0.9197,-1.0357,-1.1072,-1.1971,-1.3761,-1.4299,-1.4299,-1.4299,-1.4156,-1.4027,-1.4061,-1.2595,-1.0359,-0.7558,-0.5504,-0.3461,-0.0588,0.0,0.0,0.0,0.0,0.0,0.0,0.0,0.0,0.0,0.0,0.0,0.0,0.0,0.0,0.0,0.0,0.0,0.0,0.0,0.0,0.0,0.0,0.0,0.0,0.0,0.0,0.0,0.0,-0.0764,-0.2219,-0.2677,-0.4466,0.0,0.0,0.0,0.0,0.0,0.0,0.0,0.0,0.0,0.0,0.0,0.0,0.0,0.0,0.0,0.0,0.0,0.0,0.0,0.0,0.0,0.0,0.0,0.0,0.0,0.0,0.0,0.0,0.0,0.0,0.0,0.0,0.0,0.0,0.0,0.0,0.0,0.0,0.0,0.0,0.0,0.0,0.0,0.0,0.0,0.0,0.0,0.0,0.0,0.0,0.0,0.0,0.0,0.0,0.0,0.0,0.0,0.0,0.0,-0.0718,-0.224,-0.5722,-0.8575,-1.0895,-1.2059,-1.2325,-1.2597,-1.3938,-1.4299,-1.4285,-1.4211,-1.4082,-1.37,-1.265,-1.1378,-0.9371,-0.613,-0.4414,-0.2791,-0.0421,0.0,0.0,0.0,0.0,0.0,0.0,0.0,0.0,0.0,0.0,0.0,0.0,0.0,0.0,0.0,0.0,0.0,0.0,0.0,0.0,0.0,0.0,0.0,0.0,0.0,0.0,0.0,-0.0916,-0.1837,-0.2964,-0.4712,-0.6674,0.0,0.0,0.0,0.0,0.0,0.0,0.0,0.0,0.0,0.0,0.0,0.0,0.0,-0.2261,0.0,0.0,0.0,0.0,0.0,0.0,0.0,0.0,0.0,0.0,0.0,0.0,0.0,0.0,0.0,0.0,0.0,0.0,0.0,0.0,0.0,0.0,0.0,0.0,0.0,0.0,0.0,0.0,0.0,0.0,0.0,0.0,0.0,0.0,0.0,0.0,0.0,0.0,0.0,0.0,0.0,0.0,0.0,0.0,0.0,-0.1793,-0.4829,-0.8842,-1.0629,-1.161,-1.3673,-1.4299,-1.4299,-1.4299,-1.4299,-1.4272,-1.4143,-1.3973,-1.3231,-1.1069,-1.0038,-0.8478,-0.4411,-0.3126,-0.2268,-0.0337,0.0,0.0,0.0,0.0,0.0,0.0,0.0,0.0,0.0,0.0,0.0,0.0,0.0,0.0,0.0,0.0,0.0,0.0,0.0,0.0,0.0,0.0,0.0,0.0,0.0,-0.0141,-0.0423,-0.2063,-0.322,-0.387,-0.7149,-0.8858,-0.17,-0.061,-0.0737,-0.2183,-0.1265,0.0,0.0,0.0,0.0,0.0,0.0,0.0,0.0,-0.0404,-0.1024,0.0,0.0,-0.3159,0.0,0.0,0.0,0.0,0.0,0.0,0.0,0.0,0.0,0.0,0.0,0.0,0.0,0.0,0.0,0.0,0.0,0.0,0.0,0.0,0.0,0.0,0.0,0.0,0.0,0.0,0.0,0.0,0.0,0.0,0.0,0.0,0.0,0.0,0.0,0.0,0.0,0.0,0.0,0.0,0.0,-0.2866,-0.6704,-0.7413,-1.0446,-1.385,-1.421,-1.4299,-1.4299,-1.4299,-1.4299,-1.4292,-1.4272,-1.4055,-1.3231,-1.1069,-0.8848,-0.6536,-0.3952,-0.1851,-0.0421,-0.0084,0.0,0.0,0.0,0.0,0.0,0.0,0.0,0.0,0.0,0.0,0.0,0.0,0.0,0.0,0.0,0.0,0.0,0.0,0.0,0.0,0.0,0.0,0.0,0.0,0.0,-0.0788,-0.2458,-0.2752,-0.466,-0.8012,-0.8449,-0.963,-0.0684,0.0,-0.0204,-0.0953,-0.0542,0.0,0.0,0.0,0.0,0.0,0.0,0.0,0.0,0.0,-0.0284,-0.1093,0.0,-0.1277,-0.1449,-0.0603,0.0,0.0,0.0,0.0,0.0,0.0,0.0,0.0,0.0,0.0,0.0,0.0,0.0,0.0,0.0,0.0,0.0,0.0,0.0,0.0,0.0,0.0,0.0,0.0,0.0,0.0,0.0,0.0,0.0,0.0,0.0,0.0,0.0,0.0,0.0,0.0,0.0,-0.0179,-0.1524,-0.3401,-0.5454,-0.6704,-0.9464,-1.2325,-1.2325,-1.3312,-1.4299,-1.4299,-1.4299,-1.4278,-1.4197,-1.3097,-1.141,-0.9094,-0.6699,-0.4261,-0.2038,-0.0764,0.0,0.0,0.0,0.0,0.0,0.0,0.0,0.0,0.0,0.0,0.0,0.0,0.0,0.0,0.0,0.0,0.0,0.0,0.0,0.0,0.0,0.0,0.0,0.0,0.0,0.0,-0.1014,-0.2026,-0.2909,-0.5116,-0.706,-0.895,-1.0064,-1.0957,-0.0481,0.0,0.0,0.0,0.0,0.0,0.0,0.0,0.0,0.0,0.0,0.0,0.0,0.0,0.0,0.0,0.0,0.0,0.0,0.0,0.0,0.0,0.0,0.0,0.0,0.0,0.0,0.0,0.0,0.0,0.0,0.0,0.0,0.0,0.0,0.0,0.0,0.0,0.0,0.0,0.0,0.0,0.0,0.0,0.0,0.0,0.0,0.0,0.0,0.0,0.0,0.0,0.0,0.0,0.0,0.0,0.0,-0.0269,-0.215,-0.3134,-0.3938,-0.5722,-0.7859,-0.9824,-0.9824,-1.1522,-1.3489,-1.3489,-1.385,-1.4272,-1.4156,-1.233,-0.9908,-0.7483,-0.5118,-0.2682,-0.0516,0.0,0.0,0.0,0.0,0.0,0.0,0.0,0.0,0.0,0.0,0.0,0.0,0.0,0.0,0.0,0.0,0.0,0.0,0.0,0.0,0.0,0.0,0.0,0.0,0.0,-0.0223,-0.0736,-0.2203,-0.3447,-0.4397,-0.7465,-0.9208,-0.9656,-1.1292,-1.1945,-0.0488,0.0,0.0,0.0,0.0,0.0,0.0,0.0,0.0,0.0,0.0,0.0,0.0,0.0,0.0,0.0,0.0,0.0,0.0,0.0,0.0,0.0,0.0,0.0,0.0,0.0,0.0,0.0,0.0,0.0,0.0,0.0,0.0,0.0,0.0,0.0,0.0,0.0,0.0,0.0,0.0,0.0,0.0,0.0,0.0,0.0,0.0,0.0,0.0,0.0,0.0,0.0,0.0,0.0,0.0,0.0,0.0,0.0,-0.0179,-0.1703,-0.3669,-0.3759,-0.5454,-0.7324,-0.7324,-0.9019,-1.0984,-1.0984,-1.2591,-1.4299,-1.4285,-1.2402,-0.9927,-0.764,-0.5145,-0.2688,-0.0521,0.0,0.0,0.0,0.0,0.0,0.0,0.0,0.0,0.0,0.0,0.0,0.0,0.0,0.0,0.0,0.0,0.0,0.0,0.0,0.0,0.0,0.0,0.0,0.0,0.0,-0.0907,-0.2864,-0.3014,-0.4965,-0.8711,-0.902,-1.0076,-1.1891,-1.1837,-1.1843,-0.021,0.0,0.0,0.0,0.0,0.0,0.0,0.0,0.0,0.0,0.0,0.0,0.0,0.0,0.0,0.0,0.0,0.0,0.0,0.0,0.0,0.0,0.0,0.0,0.0,0.0,0.0,0.0,0.0,0.0,0.0,0.0,0.0,0.0,0.0,0.0,0.0,0.0,0.0,0.0,0.0,0.0,0.0,0.0,0.0,0.0,0.0,0.0,0.0,0.0,0.0,0.0,0.0,0.0,0.0,0.0,0.0,0.0,0.0,-0.0628,-0.1345,-0.1345,-0.2955,-0.4919,-0.4919,-0.7595,-1.0717,-1.0717,-1.1344,-1.2059,-1.2059,-1.0239,-0.7814,-0.5509,-0.3017,-0.1061,-0.0176,0.0,0.0,0.0,0.0,0.0,0.0,0.0,0.0,0.0,0.0,0.0,0.0,0.0,0.0,0.0,0.0,0.0,0.0,0.0,0.0,0.0,0.0,0.0,0.0,0.0,-0.0992,-0.3023,-0.4301,-0.633,-0.9185,-1.0474,-1.151,-1.2203,-1.2142,-1.2067,0.0,0.0,0.0,0.0,0.0,0.0,0.0,0.0,0.0,0.0,0.0,0.0,0.0,0.0,0.0,0.0,0.0,0.0,0.0,0.0,0.0,0.0,0.0,0.0,0.0,0.0,0.0,0.0,0.0,0.0,0.0,0.0,0.0,0.0,0.0,0.0,0.0,0.0,0.0,0.0,0.0,0.0,0.0,0.0,0.0,0.0,0.0,0.0,0.0,0.0,0.0,0.0,0.0,0.0,0.0,0.0,0.0,0.0,0.0,0.0,0.0,0.0,-0.1076,-0.2418,-0.2418,-0.5811,-0.938,-0.8664,-0.9557,-1.0357,-0.8842,-0.7235,-0.5633,-0.3938,-0.1793,0.0,0.0,0.0,0.0,0.0,0.0,0.0,0.0,0.0,0.0,0.0,0.0,0.0,0.0,0.0,0.0,0.0,0.0,0.0,0.0,0.0,0.0,0.0,-0.0638,-0.0706,0.0,-0.062,-0.1928,-0.4047,-0.6025,-0.8152,-1.0283,-1.1682,-1.2311,-1.2216,-1.2216,-1.2115,0.0,0.0,0.0,0.0,0.0,0.0,0.0,0.0,0.0,0.0,0.0,0.0,0.0,0.0,0.0,0.0,0.0,0.0,0.0,0.0,0.0,0.0,0.0,0.0,0.0,0.0,0.0,0.0,0.0,0.0,0.0,0.0,0.0,0.0,0.0,0.0,0.0,0.0,0.0,0.0,0.0,0.0,0.0,0.0,0.0,0.0,0.0,0.0,0.0,0.0,0.0,0.0,0.0,0.0,0.0,0.0,0.0,0.0,0.0,0.0,0.0,0.0,0.0,0.0,0.0,-0.3312,-0.6611,-0.4293,-0.6968,-0.9557,-0.4829,-0.358,-0.358,-0.358,-0.1703,0.0,0.0,0.0,0.0,0.0,0.0,0.0,0.0,0.0,0.0,0.0,0.0,0.0,0.0,0.0,0.0,0.0,0.0,0.0,0.0,0.0,0.0,0.0,-0.1927,-0.2142,-0.0079,-0.2037,-0.4146,-0.6254,-0.8361,-1.0391,-1.2501,-1.2501,-1.2352,-1.2067,-1.206,-1.1904,0.0,0.0,0.0,0.0,0.0,0.0,0.0,0.0,0.0,0.0,0.0,0.0,0.0,0.0,0.0,0.0,0.0,0.0,0.0,0.0,0.0,0.0,0.0,0.0,0.0,0.0,0.0,0.0,0.0,0.0,0.0,0.0,0.0,0.0,0.0,0.0,0.0,0.0,0.0,0.0,0.0,0.0,0.0,0.0,0.0,0.0,0.0,0.0,0.0,0.0,0.0,0.0,0.0,0.0,0.0,0.0,0.0,0.0,0.0,0.0,0.0,0.0,0.0,0.0,0.0,-0.3312,-0.6611,-0.4293,-0.5811,-0.7502,-0.4383,-0.233,-0.1076,-0.1076,-0.0538,0.0,0.0,0.0,0.0,0.0,0.0,0.0,0.0,0.0,0.0,0.0,0.0,0.0,0.0,0.0,0.0,0.0,0.0,0.0,0.0,0.0,-0.0661,-0.2301,-0.2925,-0.2958,-0.2195,-0.4224,-0.6332,-0.8439,-0.9061,-1.0391,-1.2501,-1.2501,-1.2454,-1.2366,-1.2155,-1.2013,0.0,0.0,0.0,0.0,0.0,0.0,0.0,0.0,0.0,0.0,0.0,0.0,0.0,0.0,0.0,0.0,0.0,0.0,0.0,0.0,0.0,0.0,0.0,0.0,0.0,0.0,0.0,0.0,0.0,0.0,0.0,0.0,0.0,0.0,0.0,0.0,0.0,0.0,0.0,0.0,0.0,0.0,0.0,0.0,0.0,0.0,0.0,0.0,0.0,0.0,0.0,0.0,0.0,0.0,0.0,0.0,0.0,0.0,0.0,0.0,0.0,0.0,0.0,0.0,0.0,-0.2687,-0.5186,-0.2866,-0.3848,-0.5186,-0.2776,-0.1076,0.0,0.0,0.0,0.0,0.0,0.0,0.0,0.0,0.0,0.0,0.0,0.0,0.0,0.0,0.0,0.0,0.0,0.0,0.0,0.0,0.0,0.0,0.0,-0.0836,-0.191,-0.3302,-0.4995,-0.582,-0.5789,-0.6975,-0.8317,-0.9504,-1.0381,-1.1384,-1.2589,-1.2589,-1.2528,-1.2413,-1.2237,-1.2121,0.0,0.0,0.0,0.0,0.0,0.0,0.0,0.0,0.0,0.0,0.0,0.0,0.0,0.0,0.0,0.0,0.0,0.0,0.0,0.0,0.0,0.0,0.0,0.0,0.0,0.0,0.0,0.0,0.0,0.0,0.0,0.0,0.0,0.0,0.0,0.0,0.0,0.0,0.0,0.0,0.0,0.0,0.0,0.0,0.0,0.0,0.0,0.0,0.0,0.0,0.0,0.0,0.0,0.0,0.0,0.0,0.0,0.0,0.0,0.0,0.0,0.0,0.0,0.0,0.0,-0.1703,-0.3134,-0.0718,-0.1703,-0.3045,-0.0628,0.0,0.0,0.0,0.0,0.0,0.0,0.0,0.0,0.0,0.0,0.0,0.0,0.0,0.0,0.0,0.0,0.0,0.0,0.0,0.0,0.0,0.0,0.0,0.0,-0.2016,-0.3427,-0.372,-0.7585,-0.9922,-1.0147,-1.0121,-1.011,-1.011,-1.1968,-1.2868,-1.2732,-1.2718,-1.2569,-1.2311,-1.2298,-1.2216,0.0,0.0,0.0,0.0,0.0,0.0,0.0,0.0,0.0,0.0,0.0,0.0,0.0,0.0,0.0,0.0,0.0,0.0,0.0,0.0,0.0,0.0,0.0,0.0,0.0,0.0,0.0,0.0,0.0,0.0,0.0,0.0,0.0,0.0,0.0,0.0,0.0,0.0,0.0,0.0,0.0,0.0,0.0,0.0,0.0,0.0,0.0,0.0,0.0,0.0,0.0,0.0,0.0,0.0,0.0,0.0,0.0,0.0,0.0,0.0,0.0,0.0,0.0,0.0,0.0,-0.1703,-0.3134,-0.0718,-0.1703,-0.3045,-0.0628,0.0,0.0,0.0,0.0,0.0,0.0,0.0,0.0,0.0,0.0,0.0,0.0,0.0,0.0,0.0,0.0,0.0,0.0,0.0,0.0,0.0,0.0,0.0,0.0,-0.2016,-0.4107,-0.5846,-0.851,-1.0749,-1.2554,-1.2424,-1.2308,-1.2308,-1.2595,-1.2766,-1.2732,-1.261,-1.2515,-1.2454,-1.2338,-1.2271,0.0,0.0,0.0,0.0,0.0,0.0,0.0,0.0,0.0,0.0,0.0,0.0,0.0,0.0,0.0,0.0,0.0,0.0,0.0,0.0,0.0,0.0,0.0,0.0,0.0,0.0,0.0,0.0,0.0,0.0,0.0,0.0,0.0,0.0,0.0,0.0,0.0,0.0,0.0,0.0,0.0,0.0,0.0,0.0,0.0,0.0,0.0,0.0,0.0,0.0,0.0,0.0,0.0,0.0,0.0,0.0,0.0,0.0,0.0,0.0,0.0,0.0,0.0,-0.0179,-0.1345,-0.1793,-0.1883,-0.1793,-0.1793,-0.1614,-0.0359,0.0,0.0,0.0,0.0,0.0,0.0,0.0,0.0,0.0,0.0,0.0,0.0,0.0,0.0,0.0,0.0,0.0,0.0,0.0,0.0,0.0,0.0,-0.0421,-0.1513,-0.3608,-0.5867,-0.8123,-1.0382,-1.2139,-1.3314,-1.3254,-1.3173,-1.3173,-1.3024,-1.2908,-1.284,-1.2684,-1.2576,-1.2501,-1.2427,-1.1849,0.0,0.0,0.0,0.0,0.0,0.0,0.0,0.0,0.0,0.0,0.0,0.0,0.0,0.0,0.0,0.0,0.0,0.0,0.0,0.0,0.0,0.0,0.0,0.0,0.0,0.0,0.0,0.0,0.0,0.0,0.0,0.0,0.0,0.0,0.0,0.0,0.0,0.0,0.0,0.0,0.0,0.0,0.0,0.0,0.0,0.0,0.0,0.0,0.0,0.0,0.0,0.0,0.0,0.0,0.0,0.0,0.0,0.0,0.0,0.0,0.0,0.0,0.0,-0.0359,-0.233,-0.1614,-0.0449,-0.2419,-0.1524,0.0,0.0,0.0,0.0,0.0,0.0,0.0,0.0,0.0,0.0,0.0,0.0,0.0,0.0,0.0,0.0,0.0,0.0,0.0,0.0,0.0,0.0,0.0,-0.0337,-0.1346,-0.3191,-0.5784,-0.804,-0.9878,-1.2139,-1.3403,-1.3403,-1.3403,-1.3403,-1.3403,-1.3247,-1.3105,-1.2963,-1.2807,-1.2651,-1.2501,-1.2501,-1.1405,0.0,0.0,0.0,0.0,0.0,0.0,0.0,0.0,0.0,0.0,0.0,0.0,0.0,0.0,0.0,0.0,0.0,0.0,0.0,0.0,0.0,0.0,0.0,0.0,0.0,0.0,0.0,0.0,0.0,0.0,0.0,0.0,0.0,0.0,0.0,0.0,0.0,0.0,0.0,0.0,0.0,0.0,0.0,0.0,0.0,0.0,0.0,0.0,0.0,0.0,0.0,0.0,0.0,0.0,0.0,0.0,0.0,0.0,0.0,0.0,0.0,0.0,0.0,-0.009,-0.0359,-0.0269,-0.009,-0.0359,-0.0269,0.0,0.0,0.0,0.0,0.0,0.0,0.0,0.0,0.0,0.0,0.0,0.0,0.0,0.0,0.0,0.0,0.0,0.0,0.0,0.0,0.0,0.0,0.0,-0.1681,-0.3023,-0.3358,-0.7205,-0.9795,-1.0044,-1.2139,-1.3403,-1.3403,-1.3403,-1.3403,-1.3403,-1.3247,-1.3105,-1.2963,-1.2807,-1.2651,-1.2501,-1.2501,-1.1405,0.0,0.0,0.0,0.0,0.0,0.0,0.0,0.0,0.0,0.0,0.0,0.0,0.0,0.0,0.0,0.0,0.0,0.0,0.0,0.0,0.0,0.0,0.0,0.0,0.0,0.0,0.0,0.0,0.0,0.0,0.0,0.0,0.0,0.0,0.0,0.0,0.0,0.0,0.0,0.0,0.0,0.0,0.0,0.0,0.0,0.0,0.0,0.0,0.0,0.0,0.0,-0.0084,-0.1353,-0.187,-0.1882,-0.19,-0.1921,-0.1766,-0.0444,0.0,0.0,0.0,0.0,-0.0269,-0.1614,-0.1076,-0.0269,-0.1614,-0.1076,0.0,0.0,0.0,0.0,0.0,0.0,0.0,0.0,0.0,0.0,0.0,0.0,0.0,0.0,0.0,0.0,0.0,0.0,0.0,0.0,0.0,0.0,0.0,-0.2016,-0.386,-0.5114,-0.8207,-1.0632,-1.189,-1.2899,-1.3403,-1.3403,-1.3403,-1.3403,-1.3403,-1.3247,-1.3105,-1.2963,-1.2807,-1.2651,-1.2501,-1.1327,-0.9687,0.0,0.0,0.0,0.0,0.0,0.0,0.0,0.0,0.0,0.0,0.0,0.0,0.0,0.0,0.0,0.0,0.0,0.0,0.0,0.0,0.0,0.0,0.0,0.0,0.0,0.0,0.0,0.0,0.0,0.0,0.0,0.0,0.0,0.0,0.0,0.0,0.0,0.0,0.0,0.0,0.0,0.0,0.0,0.0,0.0,0.0,0.0,0.0,0.0,-0.0576,-0.0829,-0.1088,-0.3259,-0.4206,-0.4248,-0.4261,-0.3879,-0.3148,-0.1404,-0.0443,0.0,0.0,0.0,-0.0359,-0.215,-0.1434,-0.0359,-0.215,-0.1345,0.0,0.0,0.0,0.0,0.0,0.0,-0.018,-0.0807,-0.0897,-0.0897,-0.0897,-0.0897,-0.0718,-0.009,0.0,0.0,0.0,0.0,0.0,0.0,0.0,-0.0253,-0.0757,-0.2855,-0.4863,-0.6533,-0.929,-1.1303,-1.2478,-1.3065,-1.3403,-1.3403,-1.3403,-1.3403,-1.3403,-1.3288,-1.3159,-1.3017,-1.2861,-1.239,-1.1694,-1.0169,-0.7981,0.0,0.0,0.0,0.0,0.0,0.0,0.0,0.0,0.0,0.0,0.0,0.0,0.0,0.0,0.0,0.0,0.0,0.0,0.0,0.0,0.0,0.0,0.0,0.0,0.0,0.0,0.0,0.0,0.0,0.0,0.0,0.0,0.0,0.0,0.0,0.0,0.0,0.0,0.0,0.0,0.0,0.0,0.0,0.0,0.0,0.0,0.0,0.0,-0.016,-0.2102,-0.3025,-0.3304,-0.5525,-0.639,-0.655,-0.6535,-0.5205,-0.3339,-0.32,-0.1749,0.0,0.0,0.0,0.0,-0.018,-0.009,0.0,-0.018,-0.009,0.0,0.0,0.0,0.0,0.0,0.0,-0.0628,-0.2955,-0.3403,-0.3403,-0.3403,-0.3403,-0.2687,-0.0359,0.0,0.0,0.0,0.0,0.0,0.0,0.0,-0.0842,-0.2939,-0.5198,-0.6533,-0.67,-1.0715,-1.2388,-1.0294,-1.2222,-1.3403,-1.3403,-1.3403,-1.3403,-1.3403,-1.3397,-1.3315,-1.3159,-1.3017,-1.1899,-0.9771,-0.9506,-0.7232,0.0,0.0,0.0,0.0,0.0,0.0,0.0,0.0,0.0,0.0,0.0,0.0,0.0,0.0,0.0,0.0,0.0,0.0,0.0,0.0,0.0,0.0,0.0,0.0,0.0,0.0,0.0,0.0,0.0,0.0,0.0,0.0,0.0,0.0,0.0,0.0,0.0,0.0,0.0,0.0,0.0,0.0,0.0,0.0,0.0,-0.0077,-0.141,-0.198,-0.2075,-0.2803,-0.3971,-0.5602,-0.7737,-0.8701,-0.8711,-0.7234,-0.6183,-0.5117,-0.2231,-0.0693,0.0,0.0,0.0,0.0,0.0,0.0,0.0,0.0,0.0,0.0,0.0,0.0,0.0,0.0,0.0,-0.1076,-0.5008,-0.4651,-0.4027,-0.5544,-0.5811,-0.5544,-0.474,-0.4561,-0.4535,-0.4455,-0.3215,-0.2241,-0.2203,-0.0928,-0.0337,-0.1093,-0.3191,-0.4528,-0.4528,-0.7368,-0.9373,-1.0044,-1.0798,-1.1884,-1.3321,-1.3403,-1.3403,-1.3403,-1.3403,-1.3322,-1.3173,-1.1714,-1.0495,-0.9572,-0.6677,-0.4539,0.0,0.0,0.0,0.0,0.0,0.0,0.0,0.0,0.0,0.0,0.0,0.0,0.0,0.0,0.0,0.0,0.0,0.0,0.0,0.0,0.0,0.0,0.0,0.0,0.0,0.0,0.0,0.0,0.0,0.0,0.0,0.0,0.0,0.0,0.0,0.0,0.0,0.0,0.0,0.0,0.0,0.0,0.0,0.0,0.0,-0.0154,-0.2182,-0.3067,-0.3247,-0.4668,-0.6174,-0.7856,-0.9983,-1.0984,-1.0965,-0.8624,-0.7322,-0.6187,-0.2464,-0.06,0.0,0.0,0.0,0.0,0.0,0.0,0.0,0.0,0.0,0.0,0.0,0.0,0.0,0.0,0.0,-0.1345,-0.6079,-0.5898,-0.5454,-0.7862,-0.8308,-0.804,-0.7235,-0.7057,-0.6757,-0.5963,-0.4524,-0.3278,-0.2382,-0.0929,-0.0253,-0.1009,-0.252,-0.3358,-0.3357,-0.5365,-0.7368,-0.8874,-0.9628,-1.1048,-1.3314,-1.3403,-1.3403,-1.3403,-1.3403,-1.3349,-1.3247,-1.0964,-0.9354,-0.8545,-0.4831,-0.3153,0.0,0.0,0.0,0.0,0.0,0.0,0.0,0.0,0.0,0.0,0.0,0.0,0.0,0.0,0.0,0.0,0.0,0.0,0.0,0.0,0.0,0.0,0.0,0.0,0.0,0.0,0.0,0.0,0.0,0.0,0.0,0.0,0.0,0.0,0.0,0.0,0.0,0.0,0.0,0.0,0.0,0.0,0.0,0.0,0.0,-0.0154,-0.226,-0.3208,-0.3521,-0.7656,-0.9583,-1.011,-1.2227,-1.3139,-1.2982,-1.0715,-0.854,-0.6285,-0.4027,-0.1862,0.0,0.0,0.0,0.0,0.0,0.0,0.0,0.0,0.0,0.0,0.0,0.0,0.0,0.0,0.0,-0.1345,-0.6079,-0.7057,-0.7862,-1.0357,-1.0806,-1.0091,-0.7684,-0.7324,-0.6522,-0.4114,-0.3779,-0.2861,-0.0434,0.0,-0.0842,-0.2939,-0.3274,-0.3274,-0.3274,-0.5282,-0.6536,-0.6617,-0.8628,-1.0887,-1.3238,-1.3321,-1.3321,-1.341,-1.3321,-1.3314,-1.3314,-1.0842,-0.8643,-0.6673,-0.4159,-0.3205,0.0,0.0,0.0,0.0,0.0,0.0,0.0,0.0,0.0,0.0,0.0,0.0,0.0,0.0,0.0,0.0,0.0,0.0,0.0,0.0,0.0,0.0,0.0,0.0,0.0,0.0,0.0,0.0,0.0,0.0,0.0,0.0,0.0,0.0,0.0,0.0,0.0,0.0,0.0,0.0,0.0,0.0,0.0,0.0,0.0,-0.0232,-0.3815,-0.5396,-0.563,-0.8283,-1.0459,-1.2141,-1.2795,-1.215,-1.0632,-0.8457,-0.6199,-0.3944,-0.1681,-0.0506,0.0,0.0,0.0,0.0,0.0,0.0,0.0,0.0,0.0,0.0,0.0,0.0,0.0,0.0,0.0,-0.1345,-0.6079,-0.7057,-0.8308,-1.2503,-1.3312,-1.3135,-1.2414,-1.2325,-1.1489,-0.8925,-0.7157,-0.5267,-0.2747,-0.1019,-0.0253,-0.0841,-0.0925,-0.0925,-0.0925,-0.1513,-0.252,-0.4111,-0.49,-0.7039,-1.1014,-1.1014,-1.1777,-1.3482,-1.1855,-1.0965,-1.0965,-0.8692,-0.7278,-0.6586,-0.2667,-0.1846,0.0,0.0,0.0,0.0,0.0,0.0,0.0,0.0,0.0,0.0,0.0,0.0,0.0,0.0,0.0,0.0,0.0,0.0,0.0,0.0,0.0,0.0,0.0,0.0,0.0,0.0,0.0,0.0,0.0,0.0,0.0,0.0,0.0,0.0,0.0,0.0,0.0,0.0,0.0,0.0,0.0,0.0,0.0,0.0,-0.0464,-0.1474,-0.4836,-0.68,-0.7738,-0.9842,-1.1535,-1.2788,-1.1881,-1.0888,-0.9565,-0.644,-0.4444,-0.3023,-0.0757,0.0,0.0,0.0,0.0,0.0,0.0,0.0,0.0,0.0,0.0,-0.0269,-0.1256,-0.0718,-0.0269,-0.1255,-0.1524,-0.2509,-0.6255,-0.7859,-0.9735,-1.3578,-1.4299,-1.4299,-1.4299,-1.4299,-1.3464,-1.0983,-0.8594,-0.6261,-0.3808,-0.1459,0.0,0.0,0.0,0.0,0.0,0.0,-0.0925,-0.3191,-0.3308,-0.5455,-1.0133,-1.0174,-1.1204,-1.3543,-1.1333,-0.917,-0.7201,-0.5912,-0.4831,-0.386,-0.1183,-0.1788,0.0,0.0,0.0,0.0,0.0,0.0,0.0,0.0,0.0,0.0,0.0,0.0,0.0,0.0,0.0,0.0,0.0,0.0,0.0,0.0,0.0,0.0,0.0,0.0,0.0,0.0,0.0,0.0,0.0,0.0,0.0,0.0,0.0,0.0,0.0,0.0,0.0,0.0,0.0,0.0,0.0,0.0,0.0,0.0,-0.1008,-0.2891,-0.4989,-0.7011,-0.8886,-1.0916,-1.2024,-1.2187,-1.0297,-0.9359,-0.8652,-0.4836,-0.3187,-0.2687,-0.0673,0.0,0.0,0.0,0.0,0.0,0.0,0.0,0.0,0.0,-0.0179,-0.0897,-0.3045,-0.224,-0.1345,-0.349,-0.4027,-0.4651,-0.6968,-0.9197,-1.1344,-1.3489,-1.4122,-1.4299,-1.4299,-1.4299,-1.3401,-1.0717,-0.8497,-0.6156,-0.3524,-0.1311,0.0,0.0,0.0,0.0,0.0,0.0,-0.0843,-0.2777,-0.2894,-0.5047,-0.9743,-0.9912,-1.1116,-1.357,-1.1148,-0.7615,-0.3023,-0.3274,-0.2186,0.0,-0.0256,-0.2836,0.0,0.0,0.0,0.0,0.0,0.0,0.0,0.0,0.0,0.0,0.0,0.0,0.0,0.0,0.0,0.0,0.0,0.0,0.0,0.0,0.0,0.0,0.0,0.0,0.0,0.0,0.0,0.0,0.0,0.0,0.0,0.0,0.0,0.0,0.0,0.0,0.0,0.0,0.0,0.0,0.0,0.0,0.0,0.0,-0.0232,-0.0696,-0.2828,-0.3975,-0.4475,-0.6627,-0.858,-1.0182,-0.9729,-0.752,-0.4452,-0.3722,-0.2251,-0.0589,-0.0168,0.0,0.0,0.0,0.0,0.0,0.0,0.0,0.0,0.0,-0.1434,-0.3045,-0.349,-0.4651,-0.5811,-0.6347,-0.6433,-0.7057,-0.9464,-1.0357,-1.0806,-1.1344,-1.2952,-1.4299,-1.4299,-1.4299,-1.2863,-0.8486,-0.7434,-0.5542,-0.1235,-0.0262,0.0,0.0,0.0,0.0,0.0,0.0,-0.0171,-0.0597,-0.0608,-0.2803,-0.7516,-0.7614,-0.9499,-1.3718,-0.9577,-0.5208,-0.0673,-0.2436,-0.2194,-0.0085,-0.1963,-0.4394,0.0,0.0,0.0,0.0,0.0,0.0,0.0,0.0,0.0,0.0,0.0,0.0,0.0,0.0,0.0,0.0,0.0,0.0,0.0,0.0,0.0,0.0,0.0,0.0,0.0,0.0,0.0,0.0,0.0,0.0,0.0,0.0,0.0,0.0,0.0,0.0,0.0,0.0,0.0,0.0,0.0,0.0,0.0,0.0,-0.0538,-0.1602,-0.2669,-0.3672,-0.4765,-0.5835,-0.6287,-0.6391,-0.6349,-0.507,-0.3111,-0.2061,-0.1,0.0,0.0,0.0,0.0,0.0,0.0,0.0,0.0,0.0,-0.0267,-0.1432,-0.2687,-0.4116,-0.6522,-0.7146,-0.7413,-0.8575,-0.893,-0.893,-0.893,-0.9824,-1.0357,-0.9108,-0.9913,-1.1072,-1.2325,-1.1522,-1.0268,-0.9108,-0.6849,-0.4526,-0.2133,-0.0709,0.0,0.0,0.0,0.0,0.0,0.0,0.0,0.0,0.0,-0.2117,-0.6858,-0.7071,-0.8089,-1.0381,-0.7961,-0.4528,0.0,-0.11,-0.1106,-0.0086,-0.2504,-0.4981,0.0,0.0,0.0,0.0,0.0,0.0,0.0,0.0,0.0,0.0,0.0,0.0,0.0,0.0,0.0,0.0,0.0,0.0,0.0,0.0,0.0,0.0,0.0,0.0,0.0,0.0,0.0,0.0,0.0,0.0,0.0,0.0,0.0,0.0,0.0,0.0,0.0,0.0,0.0,0.0,0.0,0.0,0.0,0.0,-0.0916,-0.2495,-0.2521,-0.3454,-0.5069,-0.5069,-0.4101,-0.2508,-0.2927,-0.2885,-0.2275,-0.0658,0.0,0.0,0.0,0.0,0.0,0.0,0.0,0.0,0.0,0.0,-0.0536,-0.2952,-0.3938,-0.5276,-0.9557,-0.9557,-0.9019,-1.0895,-1.1072,-1.018,-0.8219,-0.893,-0.9286,-0.6879,-0.6436,-0.7146,-0.9557,-0.8397,-0.7595,-0.9108,-0.6079,-0.3401,-0.2955,-0.1166,0.0,0.0,0.0,0.0,0.0,0.0,0.0,0.0,0.0,-0.1946,-0.6265,-0.7279,-0.7589,-0.7097,-0.6877,-0.4544,0.0,-0.0426,-0.0685,-0.0773,-0.3231,-0.5753,0.0,0.0,0.0,0.0,0.0,0.0,0.0,0.0,0.0,0.0,0.0,0.0,0.0,0.0,0.0,0.0,0.0,0.0,0.0,0.0,0.0,0.0,0.0,0.0,0.0,0.0,0.0,0.0,0.0,0.0,0.0,0.0,0.0,0.0,0.0,0.0,0.0,0.0,0.0,0.0,0.0,0.0,0.0,0.0,-0.0152,-0.0379,-0.0379,-0.0458,-0.0693,-0.0693,-0.0543,-0.0549,-0.2353,-0.199,-0.0325,-0.0081,0.0,0.0,0.0,0.0,0.0,0.0,0.0,0.0,0.0,0.0,-0.0525,-0.294,-0.5097,-0.7324,-1.0002,-1.2059,-1.3578,-1.385,-1.2237,-1.0629,-1.0357,-0.8842,-0.6793,-0.4474,-0.4027,-0.474,-0.7146,-0.7324,-0.6522,-0.4651,-0.3938,-0.2866,-0.0718,-0.018,0.0,0.0,0.0,0.0,0.0,0.0,0.0,0.0,0.0,-0.1164,-0.393,-0.796,-0.9192,-0.7184,-0.6925,-0.4592,0.0,-0.2133,-0.3171,-0.3289,-0.56,-0.8044,0.0,0.0,0.0,0.0,0.0,0.0,0.0,0.0,0.0,0.0,0.0,0.0,0.0,0.0,0.0,0.0,0.0,0.0,0.0,0.0,0.0,0.0,0.0,0.0,0.0,0.0,0.0,0.0,0.0,0.0,0.0,0.0,0.0,0.0,0.0,0.0,0.0,0.0,0.0,0.0,0.0,0.0,0.0,0.0,0.0,0.0,0.0,0.0,0.0,0.0,0.0,-0.0079,-0.0941,-0.0796,0.0,0.0,0.0,0.0,0.0,0.0,0.0,0.0,0.0,0.0,0.0,-0.0964,-0.2567,-0.4996,-0.7324,-0.9735,-1.2148,-1.3578,-1.4299,-1.4299,-1.3489,-1.2059,-0.9197,-0.7773,-0.5987,-0.224,-0.1524,-0.1793,-0.2776,-0.2955,-0.3134,-0.358,-0.2419,-0.1166,-0.009,0.0,0.0,0.0,0.0,0.0,0.0,0.0,0.0,0.0,-0.1342,-0.3134,-0.5544,-0.8749,-1.0083,-0.917,-0.9013,-0.7344,-0.4132,-0.5075,-0.6311,-0.7773,-0.8828,-0.913,0.0,0.0,0.0,0.0,0.0,0.0,0.0,0.0,0.0,0.0,0.0,0.0,0.0,0.0,0.0,0.0,0.0,0.0,0.0,0.0,0.0,0.0,0.0,0.0,0.0,0.0,0.0,0.0,0.0,0.0,0.0,0.0,0.0,0.0,0.0,0.0,0.0,0.0,0.0,0.0,0.0,0.0,0.0,0.0,0.0,0.0,0.0,0.0,0.0,0.0,0.0,0.0,0.0,0.0,0.0,0.0,0.0,0.0,0.0,0.0,0.0,0.0,0.0,0.0,0.0,-0.1671,-0.4101,-0.643,-0.8397,-1.0268,-1.2686,-1.2863,-1.2503,-1.3135,-1.2774,-1.1344,-0.7862,-0.6611,-0.4919,-0.0807,0.0,0.0,0.0,0.0,-0.0628,-0.233,-0.1166,0.0,0.0,0.0,0.0,0.0,0.0,0.0,0.0,0.0,0.0,0.0,-0.2336,-0.4673,-0.7091,-0.9348,-1.0621,-1.0771,-1.0493,-0.9311,-0.7125,-0.7645,-0.8922,-1.0729,-1.0155,-0.9361,0.0,0.0,0.0,0.0,0.0,0.0,0.0,0.0,0.0,0.0,0.0,0.0,0.0,0.0,0.0,0.0,0.0,0.0,0.0,0.0,0.0,0.0,0.0,0.0,0.0,0.0,0.0,0.0,0.0,0.0,0.0,0.0,0.0,0.0,0.0,0.0,0.0,0.0,0.0,0.0,0.0,0.0,0.0,0.0,0.0,0.0,0.0,0.0,0.0,0.0,0.0,0.0,0.0,0.0,0.0,0.0,0.0,0.0,0.0,0.0,0.0,0.0,0.0,0.0,0.0,-0.1662,-0.4062,-0.6415,-0.7149,-0.777,-1.018,-0.9108,-0.7951,-1.0268,-0.9019,-0.7324,-0.7146,-0.5276,-0.2955,-0.0449,0.0,0.0,0.0,0.0,0.0,-0.009,-0.009,0.0,0.0,0.0,0.0,0.0,0.0,0.0,0.0,0.0,0.0,0.0,-0.2352,-0.4905,-0.7258,-0.9604,-1.0904,-1.0895,-1.0776,-0.9486,-0.7118,-0.9398,-1.0651,-1.086,-0.8343,-0.8401,0.0,0.0,0.0,0.0,0.0,0.0,0.0,0.0,0.0,0.0,0.0,0.0,0.0,0.0,0.0,0.0,0.0,0.0,0.0,0.0,0.0,0.0,0.0,0.0,0.0,0.0,0.0,0.0,0.0,0.0,0.0,0.0,0.0,0.0,0.0,0.0,0.0,0.0,0.0,0.0,0.0,0.0,0.0,0.0,0.0,0.0,0.0,0.0,0.0,0.0,0.0,0.0,0.0,0.0,0.0,0.0,0.0,0.0,0.0,0.0,0.0,0.0,0.0,0.0,0.0,-0.2796,-0.6083,-0.6859,-0.8219,-0.9646,-1.0451,-1.0091,-0.9646,-1.054,-1.0091,-0.9019,-0.7413,-0.5276,-0.2866,-0.0449,0.0,0.0,0.0,0.0,0.0,0.0,0.0,0.0,0.0,0.0,0.0,0.0,0.0,0.0,0.0,0.0,0.0,0.0,-0.2362,-0.4921,-0.733,-0.9798,-1.1795,-1.3403,-1.3266,-1.2878,-1.2147,-1.2878,-1.3241,-1.3232,-0.9127,-0.7765,0.0,0.0,0.0,0.0,0.0,0.0,0.0,0.0,0.0,0.0,0.0,0.0,0.0,0.0,0.0,0.0,0.0,0.0,0.0,0.0,0.0,0.0,0.0,0.0,0.0,0.0,0.0,0.0,0.0,0.0,0.0,0.0,0.0,0.0,0.0,0.0,0.0,0.0,0.0,0.0,0.0,0.0,0.0,0.0,0.0,0.0,0.0,0.0,0.0,0.0,0.0,0.0,0.0,0.0,0.0,0.0,0.0,0.0,0.0,0.0,0.0,0.0,0.0,0.0,0.0,-0.2717,-0.5845,-0.5861,-0.6948,-0.8211,-0.8179,-0.7573,-0.7146,-0.7951,-0.8219,-0.7773,-0.6168,-0.4651,-0.2866,-0.0449,0.0,0.0,0.0,0.0,0.0,0.0,0.0,0.0,0.0,0.0,0.0,0.0,0.0,0.0,0.0,0.0,0.0,0.0,-0.3204,-0.5891,-0.7405,-1.0737,-1.3284,-1.4884,-1.4726,-1.4692,-1.4896,-1.4692,-1.459,-1.45,-0.9631,-0.7443]}]]